<?xml version="1.0" encoding="UTF-8" standalone="no" ?>
<gpx xmlns="http://www.topografix.com/GPX/1/1" xmlns:xsi="http://www.w3.org/2001/XMLSchema-instance" xsi:schemaLocation="http://www.topografix.com/GPX/1/1 http://www.topografix.com/GPX/1/1/gpx.xsd" version="1.1" creator="VisuGPX - https://www.visugpx.com">
  <metadata>
    <name>Boucle Saumane - 25kms</name>
  </metadata>
  <trk>
    <name><![CDATA[Boucle Saumane - 25kms_1]]></name>
    <trkseg>
      <trkpt lat="44.09004" lon="5.69099">
        <ele>878.2</ele>
        <time>2021-09-01T10:26:19Z</time>
      </trkpt>
      <trkpt lat="44.09023" lon="5.69099">
        <ele>878.6</ele>
        <time>2021-09-01T10:26:26Z</time>
      </trkpt>
      <trkpt lat="44.0903" lon="5.69093">
        <ele>878.6</ele>
        <time>2021-09-01T10:26:32Z</time>
      </trkpt>
      <trkpt lat="44.09031" lon="5.69093">
        <ele>879</ele>
        <time>2021-09-01T10:26:46Z</time>
      </trkpt>
      <trkpt lat="44.09033" lon="5.69093">
        <ele>879.2</ele>
        <time>2021-09-01T10:26:47Z</time>
      </trkpt>
      <trkpt lat="44.0904" lon="5.6909">
        <ele>879.2</ele>
        <time>2021-09-01T10:26:50Z</time>
      </trkpt>
      <trkpt lat="44.09056" lon="5.69081">
        <ele>879</ele>
        <time>2021-09-01T10:26:55Z</time>
      </trkpt>
      <trkpt lat="44.09068" lon="5.69075">
        <ele>879.2</ele>
        <time>2021-09-01T10:26:58Z</time>
      </trkpt>
      <trkpt lat="44.09077" lon="5.69069">
        <ele>879.4</ele>
        <time>2021-09-01T10:27:00Z</time>
      </trkpt>
      <trkpt lat="44.09087" lon="5.69066">
        <ele>879.4</ele>
        <time>2021-09-01T10:27:02Z</time>
      </trkpt>
      <trkpt lat="44.09102" lon="5.69064">
        <ele>879.6</ele>
        <time>2021-09-01T10:27:05Z</time>
      </trkpt>
      <trkpt lat="44.09124" lon="5.69065">
        <ele>879.4</ele>
        <time>2021-09-01T10:27:10Z</time>
      </trkpt>
      <trkpt lat="44.09151" lon="5.69059">
        <ele>879.4</ele>
        <time>2021-09-01T10:27:16Z</time>
      </trkpt>
      <trkpt lat="44.09155" lon="5.69057">
        <ele>879.4</ele>
        <time>2021-09-01T10:27:17Z</time>
      </trkpt>
      <trkpt lat="44.0917" lon="5.6905">
        <ele>879.6</ele>
        <time>2021-09-01T10:27:21Z</time>
      </trkpt>
      <trkpt lat="44.09184" lon="5.69059">
        <ele>879.6</ele>
        <time>2021-09-01T10:27:26Z</time>
      </trkpt>
      <trkpt lat="44.09186" lon="5.69063">
        <ele>879.6</ele>
        <time>2021-09-01T10:27:27Z</time>
      </trkpt>
      <trkpt lat="44.09184" lon="5.6907">
        <ele>879.8</ele>
        <time>2021-09-01T10:27:29Z</time>
      </trkpt>
      <trkpt lat="44.09177" lon="5.69093">
        <ele>879.8</ele>
        <time>2021-09-01T10:27:34Z</time>
      </trkpt>
      <trkpt lat="44.09172" lon="5.69126">
        <ele>880</ele>
        <time>2021-09-01T10:27:41Z</time>
      </trkpt>
      <trkpt lat="44.09175" lon="5.69155">
        <ele>880.2</ele>
        <time>2021-09-01T10:27:47Z</time>
      </trkpt>
      <trkpt lat="44.09177" lon="5.69185">
        <ele>880.6</ele>
        <time>2021-09-01T10:27:53Z</time>
      </trkpt>
      <trkpt lat="44.0917" lon="5.69217">
        <ele>881</ele>
        <time>2021-09-01T10:28:00Z</time>
      </trkpt>
      <trkpt lat="44.09158" lon="5.69247">
        <ele>881.6</ele>
        <time>2021-09-01T10:28:07Z</time>
      </trkpt>
      <trkpt lat="44.09149" lon="5.69274">
        <ele>882.4</ele>
        <time>2021-09-01T10:28:13Z</time>
      </trkpt>
      <trkpt lat="44.09147" lon="5.69297">
        <ele>882.8</ele>
        <time>2021-09-01T10:28:18Z</time>
      </trkpt>
      <trkpt lat="44.09146" lon="5.69319">
        <ele>883.4</ele>
        <time>2021-09-01T10:28:23Z</time>
      </trkpt>
      <trkpt lat="44.0915" lon="5.69349">
        <ele>883.8</ele>
        <time>2021-09-01T10:28:29Z</time>
      </trkpt>
      <trkpt lat="44.09158" lon="5.69396">
        <ele>884.4</ele>
        <time>2021-09-01T10:28:37Z</time>
      </trkpt>
      <trkpt lat="44.09168" lon="5.6944">
        <ele>885.2</ele>
        <time>2021-09-01T10:28:45Z</time>
      </trkpt>
      <trkpt lat="44.09188" lon="5.69483">
        <ele>886</ele>
        <time>2021-09-01T10:28:54Z</time>
      </trkpt>
      <trkpt lat="44.09207" lon="5.69512">
        <ele>886.8</ele>
        <time>2021-09-01T10:29:01Z</time>
      </trkpt>
      <trkpt lat="44.09214" lon="5.69519">
        <ele>887</ele>
        <time>2021-09-01T10:29:03Z</time>
      </trkpt>
      <trkpt lat="44.09225" lon="5.69527">
        <ele>887.4</ele>
        <time>2021-09-01T10:29:06Z</time>
      </trkpt>
      <trkpt lat="44.09236" lon="5.69536">
        <ele>887.8</ele>
        <time>2021-09-01T10:29:09Z</time>
      </trkpt>
      <trkpt lat="44.09251" lon="5.69545">
        <ele>888</ele>
        <time>2021-09-01T10:29:13Z</time>
      </trkpt>
      <trkpt lat="44.09263" lon="5.69552">
        <ele>888.4</ele>
        <time>2021-09-01T10:29:16Z</time>
      </trkpt>
      <trkpt lat="44.09279" lon="5.69558">
        <ele>888.8</ele>
        <time>2021-09-01T10:29:20Z</time>
      </trkpt>
      <trkpt lat="44.09283" lon="5.6956">
        <ele>889</ele>
        <time>2021-09-01T10:29:21Z</time>
      </trkpt>
      <trkpt lat="44.09309" lon="5.69569">
        <ele>889.8</ele>
        <time>2021-09-01T10:29:27Z</time>
      </trkpt>
      <trkpt lat="44.09339" lon="5.69583">
        <ele>890.8</ele>
        <time>2021-09-01T10:29:34Z</time>
      </trkpt>
      <trkpt lat="44.09353" lon="5.69597">
        <ele>891.4</ele>
        <time>2021-09-01T10:29:39Z</time>
      </trkpt>
      <trkpt lat="44.09354" lon="5.69597">
        <ele>891.8</ele>
        <time>2021-09-01T10:29:43Z</time>
      </trkpt>
      <trkpt lat="44.09354" lon="5.69597">
        <ele>893.4</ele>
        <time>2021-09-01T10:29:58Z</time>
      </trkpt>
      <trkpt lat="44.09354" lon="5.69597">
        <ele>895</ele>
        <time>2021-09-01T10:30:18Z</time>
      </trkpt>
      <trkpt lat="44.09354" lon="5.69597">
        <ele>896.4</ele>
        <time>2021-09-01T10:30:39Z</time>
      </trkpt>
      <trkpt lat="44.09354" lon="5.69597">
        <ele>897.4</ele>
        <time>2021-09-01T10:30:59Z</time>
      </trkpt>
      <trkpt lat="44.09357" lon="5.69599">
        <ele>898.2</ele>
        <time>2021-09-01T10:31:13Z</time>
      </trkpt>
      <trkpt lat="44.0937" lon="5.6961">
        <ele>898.4</ele>
        <time>2021-09-01T10:31:18Z</time>
      </trkpt>
      <trkpt lat="44.09399" lon="5.69637">
        <ele>899.2</ele>
        <time>2021-09-01T10:31:26Z</time>
      </trkpt>
      <trkpt lat="44.09428" lon="5.69665">
        <ele>900</ele>
        <time>2021-09-01T10:31:34Z</time>
      </trkpt>
      <trkpt lat="44.09446" lon="5.69684">
        <ele>900.4</ele>
        <time>2021-09-01T10:31:39Z</time>
      </trkpt>
      <trkpt lat="44.0945" lon="5.69688">
        <ele>900.4</ele>
        <time>2021-09-01T10:31:40Z</time>
      </trkpt>
      <trkpt lat="44.09475" lon="5.69724">
        <ele>901.2</ele>
        <time>2021-09-01T10:31:48Z</time>
      </trkpt>
      <trkpt lat="44.095" lon="5.69758">
        <ele>902.4</ele>
        <time>2021-09-01T10:31:56Z</time>
      </trkpt>
      <trkpt lat="44.09528" lon="5.69789">
        <ele>903.2</ele>
        <time>2021-09-01T10:32:04Z</time>
      </trkpt>
      <trkpt lat="44.09557" lon="5.6982">
        <ele>904.2</ele>
        <time>2021-09-01T10:32:12Z</time>
      </trkpt>
      <trkpt lat="44.09587" lon="5.69848">
        <ele>905.4</ele>
        <time>2021-09-01T10:32:20Z</time>
      </trkpt>
      <trkpt lat="44.09595" lon="5.69854">
        <ele>905.6</ele>
        <time>2021-09-01T10:32:22Z</time>
      </trkpt>
      <trkpt lat="44.09612" lon="5.6986">
        <ele>906.2</ele>
        <time>2021-09-01T10:32:26Z</time>
      </trkpt>
      <trkpt lat="44.09643" lon="5.69868">
        <ele>907.2</ele>
        <time>2021-09-01T10:32:33Z</time>
      </trkpt>
      <trkpt lat="44.09673" lon="5.69875">
        <ele>908</ele>
        <time>2021-09-01T10:32:40Z</time>
      </trkpt>
      <trkpt lat="44.09708" lon="5.69882">
        <ele>909.2</ele>
        <time>2021-09-01T10:32:48Z</time>
      </trkpt>
      <trkpt lat="44.09723" lon="5.69885">
        <ele>910</ele>
        <time>2021-09-01T10:32:53Z</time>
      </trkpt>
      <trkpt lat="44.09736" lon="5.69888">
        <ele>910.8</ele>
        <time>2021-09-01T10:32:58Z</time>
      </trkpt>
      <trkpt lat="44.0976" lon="5.69895">
        <ele>911.6</ele>
        <time>2021-09-01T10:33:04Z</time>
      </trkpt>
      <trkpt lat="44.09769" lon="5.69898">
        <ele>911.8</ele>
        <time>2021-09-01T10:33:06Z</time>
      </trkpt>
      <trkpt lat="44.09781" lon="5.69907">
        <ele>912.2</ele>
        <time>2021-09-01T10:33:09Z</time>
      </trkpt>
      <trkpt lat="44.09797" lon="5.69924">
        <ele>912.6</ele>
        <time>2021-09-01T10:33:13Z</time>
      </trkpt>
      <trkpt lat="44.09803" lon="5.69934">
        <ele>912.8</ele>
        <time>2021-09-01T10:33:15Z</time>
      </trkpt>
      <trkpt lat="44.09806" lon="5.6994">
        <ele>913</ele>
        <time>2021-09-01T10:33:16Z</time>
      </trkpt>
      <trkpt lat="44.09815" lon="5.69965">
        <ele>913.4</ele>
        <time>2021-09-01T10:33:20Z</time>
      </trkpt>
      <trkpt lat="44.09834" lon="5.70001">
        <ele>914.2</ele>
        <time>2021-09-01T10:33:26Z</time>
      </trkpt>
      <trkpt lat="44.09841" lon="5.70012">
        <ele>914.4</ele>
        <time>2021-09-01T10:33:28Z</time>
      </trkpt>
      <trkpt lat="44.09851" lon="5.70027">
        <ele>914.6</ele>
        <time>2021-09-01T10:33:31Z</time>
      </trkpt>
      <trkpt lat="44.09868" lon="5.70059">
        <ele>915.2</ele>
        <time>2021-09-01T10:33:37Z</time>
      </trkpt>
      <trkpt lat="44.09871" lon="5.70064">
        <ele>915.4</ele>
        <time>2021-09-01T10:33:38Z</time>
      </trkpt>
      <trkpt lat="44.09881" lon="5.70087">
        <ele>915.8</ele>
        <time>2021-09-01T10:33:42Z</time>
      </trkpt>
      <trkpt lat="44.09888" lon="5.70099">
        <ele>915.8</ele>
        <time>2021-09-01T10:33:44Z</time>
      </trkpt>
      <trkpt lat="44.09902" lon="5.70115">
        <ele>916.2</ele>
        <time>2021-09-01T10:33:47Z</time>
      </trkpt>
      <trkpt lat="44.09919" lon="5.70128">
        <ele>916.4</ele>
        <time>2021-09-01T10:33:50Z</time>
      </trkpt>
      <trkpt lat="44.09932" lon="5.70132">
        <ele>916.4</ele>
        <time>2021-09-01T10:33:52Z</time>
      </trkpt>
      <trkpt lat="44.09966" lon="5.70135">
        <ele>916.4</ele>
        <time>2021-09-01T10:33:57Z</time>
      </trkpt>
      <trkpt lat="44.09995" lon="5.70145">
        <ele>916.2</ele>
        <time>2021-09-01T10:34:01Z</time>
      </trkpt>
      <trkpt lat="44.1001" lon="5.70151">
        <ele>916.2</ele>
        <time>2021-09-01T10:34:03Z</time>
      </trkpt>
      <trkpt lat="44.10049" lon="5.70163">
        <ele>916.4</ele>
        <time>2021-09-01T10:34:08Z</time>
      </trkpt>
      <trkpt lat="44.10056" lon="5.70167">
        <ele>916</ele>
        <time>2021-09-01T10:34:09Z</time>
      </trkpt>
      <trkpt lat="44.10067" lon="5.7018">
        <ele>915.6</ele>
        <time>2021-09-01T10:34:11Z</time>
      </trkpt>
      <trkpt lat="44.10071" lon="5.70197">
        <ele>916</ele>
        <time>2021-09-01T10:34:13Z</time>
      </trkpt>
      <trkpt lat="44.10072" lon="5.70205">
        <ele>916</ele>
        <time>2021-09-01T10:34:14Z</time>
      </trkpt>
      <trkpt lat="44.10079" lon="5.70251">
        <ele>915.6</ele>
        <time>2021-09-01T10:34:19Z</time>
      </trkpt>
      <trkpt lat="44.10082" lon="5.7026">
        <ele>915.6</ele>
        <time>2021-09-01T10:34:20Z</time>
      </trkpt>
      <trkpt lat="44.1009" lon="5.70277">
        <ele>915.4</ele>
        <time>2021-09-01T10:34:22Z</time>
      </trkpt>
      <trkpt lat="44.101" lon="5.70289">
        <ele>915.2</ele>
        <time>2021-09-01T10:34:24Z</time>
      </trkpt>
      <trkpt lat="44.10105" lon="5.70293">
        <ele>915</ele>
        <time>2021-09-01T10:34:25Z</time>
      </trkpt>
      <trkpt lat="44.10118" lon="5.703">
        <ele>914.8</ele>
        <time>2021-09-01T10:34:27Z</time>
      </trkpt>
      <trkpt lat="44.10133" lon="5.70304">
        <ele>914.6</ele>
        <time>2021-09-01T10:34:29Z</time>
      </trkpt>
      <trkpt lat="44.10149" lon="5.70302">
        <ele>914.2</ele>
        <time>2021-09-01T10:34:31Z</time>
      </trkpt>
      <trkpt lat="44.10181" lon="5.70298">
        <ele>913.6</ele>
        <time>2021-09-01T10:34:35Z</time>
      </trkpt>
      <trkpt lat="44.10192" lon="5.70298">
        <ele>913.2</ele>
        <time>2021-09-01T10:34:37Z</time>
      </trkpt>
      <trkpt lat="44.10203" lon="5.70302">
        <ele>912.8</ele>
        <time>2021-09-01T10:34:39Z</time>
      </trkpt>
      <trkpt lat="44.10228" lon="5.70304">
        <ele>912.2</ele>
        <time>2021-09-01T10:34:44Z</time>
      </trkpt>
      <trkpt lat="44.10232" lon="5.70304">
        <ele>912</ele>
        <time>2021-09-01T10:34:45Z</time>
      </trkpt>
      <trkpt lat="44.1026" lon="5.7031">
        <ele>911.6</ele>
        <time>2021-09-01T10:34:52Z</time>
      </trkpt>
      <trkpt lat="44.1028" lon="5.70315">
        <ele>911.4</ele>
        <time>2021-09-01T10:34:57Z</time>
      </trkpt>
      <trkpt lat="44.10306" lon="5.70322">
        <ele>911.4</ele>
        <time>2021-09-01T10:35:04Z</time>
      </trkpt>
      <trkpt lat="44.10339" lon="5.70333">
        <ele>912.6</ele>
        <time>2021-09-01T10:35:13Z</time>
      </trkpt>
      <trkpt lat="44.1036" lon="5.70353">
        <ele>912.6</ele>
        <time>2021-09-01T10:35:20Z</time>
      </trkpt>
      <trkpt lat="44.10358" lon="5.70349">
        <ele>933.2</ele>
        <time>2021-09-01T10:39:30Z</time>
      </trkpt>
      <trkpt lat="44.10366" lon="5.70344">
        <ele>932.2</ele>
        <time>2021-09-01T10:39:33Z</time>
      </trkpt>
      <trkpt lat="44.10371" lon="5.70341">
        <ele>931.8</ele>
        <time>2021-09-01T10:39:34Z</time>
      </trkpt>
      <trkpt lat="44.10376" lon="5.7034">
        <ele>931.4</ele>
        <time>2021-09-01T10:39:35Z</time>
      </trkpt>
      <trkpt lat="44.10387" lon="5.70342">
        <ele>930.8</ele>
        <time>2021-09-01T10:39:37Z</time>
      </trkpt>
      <trkpt lat="44.10395" lon="5.70347">
        <ele>930.4</ele>
        <time>2021-09-01T10:39:39Z</time>
      </trkpt>
      <trkpt lat="44.10406" lon="5.70349">
        <ele>930</ele>
        <time>2021-09-01T10:39:42Z</time>
      </trkpt>
      <trkpt lat="44.10424" lon="5.70339">
        <ele>929.4</ele>
        <time>2021-09-01T10:39:47Z</time>
      </trkpt>
      <trkpt lat="44.10431" lon="5.70324">
        <ele>929.4</ele>
        <time>2021-09-01T10:39:51Z</time>
      </trkpt>
      <trkpt lat="44.1044" lon="5.70301">
        <ele>929.8</ele>
        <time>2021-09-01T10:39:57Z</time>
      </trkpt>
      <trkpt lat="44.10451" lon="5.70282">
        <ele>930.4</ele>
        <time>2021-09-01T10:40:03Z</time>
      </trkpt>
      <trkpt lat="44.10467" lon="5.7026">
        <ele>931.2</ele>
        <time>2021-09-01T10:40:10Z</time>
      </trkpt>
      <trkpt lat="44.10484" lon="5.70239">
        <ele>932.4</ele>
        <time>2021-09-01T10:40:17Z</time>
      </trkpt>
      <trkpt lat="44.10499" lon="5.70215">
        <ele>933.8</ele>
        <time>2021-09-01T10:40:24Z</time>
      </trkpt>
      <trkpt lat="44.10509" lon="5.70198">
        <ele>935</ele>
        <time>2021-09-01T10:40:29Z</time>
      </trkpt>
      <trkpt lat="44.10521" lon="5.70185">
        <ele>936.2</ele>
        <time>2021-09-01T10:40:34Z</time>
      </trkpt>
      <trkpt lat="44.10535" lon="5.70185">
        <ele>937.6</ele>
        <time>2021-09-01T10:40:39Z</time>
      </trkpt>
      <trkpt lat="44.10538" lon="5.70185">
        <ele>938.2</ele>
        <time>2021-09-01T10:40:42Z</time>
      </trkpt>
      <trkpt lat="44.10539" lon="5.70184">
        <ele>939.2</ele>
        <time>2021-09-01T10:40:47Z</time>
      </trkpt>
      <trkpt lat="44.10542" lon="5.7018">
        <ele>939.8</ele>
        <time>2021-09-01T10:40:49Z</time>
      </trkpt>
      <trkpt lat="44.10556" lon="5.70165">
        <ele>940.8</ele>
        <time>2021-09-01T10:40:54Z</time>
      </trkpt>
      <trkpt lat="44.1058" lon="5.70134">
        <ele>941.8</ele>
        <time>2021-09-01T10:41:00Z</time>
      </trkpt>
      <trkpt lat="44.106" lon="5.701">
        <ele>942.6</ele>
        <time>2021-09-01T10:41:05Z</time>
      </trkpt>
      <trkpt lat="44.10624" lon="5.70051">
        <ele>942.8</ele>
        <time>2021-09-01T10:41:11Z</time>
      </trkpt>
      <trkpt lat="44.10635" lon="5.70044">
        <ele>942.8</ele>
        <time>2021-09-01T10:41:13Z</time>
      </trkpt>
      <trkpt lat="44.10641" lon="5.70042">
        <ele>942.8</ele>
        <time>2021-09-01T10:41:14Z</time>
      </trkpt>
      <trkpt lat="44.10649" lon="5.70039">
        <ele>942.8</ele>
        <time>2021-09-01T10:41:15Z</time>
      </trkpt>
      <trkpt lat="44.10671" lon="5.70026">
        <ele>942.6</ele>
        <time>2021-09-01T10:41:18Z</time>
      </trkpt>
      <trkpt lat="44.10697" lon="5.70012">
        <ele>942.6</ele>
        <time>2021-09-01T10:41:22Z</time>
      </trkpt>
      <trkpt lat="44.107" lon="5.70009">
        <ele>942.6</ele>
        <time>2021-09-01T10:41:23Z</time>
      </trkpt>
      <trkpt lat="44.10702" lon="5.70003">
        <ele>942.6</ele>
        <time>2021-09-01T10:41:25Z</time>
      </trkpt>
      <trkpt lat="44.10701" lon="5.69986">
        <ele>941.8</ele>
        <time>2021-09-01T10:41:29Z</time>
      </trkpt>
      <trkpt lat="44.10703" lon="5.69977">
        <ele>942</ele>
        <time>2021-09-01T10:41:31Z</time>
      </trkpt>
      <trkpt lat="44.10707" lon="5.69969">
        <ele>941.8</ele>
        <time>2021-09-01T10:41:33Z</time>
      </trkpt>
      <trkpt lat="44.1072" lon="5.69959">
        <ele>941.8</ele>
        <time>2021-09-01T10:41:37Z</time>
      </trkpt>
      <trkpt lat="44.10746" lon="5.69946">
        <ele>941.8</ele>
        <time>2021-09-01T10:41:45Z</time>
      </trkpt>
      <trkpt lat="44.10773" lon="5.69938">
        <ele>942</ele>
        <time>2021-09-01T10:41:53Z</time>
      </trkpt>
      <trkpt lat="44.10795" lon="5.69933">
        <ele>942.4</ele>
        <time>2021-09-01T10:41:59Z</time>
      </trkpt>
      <trkpt lat="44.10818" lon="5.69932">
        <ele>942.8</ele>
        <time>2021-09-01T10:42:05Z</time>
      </trkpt>
      <trkpt lat="44.1084" lon="5.69929">
        <ele>943.2</ele>
        <time>2021-09-01T10:42:11Z</time>
      </trkpt>
      <trkpt lat="44.10866" lon="5.69927">
        <ele>943.8</ele>
        <time>2021-09-01T10:42:18Z</time>
      </trkpt>
      <trkpt lat="44.10887" lon="5.69931">
        <ele>944.6</ele>
        <time>2021-09-01T10:42:24Z</time>
      </trkpt>
      <trkpt lat="44.10907" lon="5.69937">
        <ele>945.4</ele>
        <time>2021-09-01T10:42:30Z</time>
      </trkpt>
      <trkpt lat="44.1093" lon="5.69949">
        <ele>946.4</ele>
        <time>2021-09-01T10:42:37Z</time>
      </trkpt>
      <trkpt lat="44.10959" lon="5.69952">
        <ele>947.4</ele>
        <time>2021-09-01T10:42:45Z</time>
      </trkpt>
      <trkpt lat="44.10979" lon="5.6995">
        <ele>948</ele>
        <time>2021-09-01T10:42:51Z</time>
      </trkpt>
      <trkpt lat="44.10996" lon="5.69945">
        <ele>948.8</ele>
        <time>2021-09-01T10:42:56Z</time>
      </trkpt>
      <trkpt lat="44.11017" lon="5.69949">
        <ele>949.6</ele>
        <time>2021-09-01T10:43:02Z</time>
      </trkpt>
      <trkpt lat="44.11037" lon="5.69955">
        <ele>950.6</ele>
        <time>2021-09-01T10:43:08Z</time>
      </trkpt>
      <trkpt lat="44.11063" lon="5.69958">
        <ele>951.8</ele>
        <time>2021-09-01T10:43:15Z</time>
      </trkpt>
      <trkpt lat="44.11085" lon="5.69958">
        <ele>952.4</ele>
        <time>2021-09-01T10:43:21Z</time>
      </trkpt>
      <trkpt lat="44.11107" lon="5.69959">
        <ele>953.6</ele>
        <time>2021-09-01T10:43:27Z</time>
      </trkpt>
      <trkpt lat="44.11132" lon="5.69964">
        <ele>954.6</ele>
        <time>2021-09-01T10:43:34Z</time>
      </trkpt>
      <trkpt lat="44.11158" lon="5.69973">
        <ele>956</ele>
        <time>2021-09-01T10:43:41Z</time>
      </trkpt>
      <trkpt lat="44.11171" lon="5.69981">
        <ele>956.8</ele>
        <time>2021-09-01T10:43:45Z</time>
      </trkpt>
      <trkpt lat="44.11192" lon="5.6999">
        <ele>958</ele>
        <time>2021-09-01T10:43:51Z</time>
      </trkpt>
      <trkpt lat="44.11216" lon="5.69993">
        <ele>959.4</ele>
        <time>2021-09-01T10:43:58Z</time>
      </trkpt>
      <trkpt lat="44.11235" lon="5.69992">
        <ele>960.6</ele>
        <time>2021-09-01T10:44:03Z</time>
      </trkpt>
      <trkpt lat="44.11263" lon="5.7">
        <ele>962.4</ele>
        <time>2021-09-01T10:44:11Z</time>
      </trkpt>
      <trkpt lat="44.11288" lon="5.70003">
        <ele>964</ele>
        <time>2021-09-01T10:44:18Z</time>
      </trkpt>
      <trkpt lat="44.1131" lon="5.70004">
        <ele>965.6</ele>
        <time>2021-09-01T10:44:24Z</time>
      </trkpt>
      <trkpt lat="44.11336" lon="5.70001">
        <ele>967.2</ele>
        <time>2021-09-01T10:44:31Z</time>
      </trkpt>
      <trkpt lat="44.11354" lon="5.70002">
        <ele>968.2</ele>
        <time>2021-09-01T10:44:36Z</time>
      </trkpt>
      <trkpt lat="44.11372" lon="5.7001">
        <ele>969.4</ele>
        <time>2021-09-01T10:44:41Z</time>
      </trkpt>
      <trkpt lat="44.1139" lon="5.70013">
        <ele>970.4</ele>
        <time>2021-09-01T10:44:46Z</time>
      </trkpt>
      <trkpt lat="44.11416" lon="5.70015">
        <ele>972</ele>
        <time>2021-09-01T10:44:53Z</time>
      </trkpt>
      <trkpt lat="44.11427" lon="5.70015">
        <ele>972.6</ele>
        <time>2021-09-01T10:44:56Z</time>
      </trkpt>
      <trkpt lat="44.11435" lon="5.70015">
        <ele>973</ele>
        <time>2021-09-01T10:44:58Z</time>
      </trkpt>
      <trkpt lat="44.11459" lon="5.70021">
        <ele>974.6</ele>
        <time>2021-09-01T10:45:05Z</time>
      </trkpt>
      <trkpt lat="44.11481" lon="5.70023">
        <ele>976.2</ele>
        <time>2021-09-01T10:45:11Z</time>
      </trkpt>
      <trkpt lat="44.11506" lon="5.70025">
        <ele>977.8</ele>
        <time>2021-09-01T10:45:18Z</time>
      </trkpt>
      <trkpt lat="44.11519" lon="5.70027">
        <ele>978.8</ele>
        <time>2021-09-01T10:45:22Z</time>
      </trkpt>
      <trkpt lat="44.11544" lon="5.70029">
        <ele>980.2</ele>
        <time>2021-09-01T10:45:29Z</time>
      </trkpt>
      <trkpt lat="44.11568" lon="5.70038">
        <ele>981.8</ele>
        <time>2021-09-01T10:45:36Z</time>
      </trkpt>
      <trkpt lat="44.11593" lon="5.70056">
        <ele>983.8</ele>
        <time>2021-09-01T10:45:44Z</time>
      </trkpt>
      <trkpt lat="44.11617" lon="5.70073">
        <ele>985.4</ele>
        <time>2021-09-01T10:45:51Z</time>
      </trkpt>
      <trkpt lat="44.11627" lon="5.70093">
        <ele>986.8</ele>
        <time>2021-09-01T10:45:56Z</time>
      </trkpt>
      <trkpt lat="44.1164" lon="5.70111">
        <ele>988.2</ele>
        <time>2021-09-01T10:46:01Z</time>
      </trkpt>
      <trkpt lat="44.11652" lon="5.70135">
        <ele>990</ele>
        <time>2021-09-01T10:46:07Z</time>
      </trkpt>
      <trkpt lat="44.11655" lon="5.70155">
        <ele>991</ele>
        <time>2021-09-01T10:46:11Z</time>
      </trkpt>
      <trkpt lat="44.11661" lon="5.70184">
        <ele>992.8</ele>
        <time>2021-09-01T10:46:17Z</time>
      </trkpt>
      <trkpt lat="44.1167" lon="5.70203">
        <ele>994</ele>
        <time>2021-09-01T10:46:22Z</time>
      </trkpt>
      <trkpt lat="44.11685" lon="5.70225">
        <ele>995.8</ele>
        <time>2021-09-01T10:46:28Z</time>
      </trkpt>
      <trkpt lat="44.11698" lon="5.70242">
        <ele>997</ele>
        <time>2021-09-01T10:46:33Z</time>
      </trkpt>
      <trkpt lat="44.11726" lon="5.7026">
        <ele>999</ele>
        <time>2021-09-01T10:46:41Z</time>
      </trkpt>
      <trkpt lat="44.11734" lon="5.70262">
        <ele>999.6</ele>
        <time>2021-09-01T10:46:43Z</time>
      </trkpt>
      <trkpt lat="44.11746" lon="5.70265">
        <ele>1000.4</ele>
        <time>2021-09-01T10:46:46Z</time>
      </trkpt>
      <trkpt lat="44.1175" lon="5.70266">
        <ele>1000.6</ele>
        <time>2021-09-01T10:46:47Z</time>
      </trkpt>
      <trkpt lat="44.11765" lon="5.70269">
        <ele>1001.4</ele>
        <time>2021-09-01T10:46:51Z</time>
      </trkpt>
      <trkpt lat="44.11769" lon="5.70269">
        <ele>1001.6</ele>
        <time>2021-09-01T10:46:52Z</time>
      </trkpt>
      <trkpt lat="44.11784" lon="5.7027">
        <ele>1002.4</ele>
        <time>2021-09-01T10:46:56Z</time>
      </trkpt>
      <trkpt lat="44.11802" lon="5.7028">
        <ele>1003.6</ele>
        <time>2021-09-01T10:47:01Z</time>
      </trkpt>
      <trkpt lat="44.11823" lon="5.70293">
        <ele>1004.8</ele>
        <time>2021-09-01T10:47:07Z</time>
      </trkpt>
      <trkpt lat="44.11846" lon="5.70294">
        <ele>1006.2</ele>
        <time>2021-09-01T10:47:13Z</time>
      </trkpt>
      <trkpt lat="44.11868" lon="5.70291">
        <ele>1007.4</ele>
        <time>2021-09-01T10:47:19Z</time>
      </trkpt>
      <trkpt lat="44.11894" lon="5.7028">
        <ele>1008.6</ele>
        <time>2021-09-01T10:47:26Z</time>
      </trkpt>
      <trkpt lat="44.11912" lon="5.70273">
        <ele>1009.6</ele>
        <time>2021-09-01T10:47:31Z</time>
      </trkpt>
      <trkpt lat="44.11939" lon="5.70266">
        <ele>1011.2</ele>
        <time>2021-09-01T10:47:38Z</time>
      </trkpt>
      <trkpt lat="44.11953" lon="5.70266">
        <ele>1012.6</ele>
        <time>2021-09-01T10:47:42Z</time>
      </trkpt>
      <trkpt lat="44.11959" lon="5.70265">
        <ele>1013.4</ele>
        <time>2021-09-01T10:47:44Z</time>
      </trkpt>
      <trkpt lat="44.1198" lon="5.70255">
        <ele>1016</ele>
        <time>2021-09-01T10:47:50Z</time>
      </trkpt>
      <trkpt lat="44.11996" lon="5.70256">
        <ele>1017.8</ele>
        <time>2021-09-01T10:47:55Z</time>
      </trkpt>
      <trkpt lat="44.12001" lon="5.70259">
        <ele>1019</ele>
        <time>2021-09-01T10:47:59Z</time>
      </trkpt>
      <trkpt lat="44.12001" lon="5.70259">
        <ele>1022.2</ele>
        <time>2021-09-01T10:48:11Z</time>
      </trkpt>
      <trkpt lat="44.12001" lon="5.70259">
        <ele>1026.2</ele>
        <time>2021-09-01T10:48:28Z</time>
      </trkpt>
      <trkpt lat="44.12003" lon="5.7026">
        <ele>1028</ele>
        <time>2021-09-01T10:48:36Z</time>
      </trkpt>
      <trkpt lat="44.12004" lon="5.70261">
        <ele>1028.2</ele>
        <time>2021-09-01T10:48:37Z</time>
      </trkpt>
      <trkpt lat="44.12009" lon="5.70273">
        <ele>1029.2</ele>
        <time>2021-09-01T10:48:41Z</time>
      </trkpt>
      <trkpt lat="44.12017" lon="5.7027">
        <ele>1030</ele>
        <time>2021-09-01T10:48:44Z</time>
      </trkpt>
      <trkpt lat="44.12038" lon="5.70263">
        <ele>1031.4</ele>
        <time>2021-09-01T10:48:50Z</time>
      </trkpt>
      <trkpt lat="44.12051" lon="5.70263">
        <ele>1032.6</ele>
        <time>2021-09-01T10:48:54Z</time>
      </trkpt>
      <trkpt lat="44.12072" lon="5.70269">
        <ele>1034.4</ele>
        <time>2021-09-01T10:49:00Z</time>
      </trkpt>
      <trkpt lat="44.12086" lon="5.70277">
        <ele>1035.8</ele>
        <time>2021-09-01T10:49:05Z</time>
      </trkpt>
      <trkpt lat="44.12101" lon="5.70287">
        <ele>1037.6</ele>
        <time>2021-09-01T10:49:10Z</time>
      </trkpt>
      <trkpt lat="44.1212" lon="5.70298">
        <ele>1039.8</ele>
        <time>2021-09-01T10:49:16Z</time>
      </trkpt>
      <trkpt lat="44.12133" lon="5.70303">
        <ele>1041.6</ele>
        <time>2021-09-01T10:49:21Z</time>
      </trkpt>
      <trkpt lat="44.12146" lon="5.70307">
        <ele>1043.2</ele>
        <time>2021-09-01T10:49:26Z</time>
      </trkpt>
      <trkpt lat="44.12159" lon="5.70307">
        <ele>1045</ele>
        <time>2021-09-01T10:49:31Z</time>
      </trkpt>
      <trkpt lat="44.12165" lon="5.70307">
        <ele>1045.8</ele>
        <time>2021-09-01T10:49:33Z</time>
      </trkpt>
      <trkpt lat="44.12171" lon="5.70307">
        <ele>1046.4</ele>
        <time>2021-09-01T10:49:35Z</time>
      </trkpt>
      <trkpt lat="44.12188" lon="5.70305">
        <ele>1048</ele>
        <time>2021-09-01T10:49:40Z</time>
      </trkpt>
      <trkpt lat="44.12205" lon="5.70306">
        <ele>1049.6</ele>
        <time>2021-09-01T10:49:45Z</time>
      </trkpt>
      <trkpt lat="44.1222" lon="5.70313">
        <ele>1051.4</ele>
        <time>2021-09-01T10:49:50Z</time>
      </trkpt>
      <trkpt lat="44.12229" lon="5.70316">
        <ele>1052.4</ele>
        <time>2021-09-01T10:49:53Z</time>
      </trkpt>
      <trkpt lat="44.12232" lon="5.70317">
        <ele>1052.8</ele>
        <time>2021-09-01T10:49:54Z</time>
      </trkpt>
      <trkpt lat="44.12247" lon="5.70314">
        <ele>1054.4</ele>
        <time>2021-09-01T10:49:59Z</time>
      </trkpt>
      <trkpt lat="44.12257" lon="5.70307">
        <ele>1055.2</ele>
        <time>2021-09-01T10:50:02Z</time>
      </trkpt>
      <trkpt lat="44.12278" lon="5.70304">
        <ele>1057</ele>
        <time>2021-09-01T10:50:08Z</time>
      </trkpt>
      <trkpt lat="44.12299" lon="5.70308">
        <ele>1058.8</ele>
        <time>2021-09-01T10:50:14Z</time>
      </trkpt>
      <trkpt lat="44.12316" lon="5.70313">
        <ele>1060.4</ele>
        <time>2021-09-01T10:50:19Z</time>
      </trkpt>
      <trkpt lat="44.12323" lon="5.70314">
        <ele>1061</ele>
        <time>2021-09-01T10:50:21Z</time>
      </trkpt>
      <trkpt lat="44.1233" lon="5.70314">
        <ele>1061.6</ele>
        <time>2021-09-01T10:50:23Z</time>
      </trkpt>
      <trkpt lat="44.12345" lon="5.70313">
        <ele>1063.2</ele>
        <time>2021-09-01T10:50:28Z</time>
      </trkpt>
      <trkpt lat="44.12362" lon="5.70311">
        <ele>1065.6</ele>
        <time>2021-09-01T10:50:34Z</time>
      </trkpt>
      <trkpt lat="44.12373" lon="5.70318">
        <ele>1067</ele>
        <time>2021-09-01T10:50:38Z</time>
      </trkpt>
      <trkpt lat="44.12389" lon="5.70328">
        <ele>1068.6</ele>
        <time>2021-09-01T10:50:43Z</time>
      </trkpt>
      <trkpt lat="44.12401" lon="5.70329">
        <ele>1070</ele>
        <time>2021-09-01T10:50:47Z</time>
      </trkpt>
      <trkpt lat="44.12413" lon="5.7033">
        <ele>1071.6</ele>
        <time>2021-09-01T10:50:51Z</time>
      </trkpt>
      <trkpt lat="44.12431" lon="5.70337">
        <ele>1073.6</ele>
        <time>2021-09-01T10:50:57Z</time>
      </trkpt>
      <trkpt lat="44.12433" lon="5.70338">
        <ele>1074</ele>
        <time>2021-09-01T10:50:58Z</time>
      </trkpt>
      <trkpt lat="44.12437" lon="5.70342">
        <ele>1074.6</ele>
        <time>2021-09-01T10:51:00Z</time>
      </trkpt>
      <trkpt lat="44.1244" lon="5.70344">
        <ele>1075</ele>
        <time>2021-09-01T10:51:01Z</time>
      </trkpt>
      <trkpt lat="44.12453" lon="5.70349">
        <ele>1076.8</ele>
        <time>2021-09-01T10:51:06Z</time>
      </trkpt>
      <trkpt lat="44.12467" lon="5.70345">
        <ele>1078.6</ele>
        <time>2021-09-01T10:51:11Z</time>
      </trkpt>
      <trkpt lat="44.1248" lon="5.70344">
        <ele>1080.2</ele>
        <time>2021-09-01T10:51:16Z</time>
      </trkpt>
      <trkpt lat="44.12495" lon="5.70345">
        <ele>1081.6</ele>
        <time>2021-09-01T10:51:21Z</time>
      </trkpt>
      <trkpt lat="44.12509" lon="5.70342">
        <ele>1082.8</ele>
        <time>2021-09-01T10:51:26Z</time>
      </trkpt>
      <trkpt lat="44.12521" lon="5.70338">
        <ele>1084</ele>
        <time>2021-09-01T10:51:30Z</time>
      </trkpt>
      <trkpt lat="44.12545" lon="5.70332">
        <ele>1085.6</ele>
        <time>2021-09-01T10:51:38Z</time>
      </trkpt>
      <trkpt lat="44.1256" lon="5.7033">
        <ele>1086.6</ele>
        <time>2021-09-01T10:51:43Z</time>
      </trkpt>
      <trkpt lat="44.1257" lon="5.70329">
        <ele>1087.2</ele>
        <time>2021-09-01T10:51:48Z</time>
      </trkpt>
      <trkpt lat="44.12569" lon="5.70329">
        <ele>1088.6</ele>
        <time>2021-09-01T10:51:56Z</time>
      </trkpt>
      <trkpt lat="44.12571" lon="5.70329">
        <ele>1089.8</ele>
        <time>2021-09-01T10:52:05Z</time>
      </trkpt>
      <trkpt lat="44.12578" lon="5.70331">
        <ele>1090.2</ele>
        <time>2021-09-01T10:52:09Z</time>
      </trkpt>
      <trkpt lat="44.12594" lon="5.70329">
        <ele>1091.2</ele>
        <time>2021-09-01T10:52:15Z</time>
      </trkpt>
      <trkpt lat="44.12606" lon="5.7032">
        <ele>1093.4</ele>
        <time>2021-09-01T10:52:20Z</time>
      </trkpt>
      <trkpt lat="44.12623" lon="5.70325">
        <ele>1095.2</ele>
        <time>2021-09-01T10:52:26Z</time>
      </trkpt>
      <trkpt lat="44.12628" lon="5.70325">
        <ele>1095.8</ele>
        <time>2021-09-01T10:52:28Z</time>
      </trkpt>
      <trkpt lat="44.1263" lon="5.70325">
        <ele>1096</ele>
        <time>2021-09-01T10:52:29Z</time>
      </trkpt>
      <trkpt lat="44.12643" lon="5.70331">
        <ele>1097.8</ele>
        <time>2021-09-01T10:52:34Z</time>
      </trkpt>
      <trkpt lat="44.12656" lon="5.70336">
        <ele>1099.4</ele>
        <time>2021-09-01T10:52:39Z</time>
      </trkpt>
      <trkpt lat="44.12673" lon="5.70343">
        <ele>1101</ele>
        <time>2021-09-01T10:52:45Z</time>
      </trkpt>
      <trkpt lat="44.12685" lon="5.70346">
        <ele>1102.8</ele>
        <time>2021-09-01T10:52:50Z</time>
      </trkpt>
      <trkpt lat="44.12702" lon="5.70352">
        <ele>1104.6</ele>
        <time>2021-09-01T10:52:56Z</time>
      </trkpt>
      <trkpt lat="44.12715" lon="5.70352">
        <ele>1106.2</ele>
        <time>2021-09-01T10:53:01Z</time>
      </trkpt>
      <trkpt lat="44.12722" lon="5.70356">
        <ele>1107.6</ele>
        <time>2021-09-01T10:53:05Z</time>
      </trkpt>
      <trkpt lat="44.12729" lon="5.70362">
        <ele>1109</ele>
        <time>2021-09-01T10:53:08Z</time>
      </trkpt>
      <trkpt lat="44.12735" lon="5.70365">
        <ele>1110</ele>
        <time>2021-09-01T10:53:10Z</time>
      </trkpt>
      <trkpt lat="44.12748" lon="5.70377">
        <ele>1112.6</ele>
        <time>2021-09-01T10:53:16Z</time>
      </trkpt>
      <trkpt lat="44.12755" lon="5.70385">
        <ele>1113.6</ele>
        <time>2021-09-01T10:53:19Z</time>
      </trkpt>
      <trkpt lat="44.12758" lon="5.70386">
        <ele>1114</ele>
        <time>2021-09-01T10:53:20Z</time>
      </trkpt>
      <trkpt lat="44.12762" lon="5.70388">
        <ele>1114.6</ele>
        <time>2021-09-01T10:53:22Z</time>
      </trkpt>
      <trkpt lat="44.12764" lon="5.70388">
        <ele>1115</ele>
        <time>2021-09-01T10:53:23Z</time>
      </trkpt>
      <trkpt lat="44.12766" lon="5.70388">
        <ele>1115.4</ele>
        <time>2021-09-01T10:53:24Z</time>
      </trkpt>
      <trkpt lat="44.12777" lon="5.7039">
        <ele>1117</ele>
        <time>2021-09-01T10:53:28Z</time>
      </trkpt>
      <trkpt lat="44.12782" lon="5.70391">
        <ele>1117.8</ele>
        <time>2021-09-01T10:53:30Z</time>
      </trkpt>
      <trkpt lat="44.12787" lon="5.70394">
        <ele>1118.8</ele>
        <time>2021-09-01T10:53:32Z</time>
      </trkpt>
      <trkpt lat="44.12798" lon="5.704">
        <ele>1120.8</ele>
        <time>2021-09-01T10:53:37Z</time>
      </trkpt>
      <trkpt lat="44.12814" lon="5.70404">
        <ele>1123.8</ele>
        <time>2021-09-01T10:53:43Z</time>
      </trkpt>
      <trkpt lat="44.12831" lon="5.70407">
        <ele>1127.4</ele>
        <time>2021-09-01T10:53:50Z</time>
      </trkpt>
      <trkpt lat="44.12837" lon="5.70409">
        <ele>1128.2</ele>
        <time>2021-09-01T10:53:52Z</time>
      </trkpt>
      <trkpt lat="44.12839" lon="5.70409">
        <ele>1128.6</ele>
        <time>2021-09-01T10:53:53Z</time>
      </trkpt>
      <trkpt lat="44.12842" lon="5.70409">
        <ele>1129</ele>
        <time>2021-09-01T10:53:54Z</time>
      </trkpt>
      <trkpt lat="44.12846" lon="5.70409">
        <ele>1129.8</ele>
        <time>2021-09-01T10:53:56Z</time>
      </trkpt>
      <trkpt lat="44.12851" lon="5.70411">
        <ele>1130.8</ele>
        <time>2021-09-01T10:53:58Z</time>
      </trkpt>
      <trkpt lat="44.12856" lon="5.70414">
        <ele>1131.8</ele>
        <time>2021-09-01T10:54:00Z</time>
      </trkpt>
      <trkpt lat="44.12859" lon="5.70415">
        <ele>1132.2</ele>
        <time>2021-09-01T10:54:01Z</time>
      </trkpt>
      <trkpt lat="44.12864" lon="5.70415">
        <ele>1133</ele>
        <time>2021-09-01T10:54:03Z</time>
      </trkpt>
      <trkpt lat="44.12867" lon="5.70415">
        <ele>1133.4</ele>
        <time>2021-09-01T10:54:04Z</time>
      </trkpt>
      <trkpt lat="44.12878" lon="5.70419">
        <ele>1135</ele>
        <time>2021-09-01T10:54:08Z</time>
      </trkpt>
      <trkpt lat="44.1289" lon="5.70418">
        <ele>1136.8</ele>
        <time>2021-09-01T10:54:12Z</time>
      </trkpt>
      <trkpt lat="44.12902" lon="5.70425">
        <ele>1139.2</ele>
        <time>2021-09-01T10:54:17Z</time>
      </trkpt>
      <trkpt lat="44.12912" lon="5.70431">
        <ele>1140.8</ele>
        <time>2021-09-01T10:54:21Z</time>
      </trkpt>
      <trkpt lat="44.12915" lon="5.70433">
        <ele>1141.2</ele>
        <time>2021-09-01T10:54:22Z</time>
      </trkpt>
      <trkpt lat="44.12919" lon="5.70435">
        <ele>1142</ele>
        <time>2021-09-01T10:54:24Z</time>
      </trkpt>
      <trkpt lat="44.12924" lon="5.70436">
        <ele>1142.8</ele>
        <time>2021-09-01T10:54:26Z</time>
      </trkpt>
      <trkpt lat="44.1293" lon="5.70437">
        <ele>1144</ele>
        <time>2021-09-01T10:54:29Z</time>
      </trkpt>
      <trkpt lat="44.12934" lon="5.70439">
        <ele>1144.8</ele>
        <time>2021-09-01T10:54:31Z</time>
      </trkpt>
      <trkpt lat="44.1294" lon="5.70442">
        <ele>1146.2</ele>
        <time>2021-09-01T10:54:35Z</time>
      </trkpt>
      <trkpt lat="44.12949" lon="5.70445">
        <ele>1147.8</ele>
        <time>2021-09-01T10:54:39Z</time>
      </trkpt>
      <trkpt lat="44.12966" lon="5.70446">
        <ele>1150.2</ele>
        <time>2021-09-01T10:54:45Z</time>
      </trkpt>
      <trkpt lat="44.12978" lon="5.70445">
        <ele>1151.6</ele>
        <time>2021-09-01T10:54:49Z</time>
      </trkpt>
      <trkpt lat="44.12992" lon="5.70443">
        <ele>1153.2</ele>
        <time>2021-09-01T10:54:54Z</time>
      </trkpt>
      <trkpt lat="44.13003" lon="5.70443">
        <ele>1154.8</ele>
        <time>2021-09-01T10:54:58Z</time>
      </trkpt>
      <trkpt lat="44.13016" lon="5.70441">
        <ele>1157</ele>
        <time>2021-09-01T10:55:03Z</time>
      </trkpt>
      <trkpt lat="44.13029" lon="5.70438">
        <ele>1159.2</ele>
        <time>2021-09-01T10:55:08Z</time>
      </trkpt>
      <trkpt lat="44.13043" lon="5.70437">
        <ele>1161</ele>
        <time>2021-09-01T10:55:13Z</time>
      </trkpt>
      <trkpt lat="44.13045" lon="5.70437">
        <ele>1161.4</ele>
        <time>2021-09-01T10:55:14Z</time>
      </trkpt>
      <trkpt lat="44.13052" lon="5.70438">
        <ele>1162.4</ele>
        <time>2021-09-01T10:55:17Z</time>
      </trkpt>
      <trkpt lat="44.13063" lon="5.70442">
        <ele>1163.8</ele>
        <time>2021-09-01T10:55:21Z</time>
      </trkpt>
      <trkpt lat="44.13065" lon="5.70443">
        <ele>1164.2</ele>
        <time>2021-09-01T10:55:22Z</time>
      </trkpt>
      <trkpt lat="44.13072" lon="5.70445">
        <ele>1165.8</ele>
        <time>2021-09-01T10:55:26Z</time>
      </trkpt>
      <trkpt lat="44.1308" lon="5.70451">
        <ele>1167.4</ele>
        <time>2021-09-01T10:55:30Z</time>
      </trkpt>
      <trkpt lat="44.13093" lon="5.70458">
        <ele>1169.4</ele>
        <time>2021-09-01T10:55:35Z</time>
      </trkpt>
      <trkpt lat="44.13103" lon="5.70464">
        <ele>1171</ele>
        <time>2021-09-01T10:55:39Z</time>
      </trkpt>
      <trkpt lat="44.13111" lon="5.70467">
        <ele>1172.2</ele>
        <time>2021-09-01T10:55:42Z</time>
      </trkpt>
      <trkpt lat="44.13116" lon="5.70471">
        <ele>1172.8</ele>
        <time>2021-09-01T10:55:44Z</time>
      </trkpt>
      <trkpt lat="44.13119" lon="5.70473">
        <ele>1173.2</ele>
        <time>2021-09-01T10:55:45Z</time>
      </trkpt>
      <trkpt lat="44.13126" lon="5.70478">
        <ele>1174.2</ele>
        <time>2021-09-01T10:55:48Z</time>
      </trkpt>
      <trkpt lat="44.13138" lon="5.70481">
        <ele>1175.8</ele>
        <time>2021-09-01T10:55:53Z</time>
      </trkpt>
      <trkpt lat="44.13153" lon="5.70484">
        <ele>1177.6</ele>
        <time>2021-09-01T10:55:59Z</time>
      </trkpt>
      <trkpt lat="44.13163" lon="5.70486">
        <ele>1179</ele>
        <time>2021-09-01T10:56:03Z</time>
      </trkpt>
      <trkpt lat="44.13172" lon="5.70487">
        <ele>1180</ele>
        <time>2021-09-01T10:56:07Z</time>
      </trkpt>
      <trkpt lat="44.13187" lon="5.70489">
        <ele>1181.2</ele>
        <time>2021-09-01T10:56:12Z</time>
      </trkpt>
      <trkpt lat="44.13197" lon="5.70486">
        <ele>1182.2</ele>
        <time>2021-09-01T10:56:16Z</time>
      </trkpt>
      <trkpt lat="44.13207" lon="5.70486">
        <ele>1183</ele>
        <time>2021-09-01T10:56:20Z</time>
      </trkpt>
      <trkpt lat="44.13213" lon="5.70487">
        <ele>1183.6</ele>
        <time>2021-09-01T10:56:22Z</time>
      </trkpt>
      <trkpt lat="44.13221" lon="5.70487">
        <ele>1184.2</ele>
        <time>2021-09-01T10:56:25Z</time>
      </trkpt>
      <trkpt lat="44.13233" lon="5.70488">
        <ele>1185</ele>
        <time>2021-09-01T10:56:29Z</time>
      </trkpt>
      <trkpt lat="44.13235" lon="5.70489">
        <ele>1185.2</ele>
        <time>2021-09-01T10:56:30Z</time>
      </trkpt>
      <trkpt lat="44.1324" lon="5.70492">
        <ele>1185.8</ele>
        <time>2021-09-01T10:56:32Z</time>
      </trkpt>
      <trkpt lat="44.13255" lon="5.70496">
        <ele>1186.8</ele>
        <time>2021-09-01T10:56:37Z</time>
      </trkpt>
      <trkpt lat="44.13267" lon="5.70498">
        <ele>1187.6</ele>
        <time>2021-09-01T10:56:41Z</time>
      </trkpt>
      <trkpt lat="44.13269" lon="5.70498">
        <ele>1187.8</ele>
        <time>2021-09-01T10:56:42Z</time>
      </trkpt>
      <trkpt lat="44.13285" lon="5.70502">
        <ele>1189.2</ele>
        <time>2021-09-01T10:56:47Z</time>
      </trkpt>
      <trkpt lat="44.133" lon="5.70506">
        <ele>1190.4</ele>
        <time>2021-09-01T10:56:52Z</time>
      </trkpt>
      <trkpt lat="44.13313" lon="5.7051">
        <ele>1191.6</ele>
        <time>2021-09-01T10:56:57Z</time>
      </trkpt>
      <trkpt lat="44.13321" lon="5.70514">
        <ele>1192.4</ele>
        <time>2021-09-01T10:57:01Z</time>
      </trkpt>
      <trkpt lat="44.13323" lon="5.70514">
        <ele>1192.8</ele>
        <time>2021-09-01T10:57:02Z</time>
      </trkpt>
      <trkpt lat="44.13326" lon="5.70515">
        <ele>1193</ele>
        <time>2021-09-01T10:57:03Z</time>
      </trkpt>
      <trkpt lat="44.13333" lon="5.70516">
        <ele>1193.8</ele>
        <time>2021-09-01T10:57:06Z</time>
      </trkpt>
      <trkpt lat="44.13343" lon="5.70519">
        <ele>1195</ele>
        <time>2021-09-01T10:57:10Z</time>
      </trkpt>
      <trkpt lat="44.13359" lon="5.70521">
        <ele>1196.4</ele>
        <time>2021-09-01T10:57:16Z</time>
      </trkpt>
      <trkpt lat="44.13366" lon="5.70523">
        <ele>1197.2</ele>
        <time>2021-09-01T10:57:20Z</time>
      </trkpt>
      <trkpt lat="44.13374" lon="5.70524">
        <ele>1198.2</ele>
        <time>2021-09-01T10:57:24Z</time>
      </trkpt>
      <trkpt lat="44.13379" lon="5.70525">
        <ele>1198.8</ele>
        <time>2021-09-01T10:57:26Z</time>
      </trkpt>
      <trkpt lat="44.13383" lon="5.70527">
        <ele>1199.4</ele>
        <time>2021-09-01T10:57:28Z</time>
      </trkpt>
      <trkpt lat="44.13396" lon="5.70525">
        <ele>1200.8</ele>
        <time>2021-09-01T10:57:33Z</time>
      </trkpt>
      <trkpt lat="44.13409" lon="5.70525">
        <ele>1202</ele>
        <time>2021-09-01T10:57:37Z</time>
      </trkpt>
      <trkpt lat="44.13418" lon="5.70528">
        <ele>1203</ele>
        <time>2021-09-01T10:57:41Z</time>
      </trkpt>
      <trkpt lat="44.13421" lon="5.70528">
        <ele>1203.4</ele>
        <time>2021-09-01T10:57:42Z</time>
      </trkpt>
      <trkpt lat="44.13443" lon="5.7053">
        <ele>1205.2</ele>
        <time>2021-09-01T10:57:49Z</time>
      </trkpt>
      <trkpt lat="44.13453" lon="5.70533">
        <ele>1206.4</ele>
        <time>2021-09-01T10:57:52Z</time>
      </trkpt>
      <trkpt lat="44.13459" lon="5.70534">
        <ele>1207.2</ele>
        <time>2021-09-01T10:57:54Z</time>
      </trkpt>
      <trkpt lat="44.13465" lon="5.70535">
        <ele>1208.2</ele>
        <time>2021-09-01T10:57:56Z</time>
      </trkpt>
      <trkpt lat="44.1347" lon="5.70533">
        <ele>1209</ele>
        <time>2021-09-01T10:57:58Z</time>
      </trkpt>
      <trkpt lat="44.13474" lon="5.70533">
        <ele>1209.4</ele>
        <time>2021-09-01T10:57:59Z</time>
      </trkpt>
      <trkpt lat="44.13477" lon="5.70535">
        <ele>1210</ele>
        <time>2021-09-01T10:58:01Z</time>
      </trkpt>
      <trkpt lat="44.13485" lon="5.70537">
        <ele>1211.6</ele>
        <time>2021-09-01T10:58:05Z</time>
      </trkpt>
      <trkpt lat="44.13496" lon="5.70541">
        <ele>1213.6</ele>
        <time>2021-09-01T10:58:10Z</time>
      </trkpt>
      <trkpt lat="44.13507" lon="5.70543">
        <ele>1215.2</ele>
        <time>2021-09-01T10:58:14Z</time>
      </trkpt>
      <trkpt lat="44.13516" lon="5.70545">
        <ele>1217</ele>
        <time>2021-09-01T10:58:18Z</time>
      </trkpt>
      <trkpt lat="44.1352" lon="5.70546">
        <ele>1217.8</ele>
        <time>2021-09-01T10:58:20Z</time>
      </trkpt>
      <trkpt lat="44.13522" lon="5.70548">
        <ele>1218.8</ele>
        <time>2021-09-01T10:58:22Z</time>
      </trkpt>
      <trkpt lat="44.13527" lon="5.70555">
        <ele>1221.6</ele>
        <time>2021-09-01T10:58:27Z</time>
      </trkpt>
      <trkpt lat="44.13529" lon="5.70557">
        <ele>1222</ele>
        <time>2021-09-01T10:58:28Z</time>
      </trkpt>
      <trkpt lat="44.13535" lon="5.70558">
        <ele>1224.4</ele>
        <time>2021-09-01T10:58:32Z</time>
      </trkpt>
      <trkpt lat="44.13542" lon="5.70558">
        <ele>1228</ele>
        <time>2021-09-01T10:58:37Z</time>
      </trkpt>
      <trkpt lat="44.13547" lon="5.70558">
        <ele>1230</ele>
        <time>2021-09-01T10:58:40Z</time>
      </trkpt>
      <trkpt lat="44.13549" lon="5.70557">
        <ele>1230.8</ele>
        <time>2021-09-01T10:58:41Z</time>
      </trkpt>
      <trkpt lat="44.1356" lon="5.70552">
        <ele>1235.2</ele>
        <time>2021-09-01T10:58:47Z</time>
      </trkpt>
      <trkpt lat="44.13563" lon="5.7055">
        <ele>1236.6</ele>
        <time>2021-09-01T10:58:49Z</time>
      </trkpt>
      <trkpt lat="44.1357" lon="5.70548">
        <ele>1238.8</ele>
        <time>2021-09-01T10:58:52Z</time>
      </trkpt>
      <trkpt lat="44.13582" lon="5.70544">
        <ele>1242.8</ele>
        <time>2021-09-01T10:58:57Z</time>
      </trkpt>
      <trkpt lat="44.13595" lon="5.70544">
        <ele>1246.4</ele>
        <time>2021-09-01T10:59:02Z</time>
      </trkpt>
      <trkpt lat="44.13609" lon="5.70542">
        <ele>1250</ele>
        <time>2021-09-01T10:59:07Z</time>
      </trkpt>
      <trkpt lat="44.13623" lon="5.70543">
        <ele>1254.4</ele>
        <time>2021-09-01T10:59:13Z</time>
      </trkpt>
      <trkpt lat="44.13637" lon="5.70544">
        <ele>1257.8</ele>
        <time>2021-09-01T10:59:18Z</time>
      </trkpt>
      <trkpt lat="44.13646" lon="5.70545">
        <ele>1260.4</ele>
        <time>2021-09-01T10:59:22Z</time>
      </trkpt>
      <trkpt lat="44.13659" lon="5.7055">
        <ele>1263.6</ele>
        <time>2021-09-01T10:59:27Z</time>
      </trkpt>
      <trkpt lat="44.13663" lon="5.70552">
        <ele>1264</ele>
        <time>2021-09-01T10:59:28Z</time>
      </trkpt>
      <trkpt lat="44.13667" lon="5.70554">
        <ele>1265.2</ele>
        <time>2021-09-01T10:59:30Z</time>
      </trkpt>
      <trkpt lat="44.13678" lon="5.70556">
        <ele>1267.4</ele>
        <time>2021-09-01T10:59:34Z</time>
      </trkpt>
      <trkpt lat="44.13692" lon="5.70562">
        <ele>1269.8</ele>
        <time>2021-09-01T10:59:39Z</time>
      </trkpt>
      <trkpt lat="44.13702" lon="5.70564">
        <ele>1271.8</ele>
        <time>2021-09-01T10:59:44Z</time>
      </trkpt>
      <trkpt lat="44.13702" lon="5.70564">
        <ele>1276.2</ele>
        <time>2021-09-01T10:59:54Z</time>
      </trkpt>
      <trkpt lat="44.13702" lon="5.70564">
        <ele>1282</ele>
        <time>2021-09-01T11:00:10Z</time>
      </trkpt>
      <trkpt lat="44.13702" lon="5.70564">
        <ele>1288</ele>
        <time>2021-09-01T11:00:31Z</time>
      </trkpt>
      <trkpt lat="44.13702" lon="5.70564">
        <ele>1291.4</ele>
        <time>2021-09-01T11:00:45Z</time>
      </trkpt>
      <trkpt lat="44.13702" lon="5.70564">
        <ele>1296</ele>
        <time>2021-09-01T11:01:10Z</time>
      </trkpt>
      <trkpt lat="44.13702" lon="5.70564">
        <ele>1299</ele>
        <time>2021-09-01T11:01:32Z</time>
      </trkpt>
      <trkpt lat="44.13702" lon="5.70564">
        <ele>1301</ele>
        <time>2021-09-01T11:01:51Z</time>
      </trkpt>
      <trkpt lat="44.13702" lon="5.70564">
        <ele>1302.2</ele>
        <time>2021-09-01T11:02:05Z</time>
      </trkpt>
      <trkpt lat="44.13702" lon="5.70563">
        <ele>1303.6</ele>
        <time>2021-09-01T11:02:26Z</time>
      </trkpt>
      <trkpt lat="44.13702" lon="5.70563">
        <ele>1305</ele>
        <time>2021-09-01T11:02:52Z</time>
      </trkpt>
      <trkpt lat="44.13701" lon="5.70564">
        <ele>1305.8</ele>
        <time>2021-09-01T11:03:15Z</time>
      </trkpt>
      <trkpt lat="44.13701" lon="5.70564">
        <ele>1306.4</ele>
        <time>2021-09-01T11:03:40Z</time>
      </trkpt>
      <trkpt lat="44.13704" lon="5.7056">
        <ele>1306.2</ele>
        <time>2021-09-01T11:03:45Z</time>
      </trkpt>
      <trkpt lat="44.13706" lon="5.7056">
        <ele>1306.2</ele>
        <time>2021-09-01T11:03:46Z</time>
      </trkpt>
      <trkpt lat="44.13718" lon="5.70555">
        <ele>1306.2</ele>
        <time>2021-09-01T11:03:51Z</time>
      </trkpt>
      <trkpt lat="44.13723" lon="5.70553">
        <ele>1306</ele>
        <time>2021-09-01T11:03:53Z</time>
      </trkpt>
      <trkpt lat="44.13725" lon="5.7055">
        <ele>1305.8</ele>
        <time>2021-09-01T11:03:55Z</time>
      </trkpt>
      <trkpt lat="44.13725" lon="5.7055">
        <ele>1305.8</ele>
        <time>2021-09-01T11:04:05Z</time>
      </trkpt>
      <trkpt lat="44.13725" lon="5.7055">
        <ele>1305.6</ele>
        <time>2021-09-01T11:04:17Z</time>
      </trkpt>
      <trkpt lat="44.13731" lon="5.70544">
        <ele>1305.4</ele>
        <time>2021-09-01T11:04:20Z</time>
      </trkpt>
      <trkpt lat="44.13733" lon="5.70543">
        <ele>1305.4</ele>
        <time>2021-09-01T11:04:21Z</time>
      </trkpt>
      <trkpt lat="44.13747" lon="5.70538">
        <ele>1305</ele>
        <time>2021-09-01T11:04:25Z</time>
      </trkpt>
      <trkpt lat="44.13752" lon="5.70537">
        <ele>1304.8</ele>
        <time>2021-09-01T11:04:30Z</time>
      </trkpt>
      <trkpt lat="44.13758" lon="5.70536">
        <ele>1304.6</ele>
        <time>2021-09-01T11:04:33Z</time>
      </trkpt>
      <trkpt lat="44.13773" lon="5.7053">
        <ele>1304</ele>
        <time>2021-09-01T11:04:38Z</time>
      </trkpt>
      <trkpt lat="44.13789" lon="5.70527">
        <ele>1303.6</ele>
        <time>2021-09-01T11:04:43Z</time>
      </trkpt>
      <trkpt lat="44.13802" lon="5.70522">
        <ele>1303.4</ele>
        <time>2021-09-01T11:04:47Z</time>
      </trkpt>
      <trkpt lat="44.13807" lon="5.70517">
        <ele>1303.6</ele>
        <time>2021-09-01T11:04:50Z</time>
      </trkpt>
      <trkpt lat="44.13816" lon="5.70513">
        <ele>1303.4</ele>
        <time>2021-09-01T11:04:53Z</time>
      </trkpt>
      <trkpt lat="44.13819" lon="5.70513">
        <ele>1303.4</ele>
        <time>2021-09-01T11:04:54Z</time>
      </trkpt>
      <trkpt lat="44.13825" lon="5.70509">
        <ele>1303.4</ele>
        <time>2021-09-01T11:04:56Z</time>
      </trkpt>
      <trkpt lat="44.1383" lon="5.70504">
        <ele>1303.4</ele>
        <time>2021-09-01T11:04:58Z</time>
      </trkpt>
      <trkpt lat="44.13852" lon="5.70492">
        <ele>1303.2</ele>
        <time>2021-09-01T11:05:05Z</time>
      </trkpt>
      <trkpt lat="44.13865" lon="5.70486">
        <ele>1303.8</ele>
        <time>2021-09-01T11:05:10Z</time>
      </trkpt>
      <trkpt lat="44.13875" lon="5.70479">
        <ele>1303.8</ele>
        <time>2021-09-01T11:05:14Z</time>
      </trkpt>
      <trkpt lat="44.13879" lon="5.70475">
        <ele>1303.8</ele>
        <time>2021-09-01T11:05:16Z</time>
      </trkpt>
      <trkpt lat="44.13883" lon="5.70472">
        <ele>1304</ele>
        <time>2021-09-01T11:05:18Z</time>
      </trkpt>
      <trkpt lat="44.13892" lon="5.70466">
        <ele>1304</ele>
        <time>2021-09-01T11:05:21Z</time>
      </trkpt>
      <trkpt lat="44.13895" lon="5.70465">
        <ele>1304</ele>
        <time>2021-09-01T11:05:22Z</time>
      </trkpt>
      <trkpt lat="44.13898" lon="5.70464">
        <ele>1304</ele>
        <time>2021-09-01T11:05:23Z</time>
      </trkpt>
      <trkpt lat="44.13902" lon="5.7046">
        <ele>1304.2</ele>
        <time>2021-09-01T11:05:25Z</time>
      </trkpt>
      <trkpt lat="44.13904" lon="5.70458">
        <ele>1304.4</ele>
        <time>2021-09-01T11:05:27Z</time>
      </trkpt>
      <trkpt lat="44.13906" lon="5.70456">
        <ele>1304.4</ele>
        <time>2021-09-01T11:05:28Z</time>
      </trkpt>
      <trkpt lat="44.13912" lon="5.70452">
        <ele>1304.6</ele>
        <time>2021-09-01T11:05:32Z</time>
      </trkpt>
      <trkpt lat="44.13924" lon="5.70443">
        <ele>1305.2</ele>
        <time>2021-09-01T11:05:36Z</time>
      </trkpt>
      <trkpt lat="44.13935" lon="5.70436">
        <ele>1305.8</ele>
        <time>2021-09-01T11:05:40Z</time>
      </trkpt>
      <trkpt lat="44.13937" lon="5.70434">
        <ele>1306</ele>
        <time>2021-09-01T11:05:41Z</time>
      </trkpt>
      <trkpt lat="44.13939" lon="5.70431">
        <ele>1306.2</ele>
        <time>2021-09-01T11:05:42Z</time>
      </trkpt>
      <trkpt lat="44.13947" lon="5.70423">
        <ele>1306.8</ele>
        <time>2021-09-01T11:05:45Z</time>
      </trkpt>
      <trkpt lat="44.13959" lon="5.7041">
        <ele>1307.6</ele>
        <time>2021-09-01T11:05:50Z</time>
      </trkpt>
      <trkpt lat="44.13967" lon="5.70401">
        <ele>1308</ele>
        <time>2021-09-01T11:05:53Z</time>
      </trkpt>
      <trkpt lat="44.13971" lon="5.70398">
        <ele>1308.2</ele>
        <time>2021-09-01T11:05:54Z</time>
      </trkpt>
      <trkpt lat="44.13987" lon="5.70383">
        <ele>1308.8</ele>
        <time>2021-09-01T11:05:59Z</time>
      </trkpt>
      <trkpt lat="44.13993" lon="5.70377">
        <ele>1309</ele>
        <time>2021-09-01T11:06:01Z</time>
      </trkpt>
      <trkpt lat="44.13995" lon="5.70371">
        <ele>1309.4</ele>
        <time>2021-09-01T11:06:03Z</time>
      </trkpt>
      <trkpt lat="44.14003" lon="5.70359">
        <ele>1310</ele>
        <time>2021-09-01T11:06:07Z</time>
      </trkpt>
      <trkpt lat="44.14017" lon="5.70344">
        <ele>1311</ele>
        <time>2021-09-01T11:06:12Z</time>
      </trkpt>
      <trkpt lat="44.14025" lon="5.70333">
        <ele>1311.8</ele>
        <time>2021-09-01T11:06:16Z</time>
      </trkpt>
      <trkpt lat="44.14031" lon="5.70328">
        <ele>1312.4</ele>
        <time>2021-09-01T11:06:18Z</time>
      </trkpt>
      <trkpt lat="44.14034" lon="5.70325">
        <ele>1312.6</ele>
        <time>2021-09-01T11:06:19Z</time>
      </trkpt>
      <trkpt lat="44.14039" lon="5.70316">
        <ele>1313.2</ele>
        <time>2021-09-01T11:06:23Z</time>
      </trkpt>
      <trkpt lat="44.14048" lon="5.70307">
        <ele>1314.4</ele>
        <time>2021-09-01T11:06:27Z</time>
      </trkpt>
      <trkpt lat="44.1406" lon="5.70301">
        <ele>1315.6</ele>
        <time>2021-09-01T11:06:31Z</time>
      </trkpt>
      <trkpt lat="44.14069" lon="5.70296">
        <ele>1316.2</ele>
        <time>2021-09-01T11:06:34Z</time>
      </trkpt>
      <trkpt lat="44.14076" lon="5.7029">
        <ele>1316.8</ele>
        <time>2021-09-01T11:06:36Z</time>
      </trkpt>
      <trkpt lat="44.14084" lon="5.70284">
        <ele>1317.2</ele>
        <time>2021-09-01T11:06:38Z</time>
      </trkpt>
      <trkpt lat="44.14097" lon="5.70269">
        <ele>1318</ele>
        <time>2021-09-01T11:06:42Z</time>
      </trkpt>
      <trkpt lat="44.141" lon="5.7026">
        <ele>1318.6</ele>
        <time>2021-09-01T11:06:45Z</time>
      </trkpt>
      <trkpt lat="44.14101" lon="5.70256">
        <ele>1319.2</ele>
        <time>2021-09-01T11:06:47Z</time>
      </trkpt>
      <trkpt lat="44.14106" lon="5.70242">
        <ele>1320.8</ele>
        <time>2021-09-01T11:06:52Z</time>
      </trkpt>
      <trkpt lat="44.14112" lon="5.70226">
        <ele>1322.2</ele>
        <time>2021-09-01T11:06:56Z</time>
      </trkpt>
      <trkpt lat="44.14117" lon="5.70215">
        <ele>1323.4</ele>
        <time>2021-09-01T11:06:59Z</time>
      </trkpt>
      <trkpt lat="44.14125" lon="5.70198">
        <ele>1325.2</ele>
        <time>2021-09-01T11:07:03Z</time>
      </trkpt>
      <trkpt lat="44.14135" lon="5.70181">
        <ele>1327.4</ele>
        <time>2021-09-01T11:07:08Z</time>
      </trkpt>
      <trkpt lat="44.14142" lon="5.70169">
        <ele>1328.6</ele>
        <time>2021-09-01T11:07:12Z</time>
      </trkpt>
      <trkpt lat="44.14144" lon="5.70166">
        <ele>1328.8</ele>
        <time>2021-09-01T11:07:13Z</time>
      </trkpt>
      <trkpt lat="44.1415" lon="5.70158">
        <ele>1329.6</ele>
        <time>2021-09-01T11:07:16Z</time>
      </trkpt>
      <trkpt lat="44.14161" lon="5.70149">
        <ele>1330.4</ele>
        <time>2021-09-01T11:07:20Z</time>
      </trkpt>
      <trkpt lat="44.1417" lon="5.70137">
        <ele>1331.8</ele>
        <time>2021-09-01T11:07:25Z</time>
      </trkpt>
      <trkpt lat="44.14182" lon="5.70127">
        <ele>1333</ele>
        <time>2021-09-01T11:07:30Z</time>
      </trkpt>
      <trkpt lat="44.14196" lon="5.70118">
        <ele>1333.8</ele>
        <time>2021-09-01T11:07:35Z</time>
      </trkpt>
      <trkpt lat="44.14198" lon="5.70116">
        <ele>1333.8</ele>
        <time>2021-09-01T11:07:36Z</time>
      </trkpt>
      <trkpt lat="44.14206" lon="5.70109">
        <ele>1334.2</ele>
        <time>2021-09-01T11:07:38Z</time>
      </trkpt>
      <trkpt lat="44.14218" lon="5.70094">
        <ele>1334.6</ele>
        <time>2021-09-01T11:07:43Z</time>
      </trkpt>
      <trkpt lat="44.14229" lon="5.70075">
        <ele>1335.4</ele>
        <time>2021-09-01T11:07:48Z</time>
      </trkpt>
      <trkpt lat="44.14237" lon="5.70064">
        <ele>1335.8</ele>
        <time>2021-09-01T11:07:54Z</time>
      </trkpt>
      <trkpt lat="44.14237" lon="5.70065">
        <ele>1336.4</ele>
        <time>2021-09-01T11:08:00Z</time>
      </trkpt>
      <trkpt lat="44.14238" lon="5.70062">
        <ele>1336.8</ele>
        <time>2021-09-01T11:08:04Z</time>
      </trkpt>
      <trkpt lat="44.14242" lon="5.70056">
        <ele>1337</ele>
        <time>2021-09-01T11:08:07Z</time>
      </trkpt>
      <trkpt lat="44.14245" lon="5.7005">
        <ele>1337</ele>
        <time>2021-09-01T11:08:09Z</time>
      </trkpt>
      <trkpt lat="44.1425" lon="5.70048">
        <ele>1337.2</ele>
        <time>2021-09-01T11:08:11Z</time>
      </trkpt>
      <trkpt lat="44.14257" lon="5.70046">
        <ele>1337.4</ele>
        <time>2021-09-01T11:08:14Z</time>
      </trkpt>
      <trkpt lat="44.1426" lon="5.70045">
        <ele>1337.4</ele>
        <time>2021-09-01T11:08:15Z</time>
      </trkpt>
      <trkpt lat="44.14262" lon="5.70043">
        <ele>1337.6</ele>
        <time>2021-09-01T11:08:16Z</time>
      </trkpt>
      <trkpt lat="44.14266" lon="5.70039">
        <ele>1337.8</ele>
        <time>2021-09-01T11:08:18Z</time>
      </trkpt>
      <trkpt lat="44.14277" lon="5.70032">
        <ele>1338.6</ele>
        <time>2021-09-01T11:08:23Z</time>
      </trkpt>
      <trkpt lat="44.14288" lon="5.70028">
        <ele>1339.4</ele>
        <time>2021-09-01T11:08:27Z</time>
      </trkpt>
      <trkpt lat="44.14299" lon="5.70024">
        <ele>1340</ele>
        <time>2021-09-01T11:08:31Z</time>
      </trkpt>
      <trkpt lat="44.14303" lon="5.70027">
        <ele>1340.6</ele>
        <time>2021-09-01T11:08:33Z</time>
      </trkpt>
      <trkpt lat="44.14305" lon="5.7003">
        <ele>1340.8</ele>
        <time>2021-09-01T11:08:35Z</time>
      </trkpt>
      <trkpt lat="44.14314" lon="5.70029">
        <ele>1341.8</ele>
        <time>2021-09-01T11:08:39Z</time>
      </trkpt>
      <trkpt lat="44.14323" lon="5.70024">
        <ele>1342.6</ele>
        <time>2021-09-01T11:08:43Z</time>
      </trkpt>
      <trkpt lat="44.14325" lon="5.70024">
        <ele>1342.8</ele>
        <time>2021-09-01T11:08:44Z</time>
      </trkpt>
      <trkpt lat="44.14339" lon="5.70025">
        <ele>1344.2</ele>
        <time>2021-09-01T11:08:50Z</time>
      </trkpt>
      <trkpt lat="44.14353" lon="5.70019">
        <ele>1345.8</ele>
        <time>2021-09-01T11:08:56Z</time>
      </trkpt>
      <trkpt lat="44.14356" lon="5.70018">
        <ele>1346.4</ele>
        <time>2021-09-01T11:08:58Z</time>
      </trkpt>
      <trkpt lat="44.14358" lon="5.70013">
        <ele>1347</ele>
        <time>2021-09-01T11:09:00Z</time>
      </trkpt>
      <trkpt lat="44.1436" lon="5.7001">
        <ele>1347.4</ele>
        <time>2021-09-01T11:09:01Z</time>
      </trkpt>
      <trkpt lat="44.14363" lon="5.70006">
        <ele>1348</ele>
        <time>2021-09-01T11:09:03Z</time>
      </trkpt>
      <trkpt lat="44.14364" lon="5.70004">
        <ele>1348.4</ele>
        <time>2021-09-01T11:09:04Z</time>
      </trkpt>
      <trkpt lat="44.14367" lon="5.69997">
        <ele>1349.6</ele>
        <time>2021-09-01T11:09:07Z</time>
      </trkpt>
      <trkpt lat="44.14369" lon="5.69991">
        <ele>1350.2</ele>
        <time>2021-09-01T11:09:09Z</time>
      </trkpt>
      <trkpt lat="44.1437" lon="5.69988">
        <ele>1350.6</ele>
        <time>2021-09-01T11:09:10Z</time>
      </trkpt>
      <trkpt lat="44.14372" lon="5.69982">
        <ele>1351.8</ele>
        <time>2021-09-01T11:09:13Z</time>
      </trkpt>
      <trkpt lat="44.14374" lon="5.69979">
        <ele>1352</ele>
        <time>2021-09-01T11:09:14Z</time>
      </trkpt>
      <trkpt lat="44.14379" lon="5.6997">
        <ele>1353.4</ele>
        <time>2021-09-01T11:09:17Z</time>
      </trkpt>
      <trkpt lat="44.14379" lon="5.69964">
        <ele>1354.2</ele>
        <time>2021-09-01T11:09:19Z</time>
      </trkpt>
      <trkpt lat="44.14379" lon="5.6996">
        <ele>1354.8</ele>
        <time>2021-09-01T11:09:20Z</time>
      </trkpt>
      <trkpt lat="44.14383" lon="5.69958">
        <ele>1355.4</ele>
        <time>2021-09-01T11:09:22Z</time>
      </trkpt>
      <trkpt lat="44.14385" lon="5.69958">
        <ele>1355.8</ele>
        <time>2021-09-01T11:09:23Z</time>
      </trkpt>
      <trkpt lat="44.14386" lon="5.69956">
        <ele>1356.2</ele>
        <time>2021-09-01T11:09:24Z</time>
      </trkpt>
      <trkpt lat="44.14387" lon="5.69951">
        <ele>1357</ele>
        <time>2021-09-01T11:09:26Z</time>
      </trkpt>
      <trkpt lat="44.14388" lon="5.69948">
        <ele>1357.6</ele>
        <time>2021-09-01T11:09:27Z</time>
      </trkpt>
      <trkpt lat="44.14392" lon="5.69938">
        <ele>1360</ele>
        <time>2021-09-01T11:09:32Z</time>
      </trkpt>
      <trkpt lat="44.14394" lon="5.69938">
        <ele>1360.4</ele>
        <time>2021-09-01T11:09:33Z</time>
      </trkpt>
      <trkpt lat="44.14397" lon="5.69936">
        <ele>1361.2</ele>
        <time>2021-09-01T11:09:35Z</time>
      </trkpt>
      <trkpt lat="44.14399" lon="5.69936">
        <ele>1363.2</ele>
        <time>2021-09-01T11:09:40Z</time>
      </trkpt>
      <trkpt lat="44.14399" lon="5.69936">
        <ele>1366.2</ele>
        <time>2021-09-01T11:09:49Z</time>
      </trkpt>
      <trkpt lat="44.14399" lon="5.69936">
        <ele>1369.2</ele>
        <time>2021-09-01T11:09:59Z</time>
      </trkpt>
      <trkpt lat="44.14398" lon="5.69936">
        <ele>1372.2</ele>
        <time>2021-09-01T11:10:09Z</time>
      </trkpt>
      <trkpt lat="44.14403" lon="5.69933">
        <ele>1373.8</ele>
        <time>2021-09-01T11:10:14Z</time>
      </trkpt>
      <trkpt lat="44.14406" lon="5.69932">
        <ele>1375.4</ele>
        <time>2021-09-01T11:10:20Z</time>
      </trkpt>
      <trkpt lat="44.14411" lon="5.69923">
        <ele>1377.4</ele>
        <time>2021-09-01T11:10:27Z</time>
      </trkpt>
      <trkpt lat="44.14411" lon="5.69922">
        <ele>1378.6</ele>
        <time>2021-09-01T11:10:32Z</time>
      </trkpt>
      <trkpt lat="44.14411" lon="5.69922">
        <ele>1381.4</ele>
        <time>2021-09-01T11:10:45Z</time>
      </trkpt>
      <trkpt lat="44.14411" lon="5.69922">
        <ele>1384.8</ele>
        <time>2021-09-01T11:11:03Z</time>
      </trkpt>
      <trkpt lat="44.14413" lon="5.6992">
        <ele>1386.8</ele>
        <time>2021-09-01T11:11:15Z</time>
      </trkpt>
      <trkpt lat="44.14418" lon="5.6992">
        <ele>1387.4</ele>
        <time>2021-09-01T11:11:21Z</time>
      </trkpt>
      <trkpt lat="44.1442" lon="5.69921">
        <ele>1388</ele>
        <time>2021-09-01T11:11:27Z</time>
      </trkpt>
      <trkpt lat="44.14424" lon="5.69919">
        <ele>1388.6</ele>
        <time>2021-09-01T11:11:33Z</time>
      </trkpt>
      <trkpt lat="44.14427" lon="5.69909">
        <ele>1389.6</ele>
        <time>2021-09-01T11:11:40Z</time>
      </trkpt>
      <trkpt lat="44.14427" lon="5.69905">
        <ele>1390.2</ele>
        <time>2021-09-01T11:11:45Z</time>
      </trkpt>
      <trkpt lat="44.14427" lon="5.69905">
        <ele>1391.4</ele>
        <time>2021-09-01T11:12:00Z</time>
      </trkpt>
      <trkpt lat="44.14425" lon="5.69902">
        <ele>1392.2</ele>
        <time>2021-09-01T11:12:07Z</time>
      </trkpt>
      <trkpt lat="44.14422" lon="5.69884">
        <ele>1392.4</ele>
        <time>2021-09-01T11:12:11Z</time>
      </trkpt>
      <trkpt lat="44.1442" lon="5.6988">
        <ele>1392.6</ele>
        <time>2021-09-01T11:12:12Z</time>
      </trkpt>
      <trkpt lat="44.14417" lon="5.69875">
        <ele>1392.6</ele>
        <time>2021-09-01T11:12:14Z</time>
      </trkpt>
      <trkpt lat="44.14417" lon="5.69863">
        <ele>1392.6</ele>
        <time>2021-09-01T11:12:17Z</time>
      </trkpt>
      <trkpt lat="44.14409" lon="5.6985">
        <ele>1392.6</ele>
        <time>2021-09-01T11:12:21Z</time>
      </trkpt>
      <trkpt lat="44.14404" lon="5.69842">
        <ele>1392.6</ele>
        <time>2021-09-01T11:12:25Z</time>
      </trkpt>
      <trkpt lat="44.14399" lon="5.69831">
        <ele>1392.6</ele>
        <time>2021-09-01T11:12:30Z</time>
      </trkpt>
      <trkpt lat="44.14398" lon="5.69827">
        <ele>1392.6</ele>
        <time>2021-09-01T11:12:31Z</time>
      </trkpt>
      <trkpt lat="44.14397" lon="5.69824">
        <ele>1392.6</ele>
        <time>2021-09-01T11:12:32Z</time>
      </trkpt>
      <trkpt lat="44.14395" lon="5.69814">
        <ele>1392.6</ele>
        <time>2021-09-01T11:12:35Z</time>
      </trkpt>
      <trkpt lat="44.14393" lon="5.69802">
        <ele>1392.4</ele>
        <time>2021-09-01T11:12:39Z</time>
      </trkpt>
      <trkpt lat="44.14391" lon="5.69799">
        <ele>1392.4</ele>
        <time>2021-09-01T11:12:40Z</time>
      </trkpt>
      <trkpt lat="44.14382" lon="5.69785">
        <ele>1392.2</ele>
        <time>2021-09-01T11:12:45Z</time>
      </trkpt>
      <trkpt lat="44.14378" lon="5.69766">
        <ele>1391.8</ele>
        <time>2021-09-01T11:12:50Z</time>
      </trkpt>
      <trkpt lat="44.14377" lon="5.69761">
        <ele>1391.8</ele>
        <time>2021-09-01T11:12:51Z</time>
      </trkpt>
      <trkpt lat="44.14378" lon="5.69749">
        <ele>1391.8</ele>
        <time>2021-09-01T11:12:54Z</time>
      </trkpt>
      <trkpt lat="44.14379" lon="5.69743">
        <ele>1391.8</ele>
        <time>2021-09-01T11:12:56Z</time>
      </trkpt>
      <trkpt lat="44.14381" lon="5.69737">
        <ele>1391.6</ele>
        <time>2021-09-01T11:12:58Z</time>
      </trkpt>
      <trkpt lat="44.14385" lon="5.69729">
        <ele>1391.4</ele>
        <time>2021-09-01T11:13:01Z</time>
      </trkpt>
      <trkpt lat="44.14385" lon="5.69722">
        <ele>1391.6</ele>
        <time>2021-09-01T11:13:03Z</time>
      </trkpt>
      <trkpt lat="44.14385" lon="5.69707">
        <ele>1391.8</ele>
        <time>2021-09-01T11:13:07Z</time>
      </trkpt>
      <trkpt lat="44.14385" lon="5.69691">
        <ele>1391.8</ele>
        <time>2021-09-01T11:13:12Z</time>
      </trkpt>
      <trkpt lat="44.14385" lon="5.69687">
        <ele>1391.6</ele>
        <time>2021-09-01T11:13:14Z</time>
      </trkpt>
      <trkpt lat="44.14381" lon="5.69682">
        <ele>1391.4</ele>
        <time>2021-09-01T11:13:16Z</time>
      </trkpt>
      <trkpt lat="44.1438" lon="5.69679">
        <ele>1391.2</ele>
        <time>2021-09-01T11:13:20Z</time>
      </trkpt>
      <trkpt lat="44.1438" lon="5.69679">
        <ele>1390.8</ele>
        <time>2021-09-01T11:13:44Z</time>
      </trkpt>
      <trkpt lat="44.14381" lon="5.69678">
        <ele>1390.4</ele>
        <time>2021-09-01T11:14:03Z</time>
      </trkpt>
      <trkpt lat="44.14381" lon="5.69678">
        <ele>1390.2</ele>
        <time>2021-09-01T11:14:18Z</time>
      </trkpt>
      <trkpt lat="44.14381" lon="5.69678">
        <ele>1390.2</ele>
        <time>2021-09-01T11:14:33Z</time>
      </trkpt>
      <trkpt lat="44.1438" lon="5.69679">
        <ele>1390</ele>
        <time>2021-09-01T11:14:49Z</time>
      </trkpt>
      <trkpt lat="44.1438" lon="5.69679">
        <ele>1389.8</ele>
        <time>2021-09-01T11:15:02Z</time>
      </trkpt>
      <trkpt lat="44.1438" lon="5.69679">
        <ele>1389.6</ele>
        <time>2021-09-01T11:15:17Z</time>
      </trkpt>
      <trkpt lat="44.14381" lon="5.69679">
        <ele>1389.6</ele>
        <time>2021-09-01T11:15:33Z</time>
      </trkpt>
      <trkpt lat="44.14381" lon="5.69679">
        <ele>1389.4</ele>
        <time>2021-09-01T11:15:48Z</time>
      </trkpt>
      <trkpt lat="44.14381" lon="5.69679">
        <ele>1389.2</ele>
        <time>2021-09-01T11:16:06Z</time>
      </trkpt>
      <trkpt lat="44.14381" lon="5.69679">
        <ele>1389</ele>
        <time>2021-09-01T11:16:24Z</time>
      </trkpt>
      <trkpt lat="44.14381" lon="5.69679">
        <ele>1388.8</ele>
        <time>2021-09-01T11:16:43Z</time>
      </trkpt>
      <trkpt lat="44.14381" lon="5.69679">
        <ele>1388.6</ele>
        <time>2021-09-01T11:16:59Z</time>
      </trkpt>
      <trkpt lat="44.14381" lon="5.69679">
        <ele>1388.4</ele>
        <time>2021-09-01T11:17:15Z</time>
      </trkpt>
      <trkpt lat="44.14382" lon="5.69679">
        <ele>1388.4</ele>
        <time>2021-09-01T11:17:33Z</time>
      </trkpt>
      <trkpt lat="44.14382" lon="5.69679">
        <ele>1388.2</ele>
        <time>2021-09-01T11:17:51Z</time>
      </trkpt>
      <trkpt lat="44.1438" lon="5.69679">
        <ele>1388</ele>
        <time>2021-09-01T11:18:08Z</time>
      </trkpt>
      <trkpt lat="44.14378" lon="5.69678">
        <ele>1388</ele>
        <time>2021-09-01T11:18:09Z</time>
      </trkpt>
      <trkpt lat="44.14373" lon="5.69672">
        <ele>1387.6</ele>
        <time>2021-09-01T11:18:11Z</time>
      </trkpt>
      <trkpt lat="44.14371" lon="5.69667">
        <ele>1387.4</ele>
        <time>2021-09-01T11:18:12Z</time>
      </trkpt>
      <trkpt lat="44.14366" lon="5.69653">
        <ele>1387.2</ele>
        <time>2021-09-01T11:18:15Z</time>
      </trkpt>
      <trkpt lat="44.14363" lon="5.69649">
        <ele>1387</ele>
        <time>2021-09-01T11:18:16Z</time>
      </trkpt>
      <trkpt lat="44.14356" lon="5.69639">
        <ele>1386.6</ele>
        <time>2021-09-01T11:18:19Z</time>
      </trkpt>
      <trkpt lat="44.14351" lon="5.69627">
        <ele>1386.4</ele>
        <time>2021-09-01T11:18:22Z</time>
      </trkpt>
      <trkpt lat="44.14348" lon="5.69622">
        <ele>1386.2</ele>
        <time>2021-09-01T11:18:23Z</time>
      </trkpt>
      <trkpt lat="44.14345" lon="5.69612">
        <ele>1386.2</ele>
        <time>2021-09-01T11:18:25Z</time>
      </trkpt>
      <trkpt lat="44.14346" lon="5.69608">
        <ele>1386</ele>
        <time>2021-09-01T11:18:26Z</time>
      </trkpt>
      <trkpt lat="44.14346" lon="5.69605">
        <ele>1386</ele>
        <time>2021-09-01T11:18:27Z</time>
      </trkpt>
      <trkpt lat="44.14344" lon="5.69602">
        <ele>1385.8</ele>
        <time>2021-09-01T11:18:29Z</time>
      </trkpt>
      <trkpt lat="44.14334" lon="5.69594">
        <ele>1385.4</ele>
        <time>2021-09-01T11:18:34Z</time>
      </trkpt>
      <trkpt lat="44.14333" lon="5.69587">
        <ele>1385</ele>
        <time>2021-09-01T11:18:38Z</time>
      </trkpt>
      <trkpt lat="44.14333" lon="5.69581">
        <ele>1384.2</ele>
        <time>2021-09-01T11:18:42Z</time>
      </trkpt>
      <trkpt lat="44.14331" lon="5.6958">
        <ele>1384</ele>
        <time>2021-09-01T11:18:46Z</time>
      </trkpt>
      <trkpt lat="44.14331" lon="5.6958">
        <ele>1383</ele>
        <time>2021-09-01T11:19:02Z</time>
      </trkpt>
      <trkpt lat="44.14331" lon="5.6958">
        <ele>1382</ele>
        <time>2021-09-01T11:19:18Z</time>
      </trkpt>
      <trkpt lat="44.14331" lon="5.69577">
        <ele>1381.6</ele>
        <time>2021-09-01T11:19:23Z</time>
      </trkpt>
      <trkpt lat="44.14332" lon="5.69573">
        <ele>1381.6</ele>
        <time>2021-09-01T11:19:25Z</time>
      </trkpt>
      <trkpt lat="44.14336" lon="5.69568">
        <ele>1381.6</ele>
        <time>2021-09-01T11:19:28Z</time>
      </trkpt>
      <trkpt lat="44.14337" lon="5.69567">
        <ele>1381.6</ele>
        <time>2021-09-01T11:19:29Z</time>
      </trkpt>
      <trkpt lat="44.1434" lon="5.69563">
        <ele>1381.6</ele>
        <time>2021-09-01T11:19:31Z</time>
      </trkpt>
      <trkpt lat="44.14342" lon="5.69553">
        <ele>1381.6</ele>
        <time>2021-09-01T11:19:35Z</time>
      </trkpt>
      <trkpt lat="44.1434" lon="5.69548">
        <ele>1381.8</ele>
        <time>2021-09-01T11:19:37Z</time>
      </trkpt>
      <trkpt lat="44.14336" lon="5.69538">
        <ele>1381.6</ele>
        <time>2021-09-01T11:19:41Z</time>
      </trkpt>
      <trkpt lat="44.14336" lon="5.69532">
        <ele>1382</ele>
        <time>2021-09-01T11:19:46Z</time>
      </trkpt>
      <trkpt lat="44.14336" lon="5.69532">
        <ele>1382</ele>
        <time>2021-09-01T11:20:03Z</time>
      </trkpt>
      <trkpt lat="44.14336" lon="5.69532">
        <ele>1382.2</ele>
        <time>2021-09-01T11:20:20Z</time>
      </trkpt>
      <trkpt lat="44.14336" lon="5.69533">
        <ele>1382.2</ele>
        <time>2021-09-01T11:20:35Z</time>
      </trkpt>
      <trkpt lat="44.14336" lon="5.69533">
        <ele>1382.2</ele>
        <time>2021-09-01T11:20:53Z</time>
      </trkpt>
      <trkpt lat="44.14336" lon="5.69533">
        <ele>1382.4</ele>
        <time>2021-09-01T11:21:11Z</time>
      </trkpt>
      <trkpt lat="44.14336" lon="5.69533">
        <ele>1382.4</ele>
        <time>2021-09-01T11:21:18Z</time>
      </trkpt>
      <trkpt lat="44.14332" lon="5.69531">
        <ele>1382.4</ele>
        <time>2021-09-01T11:21:23Z</time>
      </trkpt>
      <trkpt lat="44.14329" lon="5.6953">
        <ele>1382.4</ele>
        <time>2021-09-01T11:21:24Z</time>
      </trkpt>
      <trkpt lat="44.14324" lon="5.69527">
        <ele>1382.4</ele>
        <time>2021-09-01T11:21:26Z</time>
      </trkpt>
      <trkpt lat="44.1432" lon="5.69528">
        <ele>1382.4</ele>
        <time>2021-09-01T11:21:28Z</time>
      </trkpt>
      <trkpt lat="44.14313" lon="5.69526">
        <ele>1382.4</ele>
        <time>2021-09-01T11:21:31Z</time>
      </trkpt>
      <trkpt lat="44.14312" lon="5.69525">
        <ele>1382.4</ele>
        <time>2021-09-01T11:21:32Z</time>
      </trkpt>
      <trkpt lat="44.14307" lon="5.6952">
        <ele>1382.2</ele>
        <time>2021-09-01T11:21:36Z</time>
      </trkpt>
      <trkpt lat="44.14307" lon="5.69518">
        <ele>1382.2</ele>
        <time>2021-09-01T11:21:37Z</time>
      </trkpt>
      <trkpt lat="44.14303" lon="5.69506">
        <ele>1382.2</ele>
        <time>2021-09-01T11:21:42Z</time>
      </trkpt>
      <trkpt lat="44.143" lon="5.69493">
        <ele>1382.2</ele>
        <time>2021-09-01T11:21:46Z</time>
      </trkpt>
      <trkpt lat="44.14299" lon="5.69482">
        <ele>1382</ele>
        <time>2021-09-01T11:21:49Z</time>
      </trkpt>
      <trkpt lat="44.14298" lon="5.69478">
        <ele>1382</ele>
        <time>2021-09-01T11:21:50Z</time>
      </trkpt>
      <trkpt lat="44.14291" lon="5.6946">
        <ele>1382</ele>
        <time>2021-09-01T11:21:55Z</time>
      </trkpt>
      <trkpt lat="44.14288" lon="5.69433">
        <ele>1381.8</ele>
        <time>2021-09-01T11:22:00Z</time>
      </trkpt>
      <trkpt lat="44.14288" lon="5.69429">
        <ele>1381.8</ele>
        <time>2021-09-01T11:22:01Z</time>
      </trkpt>
      <trkpt lat="44.14284" lon="5.69423">
        <ele>1381.6</ele>
        <time>2021-09-01T11:22:03Z</time>
      </trkpt>
      <trkpt lat="44.14282" lon="5.6942">
        <ele>1381.4</ele>
        <time>2021-09-01T11:22:04Z</time>
      </trkpt>
      <trkpt lat="44.14278" lon="5.69412">
        <ele>1381.2</ele>
        <time>2021-09-01T11:22:06Z</time>
      </trkpt>
      <trkpt lat="44.14278" lon="5.69406">
        <ele>1381</ele>
        <time>2021-09-01T11:22:07Z</time>
      </trkpt>
      <trkpt lat="44.14279" lon="5.69396">
        <ele>1380.8</ele>
        <time>2021-09-01T11:22:09Z</time>
      </trkpt>
      <trkpt lat="44.14278" lon="5.69368">
        <ele>1380.2</ele>
        <time>2021-09-01T11:22:15Z</time>
      </trkpt>
      <trkpt lat="44.1428" lon="5.69343">
        <ele>1380</ele>
        <time>2021-09-01T11:22:21Z</time>
      </trkpt>
      <trkpt lat="44.14277" lon="5.69321">
        <ele>1379.6</ele>
        <time>2021-09-01T11:22:26Z</time>
      </trkpt>
      <trkpt lat="44.14272" lon="5.69298">
        <ele>1379.4</ele>
        <time>2021-09-01T11:22:30Z</time>
      </trkpt>
      <trkpt lat="44.14272" lon="5.69283">
        <ele>1379.2</ele>
        <time>2021-09-01T11:22:33Z</time>
      </trkpt>
      <trkpt lat="44.14274" lon="5.69279">
        <ele>1379.4</ele>
        <time>2021-09-01T11:22:34Z</time>
      </trkpt>
      <trkpt lat="44.14285" lon="5.69266">
        <ele>1378.8</ele>
        <time>2021-09-01T11:22:39Z</time>
      </trkpt>
      <trkpt lat="44.14286" lon="5.69263">
        <ele>1379.4</ele>
        <time>2021-09-01T11:22:40Z</time>
      </trkpt>
      <trkpt lat="44.14291" lon="5.69259">
        <ele>1380.4</ele>
        <time>2021-09-01T11:22:42Z</time>
      </trkpt>
      <trkpt lat="44.14305" lon="5.69256">
        <ele>1380.8</ele>
        <time>2021-09-01T11:22:47Z</time>
      </trkpt>
      <trkpt lat="44.14317" lon="5.69248">
        <ele>1381.6</ele>
        <time>2021-09-01T11:22:52Z</time>
      </trkpt>
      <trkpt lat="44.14324" lon="5.6924">
        <ele>1382.4</ele>
        <time>2021-09-01T11:22:56Z</time>
      </trkpt>
      <trkpt lat="44.1433" lon="5.69231">
        <ele>1383.6</ele>
        <time>2021-09-01T11:23:00Z</time>
      </trkpt>
      <trkpt lat="44.14332" lon="5.69228">
        <ele>1383.8</ele>
        <time>2021-09-01T11:23:01Z</time>
      </trkpt>
      <trkpt lat="44.14333" lon="5.69226">
        <ele>1384</ele>
        <time>2021-09-01T11:23:02Z</time>
      </trkpt>
      <trkpt lat="44.14334" lon="5.69223">
        <ele>1384.6</ele>
        <time>2021-09-01T11:23:04Z</time>
      </trkpt>
      <trkpt lat="44.14338" lon="5.69218">
        <ele>1385.6</ele>
        <time>2021-09-01T11:23:08Z</time>
      </trkpt>
      <trkpt lat="44.14339" lon="5.69217">
        <ele>1386</ele>
        <time>2021-09-01T11:23:09Z</time>
      </trkpt>
      <trkpt lat="44.1434" lon="5.69211">
        <ele>1386.4</ele>
        <time>2021-09-01T11:23:11Z</time>
      </trkpt>
      <trkpt lat="44.14342" lon="5.69206">
        <ele>1386.8</ele>
        <time>2021-09-01T11:23:13Z</time>
      </trkpt>
      <trkpt lat="44.14346" lon="5.69206">
        <ele>1387.6</ele>
        <time>2021-09-01T11:23:15Z</time>
      </trkpt>
      <trkpt lat="44.14354" lon="5.69206">
        <ele>1388.8</ele>
        <time>2021-09-01T11:23:19Z</time>
      </trkpt>
      <trkpt lat="44.14358" lon="5.69207">
        <ele>1389.4</ele>
        <time>2021-09-01T11:23:21Z</time>
      </trkpt>
      <trkpt lat="44.14362" lon="5.69205">
        <ele>1390</ele>
        <time>2021-09-01T11:23:23Z</time>
      </trkpt>
      <trkpt lat="44.14368" lon="5.69201">
        <ele>1391</ele>
        <time>2021-09-01T11:23:26Z</time>
      </trkpt>
      <trkpt lat="44.14369" lon="5.69198">
        <ele>1391.4</ele>
        <time>2021-09-01T11:23:28Z</time>
      </trkpt>
      <trkpt lat="44.14369" lon="5.69198">
        <ele>1392.8</ele>
        <time>2021-09-01T11:23:34Z</time>
      </trkpt>
      <trkpt lat="44.14369" lon="5.69198">
        <ele>1395.4</ele>
        <time>2021-09-01T11:23:46Z</time>
      </trkpt>
      <trkpt lat="44.14369" lon="5.69199">
        <ele>1396.4</ele>
        <time>2021-09-01T11:23:51Z</time>
      </trkpt>
      <trkpt lat="44.14369" lon="5.69199">
        <ele>1400</ele>
        <time>2021-09-01T11:24:12Z</time>
      </trkpt>
      <trkpt lat="44.14369" lon="5.692">
        <ele>1402.8</ele>
        <time>2021-09-01T11:24:33Z</time>
      </trkpt>
      <trkpt lat="44.14369" lon="5.692">
        <ele>1405.8</ele>
        <time>2021-09-01T11:25:03Z</time>
      </trkpt>
      <trkpt lat="44.14369" lon="5.69199">
        <ele>1406.4</ele>
        <time>2021-09-01T11:25:10Z</time>
      </trkpt>
      <trkpt lat="44.14371" lon="5.69195">
        <ele>1406.6</ele>
        <time>2021-09-01T11:25:13Z</time>
      </trkpt>
      <trkpt lat="44.14372" lon="5.69192">
        <ele>1406.6</ele>
        <time>2021-09-01T11:25:14Z</time>
      </trkpt>
      <trkpt lat="44.14373" lon="5.6919">
        <ele>1406.8</ele>
        <time>2021-09-01T11:25:15Z</time>
      </trkpt>
      <trkpt lat="44.14377" lon="5.69187">
        <ele>1407</ele>
        <time>2021-09-01T11:25:17Z</time>
      </trkpt>
      <trkpt lat="44.14378" lon="5.69184">
        <ele>1407</ele>
        <time>2021-09-01T11:25:18Z</time>
      </trkpt>
      <trkpt lat="44.1438" lon="5.69182">
        <ele>1407</ele>
        <time>2021-09-01T11:25:19Z</time>
      </trkpt>
      <trkpt lat="44.14381" lon="5.69174">
        <ele>1407.4</ele>
        <time>2021-09-01T11:25:22Z</time>
      </trkpt>
      <trkpt lat="44.14381" lon="5.69172">
        <ele>1407.6</ele>
        <time>2021-09-01T11:25:23Z</time>
      </trkpt>
      <trkpt lat="44.14382" lon="5.69167">
        <ele>1407.8</ele>
        <time>2021-09-01T11:25:25Z</time>
      </trkpt>
      <trkpt lat="44.14383" lon="5.69157">
        <ele>1408.4</ele>
        <time>2021-09-01T11:25:29Z</time>
      </trkpt>
      <trkpt lat="44.14386" lon="5.69153">
        <ele>1408.8</ele>
        <time>2021-09-01T11:25:31Z</time>
      </trkpt>
      <trkpt lat="44.14387" lon="5.69149">
        <ele>1409.2</ele>
        <time>2021-09-01T11:25:33Z</time>
      </trkpt>
      <trkpt lat="44.14388" lon="5.69146">
        <ele>1409.4</ele>
        <time>2021-09-01T11:25:34Z</time>
      </trkpt>
      <trkpt lat="44.14391" lon="5.69136">
        <ele>1409.8</ele>
        <time>2021-09-01T11:25:37Z</time>
      </trkpt>
      <trkpt lat="44.14391" lon="5.69132">
        <ele>1410</ele>
        <time>2021-09-01T11:25:38Z</time>
      </trkpt>
      <trkpt lat="44.14398" lon="5.69115">
        <ele>1411.2</ele>
        <time>2021-09-01T11:25:43Z</time>
      </trkpt>
      <trkpt lat="44.14403" lon="5.69104">
        <ele>1412.6</ele>
        <time>2021-09-01T11:25:48Z</time>
      </trkpt>
      <trkpt lat="44.14409" lon="5.69098">
        <ele>1413.6</ele>
        <time>2021-09-01T11:25:52Z</time>
      </trkpt>
      <trkpt lat="44.14416" lon="5.69093">
        <ele>1414.8</ele>
        <time>2021-09-01T11:25:56Z</time>
      </trkpt>
      <trkpt lat="44.1442" lon="5.69083">
        <ele>1416</ele>
        <time>2021-09-01T11:26:00Z</time>
      </trkpt>
      <trkpt lat="44.14421" lon="5.69081">
        <ele>1416.4</ele>
        <time>2021-09-01T11:26:01Z</time>
      </trkpt>
      <trkpt lat="44.14421" lon="5.69078">
        <ele>1416.6</ele>
        <time>2021-09-01T11:26:02Z</time>
      </trkpt>
      <trkpt lat="44.14423" lon="5.69072">
        <ele>1417.6</ele>
        <time>2021-09-01T11:26:05Z</time>
      </trkpt>
      <trkpt lat="44.14425" lon="5.69068">
        <ele>1418.2</ele>
        <time>2021-09-01T11:26:07Z</time>
      </trkpt>
      <trkpt lat="44.14427" lon="5.69064">
        <ele>1418.8</ele>
        <time>2021-09-01T11:26:09Z</time>
      </trkpt>
      <trkpt lat="44.14428" lon="5.69061">
        <ele>1419.2</ele>
        <time>2021-09-01T11:26:10Z</time>
      </trkpt>
      <trkpt lat="44.14427" lon="5.69055">
        <ele>1420</ele>
        <time>2021-09-01T11:26:13Z</time>
      </trkpt>
      <trkpt lat="44.14422" lon="5.69048">
        <ele>1420.8</ele>
        <time>2021-09-01T11:26:16Z</time>
      </trkpt>
      <trkpt lat="44.14423" lon="5.69032">
        <ele>1422.4</ele>
        <time>2021-09-01T11:26:21Z</time>
      </trkpt>
      <trkpt lat="44.14427" lon="5.6902">
        <ele>1423.6</ele>
        <time>2021-09-01T11:26:25Z</time>
      </trkpt>
      <trkpt lat="44.14431" lon="5.69016">
        <ele>1424.2</ele>
        <time>2021-09-01T11:26:27Z</time>
      </trkpt>
      <trkpt lat="44.14433" lon="5.6901">
        <ele>1424.8</ele>
        <time>2021-09-01T11:26:29Z</time>
      </trkpt>
      <trkpt lat="44.14436" lon="5.69004">
        <ele>1425.4</ele>
        <time>2021-09-01T11:26:31Z</time>
      </trkpt>
      <trkpt lat="44.14441" lon="5.68994">
        <ele>1426.2</ele>
        <time>2021-09-01T11:26:34Z</time>
      </trkpt>
      <trkpt lat="44.14442" lon="5.68991">
        <ele>1426.6</ele>
        <time>2021-09-01T11:26:35Z</time>
      </trkpt>
      <trkpt lat="44.14443" lon="5.68984">
        <ele>1427.4</ele>
        <time>2021-09-01T11:26:37Z</time>
      </trkpt>
      <trkpt lat="44.14445" lon="5.68977">
        <ele>1428</ele>
        <time>2021-09-01T11:26:39Z</time>
      </trkpt>
      <trkpt lat="44.14446" lon="5.6896">
        <ele>1429.4</ele>
        <time>2021-09-01T11:26:43Z</time>
      </trkpt>
      <trkpt lat="44.14446" lon="5.68937">
        <ele>1430.8</ele>
        <time>2021-09-01T11:26:48Z</time>
      </trkpt>
      <trkpt lat="44.14446" lon="5.68932">
        <ele>1431</ele>
        <time>2021-09-01T11:26:49Z</time>
      </trkpt>
      <trkpt lat="44.14446" lon="5.68925">
        <ele>1431.6</ele>
        <time>2021-09-01T11:26:51Z</time>
      </trkpt>
      <trkpt lat="44.14447" lon="5.68921">
        <ele>1431.8</ele>
        <time>2021-09-01T11:26:52Z</time>
      </trkpt>
      <trkpt lat="44.14448" lon="5.68913">
        <ele>1432.4</ele>
        <time>2021-09-01T11:26:54Z</time>
      </trkpt>
      <trkpt lat="44.1445" lon="5.68891">
        <ele>1433.6</ele>
        <time>2021-09-01T11:26:59Z</time>
      </trkpt>
      <trkpt lat="44.14453" lon="5.68878">
        <ele>1434.6</ele>
        <time>2021-09-01T11:27:03Z</time>
      </trkpt>
      <trkpt lat="44.14453" lon="5.68875">
        <ele>1435</ele>
        <time>2021-09-01T11:27:04Z</time>
      </trkpt>
      <trkpt lat="44.14455" lon="5.68867">
        <ele>1435.6</ele>
        <time>2021-09-01T11:27:07Z</time>
      </trkpt>
      <trkpt lat="44.14459" lon="5.68854">
        <ele>1436.8</ele>
        <time>2021-09-01T11:27:11Z</time>
      </trkpt>
      <trkpt lat="44.1446" lon="5.68849">
        <ele>1437</ele>
        <time>2021-09-01T11:27:12Z</time>
      </trkpt>
      <trkpt lat="44.1446" lon="5.68833">
        <ele>1438</ele>
        <time>2021-09-01T11:27:16Z</time>
      </trkpt>
      <trkpt lat="44.14462" lon="5.68823">
        <ele>1438.8</ele>
        <time>2021-09-01T11:27:19Z</time>
      </trkpt>
      <trkpt lat="44.14462" lon="5.6882">
        <ele>1439</ele>
        <time>2021-09-01T11:27:20Z</time>
      </trkpt>
      <trkpt lat="44.14461" lon="5.68813">
        <ele>1439.6</ele>
        <time>2021-09-01T11:27:22Z</time>
      </trkpt>
      <trkpt lat="44.14458" lon="5.68805">
        <ele>1440.2</ele>
        <time>2021-09-01T11:27:24Z</time>
      </trkpt>
      <trkpt lat="44.14454" lon="5.68793">
        <ele>1441.2</ele>
        <time>2021-09-01T11:27:28Z</time>
      </trkpt>
      <trkpt lat="44.1445" lon="5.68778">
        <ele>1442.2</ele>
        <time>2021-09-01T11:27:32Z</time>
      </trkpt>
      <trkpt lat="44.14449" lon="5.68759">
        <ele>1443.4</ele>
        <time>2021-09-01T11:27:37Z</time>
      </trkpt>
      <trkpt lat="44.1445" lon="5.68753">
        <ele>1443.8</ele>
        <time>2021-09-01T11:27:39Z</time>
      </trkpt>
      <trkpt lat="44.14454" lon="5.68745">
        <ele>1444.8</ele>
        <time>2021-09-01T11:27:42Z</time>
      </trkpt>
      <trkpt lat="44.14456" lon="5.68736">
        <ele>1445.8</ele>
        <time>2021-09-01T11:27:45Z</time>
      </trkpt>
      <trkpt lat="44.14457" lon="5.68733">
        <ele>1446</ele>
        <time>2021-09-01T11:27:46Z</time>
      </trkpt>
      <trkpt lat="44.14458" lon="5.68717">
        <ele>1447.6</ele>
        <time>2021-09-01T11:27:51Z</time>
      </trkpt>
      <trkpt lat="44.14462" lon="5.68696">
        <ele>1449.2</ele>
        <time>2021-09-01T11:27:57Z</time>
      </trkpt>
      <trkpt lat="44.14463" lon="5.68693">
        <ele>1449.6</ele>
        <time>2021-09-01T11:27:58Z</time>
      </trkpt>
      <trkpt lat="44.14463" lon="5.68686">
        <ele>1450.2</ele>
        <time>2021-09-01T11:28:00Z</time>
      </trkpt>
      <trkpt lat="44.14463" lon="5.68681">
        <ele>1450.8</ele>
        <time>2021-09-01T11:28:02Z</time>
      </trkpt>
      <trkpt lat="44.14464" lon="5.68675">
        <ele>1451.2</ele>
        <time>2021-09-01T11:28:04Z</time>
      </trkpt>
      <trkpt lat="44.14466" lon="5.68664">
        <ele>1452</ele>
        <time>2021-09-01T11:28:07Z</time>
      </trkpt>
      <trkpt lat="44.14468" lon="5.68661">
        <ele>1452.2</ele>
        <time>2021-09-01T11:28:08Z</time>
      </trkpt>
      <trkpt lat="44.1447" lon="5.68658">
        <ele>1452.4</ele>
        <time>2021-09-01T11:28:09Z</time>
      </trkpt>
      <trkpt lat="44.14474" lon="5.68647">
        <ele>1453</ele>
        <time>2021-09-01T11:28:12Z</time>
      </trkpt>
      <trkpt lat="44.14479" lon="5.68633">
        <ele>1454</ele>
        <time>2021-09-01T11:28:16Z</time>
      </trkpt>
      <trkpt lat="44.1448" lon="5.6863">
        <ele>1454.2</ele>
        <time>2021-09-01T11:28:17Z</time>
      </trkpt>
      <trkpt lat="44.14481" lon="5.68621">
        <ele>1455.2</ele>
        <time>2021-09-01T11:28:20Z</time>
      </trkpt>
      <trkpt lat="44.14482" lon="5.68614">
        <ele>1455.6</ele>
        <time>2021-09-01T11:28:22Z</time>
      </trkpt>
      <trkpt lat="44.14483" lon="5.68612">
        <ele>1455.8</ele>
        <time>2021-09-01T11:28:23Z</time>
      </trkpt>
      <trkpt lat="44.14485" lon="5.68605">
        <ele>1456.4</ele>
        <time>2021-09-01T11:28:25Z</time>
      </trkpt>
      <trkpt lat="44.14489" lon="5.68593">
        <ele>1457.6</ele>
        <time>2021-09-01T11:28:29Z</time>
      </trkpt>
      <trkpt lat="44.1449" lon="5.6859">
        <ele>1457.6</ele>
        <time>2021-09-01T11:28:30Z</time>
      </trkpt>
      <trkpt lat="44.1449" lon="5.68586">
        <ele>1458</ele>
        <time>2021-09-01T11:28:31Z</time>
      </trkpt>
      <trkpt lat="44.14488" lon="5.68578">
        <ele>1458.2</ele>
        <time>2021-09-01T11:28:33Z</time>
      </trkpt>
      <trkpt lat="44.14485" lon="5.68556">
        <ele>1459.2</ele>
        <time>2021-09-01T11:28:38Z</time>
      </trkpt>
      <trkpt lat="44.14481" lon="5.68545">
        <ele>1459.4</ele>
        <time>2021-09-01T11:28:40Z</time>
      </trkpt>
      <trkpt lat="44.14473" lon="5.6853">
        <ele>1459.6</ele>
        <time>2021-09-01T11:28:43Z</time>
      </trkpt>
      <trkpt lat="44.1447" lon="5.68515">
        <ele>1460</ele>
        <time>2021-09-01T11:28:46Z</time>
      </trkpt>
      <trkpt lat="44.14471" lon="5.68511">
        <ele>1460.2</ele>
        <time>2021-09-01T11:28:47Z</time>
      </trkpt>
      <trkpt lat="44.14473" lon="5.68496">
        <ele>1460.6</ele>
        <time>2021-09-01T11:28:51Z</time>
      </trkpt>
      <trkpt lat="44.14473" lon="5.68482">
        <ele>1461</ele>
        <time>2021-09-01T11:28:54Z</time>
      </trkpt>
      <trkpt lat="44.14474" lon="5.68477">
        <ele>1461.2</ele>
        <time>2021-09-01T11:28:55Z</time>
      </trkpt>
      <trkpt lat="44.14475" lon="5.68457">
        <ele>1461.6</ele>
        <time>2021-09-01T11:28:59Z</time>
      </trkpt>
      <trkpt lat="44.14476" lon="5.68451">
        <ele>1462</ele>
        <time>2021-09-01T11:29:01Z</time>
      </trkpt>
      <trkpt lat="44.14475" lon="5.68446">
        <ele>1462</ele>
        <time>2021-09-01T11:29:03Z</time>
      </trkpt>
      <trkpt lat="44.14471" lon="5.68429">
        <ele>1462.4</ele>
        <time>2021-09-01T11:29:07Z</time>
      </trkpt>
      <trkpt lat="44.14466" lon="5.68408">
        <ele>1462.6</ele>
        <time>2021-09-01T11:29:12Z</time>
      </trkpt>
      <trkpt lat="44.14466" lon="5.68403">
        <ele>1462.8</ele>
        <time>2021-09-01T11:29:13Z</time>
      </trkpt>
      <trkpt lat="44.14469" lon="5.68394">
        <ele>1462.8</ele>
        <time>2021-09-01T11:29:15Z</time>
      </trkpt>
      <trkpt lat="44.1447" lon="5.68378">
        <ele>1463.4</ele>
        <time>2021-09-01T11:29:19Z</time>
      </trkpt>
      <trkpt lat="44.14468" lon="5.68371">
        <ele>1463.6</ele>
        <time>2021-09-01T11:29:21Z</time>
      </trkpt>
      <trkpt lat="44.14471" lon="5.68365">
        <ele>1464</ele>
        <time>2021-09-01T11:29:23Z</time>
      </trkpt>
      <trkpt lat="44.1448" lon="5.68348">
        <ele>1464.8</ele>
        <time>2021-09-01T11:29:28Z</time>
      </trkpt>
      <trkpt lat="44.14483" lon="5.68331">
        <ele>1465.4</ele>
        <time>2021-09-01T11:29:32Z</time>
      </trkpt>
      <trkpt lat="44.14485" lon="5.68314">
        <ele>1466.4</ele>
        <time>2021-09-01T11:29:36Z</time>
      </trkpt>
      <trkpt lat="44.14485" lon="5.68295">
        <ele>1466.8</ele>
        <time>2021-09-01T11:29:40Z</time>
      </trkpt>
      <trkpt lat="44.14484" lon="5.68274">
        <ele>1467.6</ele>
        <time>2021-09-01T11:29:45Z</time>
      </trkpt>
      <trkpt lat="44.14486" lon="5.68254">
        <ele>1468.6</ele>
        <time>2021-09-01T11:29:50Z</time>
      </trkpt>
      <trkpt lat="44.14486" lon="5.68236">
        <ele>1469.4</ele>
        <time>2021-09-01T11:29:54Z</time>
      </trkpt>
      <trkpt lat="44.14487" lon="5.68233">
        <ele>1469.8</ele>
        <time>2021-09-01T11:29:55Z</time>
      </trkpt>
      <trkpt lat="44.14489" lon="5.68229">
        <ele>1470</ele>
        <time>2021-09-01T11:29:56Z</time>
      </trkpt>
      <trkpt lat="44.14488" lon="5.6822">
        <ele>1470.4</ele>
        <time>2021-09-01T11:29:58Z</time>
      </trkpt>
      <trkpt lat="44.14488" lon="5.68205">
        <ele>1471.6</ele>
        <time>2021-09-01T11:30:02Z</time>
      </trkpt>
      <trkpt lat="44.14488" lon="5.68201">
        <ele>1471.8</ele>
        <time>2021-09-01T11:30:03Z</time>
      </trkpt>
      <trkpt lat="44.14491" lon="5.68185">
        <ele>1473</ele>
        <time>2021-09-01T11:30:08Z</time>
      </trkpt>
      <trkpt lat="44.14495" lon="5.68169">
        <ele>1474.6</ele>
        <time>2021-09-01T11:30:14Z</time>
      </trkpt>
      <trkpt lat="44.14506" lon="5.68163">
        <ele>1476.6</ele>
        <time>2021-09-01T11:30:20Z</time>
      </trkpt>
      <trkpt lat="44.1451" lon="5.68161">
        <ele>1477.6</ele>
        <time>2021-09-01T11:30:23Z</time>
      </trkpt>
      <trkpt lat="44.14512" lon="5.6816">
        <ele>1478</ele>
        <time>2021-09-01T11:30:24Z</time>
      </trkpt>
      <trkpt lat="44.14514" lon="5.68156">
        <ele>1478.6</ele>
        <time>2021-09-01T11:30:26Z</time>
      </trkpt>
      <trkpt lat="44.14516" lon="5.68154">
        <ele>1479.4</ele>
        <time>2021-09-01T11:30:28Z</time>
      </trkpt>
      <trkpt lat="44.14517" lon="5.68152">
        <ele>1479.6</ele>
        <time>2021-09-01T11:30:29Z</time>
      </trkpt>
      <trkpt lat="44.14519" lon="5.68146">
        <ele>1480.6</ele>
        <time>2021-09-01T11:30:32Z</time>
      </trkpt>
      <trkpt lat="44.14529" lon="5.68143">
        <ele>1482.6</ele>
        <time>2021-09-01T11:30:37Z</time>
      </trkpt>
      <trkpt lat="44.14535" lon="5.68139">
        <ele>1483.4</ele>
        <time>2021-09-01T11:30:40Z</time>
      </trkpt>
      <trkpt lat="44.14536" lon="5.68134">
        <ele>1484.2</ele>
        <time>2021-09-01T11:30:42Z</time>
      </trkpt>
      <trkpt lat="44.14536" lon="5.68128">
        <ele>1484.8</ele>
        <time>2021-09-01T11:30:44Z</time>
      </trkpt>
      <trkpt lat="44.14538" lon="5.6812">
        <ele>1485.8</ele>
        <time>2021-09-01T11:30:47Z</time>
      </trkpt>
      <trkpt lat="44.14542" lon="5.68106">
        <ele>1487.8</ele>
        <time>2021-09-01T11:30:53Z</time>
      </trkpt>
      <trkpt lat="44.14541" lon="5.681">
        <ele>1488.6</ele>
        <time>2021-09-01T11:30:55Z</time>
      </trkpt>
      <trkpt lat="44.14539" lon="5.68092">
        <ele>1489.8</ele>
        <time>2021-09-01T11:30:58Z</time>
      </trkpt>
      <trkpt lat="44.14538" lon="5.68074">
        <ele>1492.2</ele>
        <time>2021-09-01T11:31:05Z</time>
      </trkpt>
      <trkpt lat="44.14534" lon="5.68065">
        <ele>1493.4</ele>
        <time>2021-09-01T11:31:09Z</time>
      </trkpt>
      <trkpt lat="44.14534" lon="5.68059">
        <ele>1494.2</ele>
        <time>2021-09-01T11:31:12Z</time>
      </trkpt>
      <trkpt lat="44.14534" lon="5.68057">
        <ele>1494.6</ele>
        <time>2021-09-01T11:31:13Z</time>
      </trkpt>
      <trkpt lat="44.14536" lon="5.68049">
        <ele>1495.6</ele>
        <time>2021-09-01T11:31:16Z</time>
      </trkpt>
      <trkpt lat="44.14539" lon="5.68045">
        <ele>1496.4</ele>
        <time>2021-09-01T11:31:18Z</time>
      </trkpt>
      <trkpt lat="44.14548" lon="5.68034">
        <ele>1498.6</ele>
        <time>2021-09-01T11:31:24Z</time>
      </trkpt>
      <trkpt lat="44.14552" lon="5.68026">
        <ele>1500</ele>
        <time>2021-09-01T11:31:28Z</time>
      </trkpt>
      <trkpt lat="44.14553" lon="5.68024">
        <ele>1500.4</ele>
        <time>2021-09-01T11:31:29Z</time>
      </trkpt>
      <trkpt lat="44.1456" lon="5.68012">
        <ele>1502.6</ele>
        <time>2021-09-01T11:31:35Z</time>
      </trkpt>
      <trkpt lat="44.14568" lon="5.68">
        <ele>1504.6</ele>
        <time>2021-09-01T11:31:41Z</time>
      </trkpt>
      <trkpt lat="44.14571" lon="5.67988">
        <ele>1506.2</ele>
        <time>2021-09-01T11:31:46Z</time>
      </trkpt>
      <trkpt lat="44.14572" lon="5.67972">
        <ele>1508</ele>
        <time>2021-09-01T11:31:52Z</time>
      </trkpt>
      <trkpt lat="44.14573" lon="5.67959">
        <ele>1509.2</ele>
        <time>2021-09-01T11:31:56Z</time>
      </trkpt>
      <trkpt lat="44.14574" lon="5.67957">
        <ele>1509.6</ele>
        <time>2021-09-01T11:31:57Z</time>
      </trkpt>
      <trkpt lat="44.14577" lon="5.67951">
        <ele>1510.4</ele>
        <time>2021-09-01T11:31:59Z</time>
      </trkpt>
      <trkpt lat="44.1458" lon="5.67944">
        <ele>1511</ele>
        <time>2021-09-01T11:32:01Z</time>
      </trkpt>
      <trkpt lat="44.1458" lon="5.6794">
        <ele>1511.4</ele>
        <time>2021-09-01T11:32:02Z</time>
      </trkpt>
      <trkpt lat="44.14582" lon="5.67928">
        <ele>1512.2</ele>
        <time>2021-09-01T11:32:05Z</time>
      </trkpt>
      <trkpt lat="44.14582" lon="5.67909">
        <ele>1513.2</ele>
        <time>2021-09-01T11:32:09Z</time>
      </trkpt>
      <trkpt lat="44.14587" lon="5.67895">
        <ele>1514.2</ele>
        <time>2021-09-01T11:32:12Z</time>
      </trkpt>
      <trkpt lat="44.14591" lon="5.6789">
        <ele>1514.4</ele>
        <time>2021-09-01T11:32:13Z</time>
      </trkpt>
      <trkpt lat="44.14602" lon="5.67877">
        <ele>1515.4</ele>
        <time>2021-09-01T11:32:17Z</time>
      </trkpt>
      <trkpt lat="44.14617" lon="5.67876">
        <ele>1516.2</ele>
        <time>2021-09-01T11:32:22Z</time>
      </trkpt>
      <trkpt lat="44.14621" lon="5.67878">
        <ele>1517.2</ele>
        <time>2021-09-01T11:32:26Z</time>
      </trkpt>
      <trkpt lat="44.14621" lon="5.67875">
        <ele>1518.4</ele>
        <time>2021-09-01T11:32:33Z</time>
      </trkpt>
      <trkpt lat="44.14621" lon="5.67873">
        <ele>1518.6</ele>
        <time>2021-09-01T11:32:34Z</time>
      </trkpt>
      <trkpt lat="44.14614" lon="5.67869">
        <ele>1519.4</ele>
        <time>2021-09-01T11:32:38Z</time>
      </trkpt>
      <trkpt lat="44.14613" lon="5.67867">
        <ele>1519.4</ele>
        <time>2021-09-01T11:32:39Z</time>
      </trkpt>
      <trkpt lat="44.14612" lon="5.67854">
        <ele>1519.8</ele>
        <time>2021-09-01T11:32:42Z</time>
      </trkpt>
      <trkpt lat="44.14614" lon="5.6784">
        <ele>1520.4</ele>
        <time>2021-09-01T11:32:46Z</time>
      </trkpt>
      <trkpt lat="44.14613" lon="5.67834">
        <ele>1520.4</ele>
        <time>2021-09-01T11:32:47Z</time>
      </trkpt>
      <trkpt lat="44.14609" lon="5.67822">
        <ele>1520.6</ele>
        <time>2021-09-01T11:32:49Z</time>
      </trkpt>
      <trkpt lat="44.14607" lon="5.6781">
        <ele>1520.6</ele>
        <time>2021-09-01T11:32:51Z</time>
      </trkpt>
      <trkpt lat="44.14608" lon="5.67798">
        <ele>1520.6</ele>
        <time>2021-09-01T11:32:53Z</time>
      </trkpt>
      <trkpt lat="44.14611" lon="5.67786">
        <ele>1520.6</ele>
        <time>2021-09-01T11:32:55Z</time>
      </trkpt>
      <trkpt lat="44.14619" lon="5.67775">
        <ele>1520.6</ele>
        <time>2021-09-01T11:32:57Z</time>
      </trkpt>
      <trkpt lat="44.14623" lon="5.67771">
        <ele>1520.6</ele>
        <time>2021-09-01T11:32:58Z</time>
      </trkpt>
      <trkpt lat="44.1463" lon="5.6776">
        <ele>1520.6</ele>
        <time>2021-09-01T11:33:00Z</time>
      </trkpt>
      <trkpt lat="44.14633" lon="5.67754">
        <ele>1520.6</ele>
        <time>2021-09-01T11:33:01Z</time>
      </trkpt>
      <trkpt lat="44.14641" lon="5.67736">
        <ele>1520.6</ele>
        <time>2021-09-01T11:33:04Z</time>
      </trkpt>
      <trkpt lat="44.1465" lon="5.67725">
        <ele>1520.6</ele>
        <time>2021-09-01T11:33:06Z</time>
      </trkpt>
      <trkpt lat="44.14655" lon="5.67718">
        <ele>1520.6</ele>
        <time>2021-09-01T11:33:07Z</time>
      </trkpt>
      <trkpt lat="44.14661" lon="5.67707">
        <ele>1521.2</ele>
        <time>2021-09-01T11:33:09Z</time>
      </trkpt>
      <trkpt lat="44.14664" lon="5.67701">
        <ele>1520.6</ele>
        <time>2021-09-01T11:33:10Z</time>
      </trkpt>
      <trkpt lat="44.14669" lon="5.67684">
        <ele>1520</ele>
        <time>2021-09-01T11:33:13Z</time>
      </trkpt>
      <trkpt lat="44.1467" lon="5.67678">
        <ele>1519.8</ele>
        <time>2021-09-01T11:33:14Z</time>
      </trkpt>
      <trkpt lat="44.1467" lon="5.67672">
        <ele>1519.6</ele>
        <time>2021-09-01T11:33:15Z</time>
      </trkpt>
      <trkpt lat="44.14668" lon="5.67653">
        <ele>1519</ele>
        <time>2021-09-01T11:33:18Z</time>
      </trkpt>
      <trkpt lat="44.14669" lon="5.67643">
        <ele>1518.6</ele>
        <time>2021-09-01T11:33:20Z</time>
      </trkpt>
      <trkpt lat="44.1467" lon="5.67637">
        <ele>1518.4</ele>
        <time>2021-09-01T11:33:21Z</time>
      </trkpt>
      <trkpt lat="44.14672" lon="5.67631">
        <ele>1518.2</ele>
        <time>2021-09-01T11:33:22Z</time>
      </trkpt>
      <trkpt lat="44.14676" lon="5.67618">
        <ele>1517.6</ele>
        <time>2021-09-01T11:33:24Z</time>
      </trkpt>
      <trkpt lat="44.14679" lon="5.67614">
        <ele>1517.2</ele>
        <time>2021-09-01T11:33:25Z</time>
      </trkpt>
      <trkpt lat="44.14683" lon="5.67605">
        <ele>1516.6</ele>
        <time>2021-09-01T11:33:27Z</time>
      </trkpt>
      <trkpt lat="44.14682" lon="5.67602">
        <ele>1516.4</ele>
        <time>2021-09-01T11:33:28Z</time>
      </trkpt>
      <trkpt lat="44.14675" lon="5.67589">
        <ele>1515.2</ele>
        <time>2021-09-01T11:33:32Z</time>
      </trkpt>
      <trkpt lat="44.14675" lon="5.67587">
        <ele>1514.8</ele>
        <time>2021-09-01T11:33:33Z</time>
      </trkpt>
      <trkpt lat="44.14675" lon="5.67584">
        <ele>1514.4</ele>
        <time>2021-09-01T11:33:34Z</time>
      </trkpt>
      <trkpt lat="44.14681" lon="5.67574">
        <ele>1513.6</ele>
        <time>2021-09-01T11:33:37Z</time>
      </trkpt>
      <trkpt lat="44.14688" lon="5.67564">
        <ele>1512.8</ele>
        <time>2021-09-01T11:33:39Z</time>
      </trkpt>
      <trkpt lat="44.14696" lon="5.67557">
        <ele>1512.2</ele>
        <time>2021-09-01T11:33:41Z</time>
      </trkpt>
      <trkpt lat="44.14704" lon="5.67551">
        <ele>1511.4</ele>
        <time>2021-09-01T11:33:43Z</time>
      </trkpt>
      <trkpt lat="44.14709" lon="5.67546">
        <ele>1510.6</ele>
        <time>2021-09-01T11:33:45Z</time>
      </trkpt>
      <trkpt lat="44.1471" lon="5.67523">
        <ele>1509</ele>
        <time>2021-09-01T11:33:49Z</time>
      </trkpt>
      <trkpt lat="44.14708" lon="5.67517">
        <ele>1508.6</ele>
        <time>2021-09-01T11:33:50Z</time>
      </trkpt>
      <trkpt lat="44.14705" lon="5.67504">
        <ele>1507.4</ele>
        <time>2021-09-01T11:33:52Z</time>
      </trkpt>
      <trkpt lat="44.14703" lon="5.67494">
        <ele>1506.2</ele>
        <time>2021-09-01T11:33:54Z</time>
      </trkpt>
      <trkpt lat="44.14705" lon="5.67486">
        <ele>1505.6</ele>
        <time>2021-09-01T11:33:55Z</time>
      </trkpt>
      <trkpt lat="44.14707" lon="5.67473">
        <ele>1504.2</ele>
        <time>2021-09-01T11:33:57Z</time>
      </trkpt>
      <trkpt lat="44.14706" lon="5.67462">
        <ele>1502.6</ele>
        <time>2021-09-01T11:33:59Z</time>
      </trkpt>
      <trkpt lat="44.14705" lon="5.67457">
        <ele>1502</ele>
        <time>2021-09-01T11:34:00Z</time>
      </trkpt>
      <trkpt lat="44.14698" lon="5.67452">
        <ele>1500.6</ele>
        <time>2021-09-01T11:34:02Z</time>
      </trkpt>
      <trkpt lat="44.14695" lon="5.67447">
        <ele>1499.2</ele>
        <time>2021-09-01T11:34:04Z</time>
      </trkpt>
      <trkpt lat="44.14696" lon="5.67445">
        <ele>1498.6</ele>
        <time>2021-09-01T11:34:05Z</time>
      </trkpt>
      <trkpt lat="44.14697" lon="5.67443">
        <ele>1498</ele>
        <time>2021-09-01T11:34:06Z</time>
      </trkpt>
      <trkpt lat="44.14699" lon="5.67435">
        <ele>1495.8</ele>
        <time>2021-09-01T11:34:09Z</time>
      </trkpt>
      <trkpt lat="44.14703" lon="5.67425">
        <ele>1494.4</ele>
        <time>2021-09-01T11:34:11Z</time>
      </trkpt>
      <trkpt lat="44.14706" lon="5.67413">
        <ele>1493</ele>
        <time>2021-09-01T11:34:13Z</time>
      </trkpt>
      <trkpt lat="44.14707" lon="5.67401">
        <ele>1491.4</ele>
        <time>2021-09-01T11:34:15Z</time>
      </trkpt>
      <trkpt lat="44.14707" lon="5.67394">
        <ele>1490.6</ele>
        <time>2021-09-01T11:34:16Z</time>
      </trkpt>
      <trkpt lat="44.14709" lon="5.67381">
        <ele>1489</ele>
        <time>2021-09-01T11:34:18Z</time>
      </trkpt>
      <trkpt lat="44.14712" lon="5.67368">
        <ele>1487.2</ele>
        <time>2021-09-01T11:34:20Z</time>
      </trkpt>
      <trkpt lat="44.14713" lon="5.67352">
        <ele>1485.2</ele>
        <time>2021-09-01T11:34:22Z</time>
      </trkpt>
      <trkpt lat="44.14717" lon="5.67334">
        <ele>1482</ele>
        <time>2021-09-01T11:34:25Z</time>
      </trkpt>
      <trkpt lat="44.14721" lon="5.67323">
        <ele>1480.2</ele>
        <time>2021-09-01T11:34:27Z</time>
      </trkpt>
      <trkpt lat="44.14728" lon="5.6731">
        <ele>1478.2</ele>
        <time>2021-09-01T11:34:29Z</time>
      </trkpt>
      <trkpt lat="44.14736" lon="5.67296">
        <ele>1476</ele>
        <time>2021-09-01T11:34:31Z</time>
      </trkpt>
      <trkpt lat="44.14744" lon="5.67282">
        <ele>1474</ele>
        <time>2021-09-01T11:34:33Z</time>
      </trkpt>
      <trkpt lat="44.14747" lon="5.67276">
        <ele>1473</ele>
        <time>2021-09-01T11:34:34Z</time>
      </trkpt>
      <trkpt lat="44.14752" lon="5.67262">
        <ele>1471</ele>
        <time>2021-09-01T11:34:36Z</time>
      </trkpt>
      <trkpt lat="44.14756" lon="5.67254">
        <ele>1469.8</ele>
        <time>2021-09-01T11:34:37Z</time>
      </trkpt>
      <trkpt lat="44.14764" lon="5.67237">
        <ele>1467.8</ele>
        <time>2021-09-01T11:34:39Z</time>
      </trkpt>
      <trkpt lat="44.14769" lon="5.67229">
        <ele>1466.8</ele>
        <time>2021-09-01T11:34:40Z</time>
      </trkpt>
      <trkpt lat="44.14775" lon="5.67222">
        <ele>1465.6</ele>
        <time>2021-09-01T11:34:41Z</time>
      </trkpt>
      <trkpt lat="44.14786" lon="5.67208">
        <ele>1463.6</ele>
        <time>2021-09-01T11:34:43Z</time>
      </trkpt>
      <trkpt lat="44.14792" lon="5.67198">
        <ele>1461.8</ele>
        <time>2021-09-01T11:34:45Z</time>
      </trkpt>
      <trkpt lat="44.14792" lon="5.67196">
        <ele>1459</ele>
        <time>2021-09-01T11:34:48Z</time>
      </trkpt>
      <trkpt lat="44.14792" lon="5.67196">
        <ele>1448.4</ele>
        <time>2021-09-01T11:35:03Z</time>
      </trkpt>
      <trkpt lat="44.14792" lon="5.67196">
        <ele>1439</ele>
        <time>2021-09-01T11:35:19Z</time>
      </trkpt>
      <trkpt lat="44.14793" lon="5.67188">
        <ele>1436.2</ele>
        <time>2021-09-01T11:35:23Z</time>
      </trkpt>
      <trkpt lat="44.14797" lon="5.67166">
        <ele>1433.6</ele>
        <time>2021-09-01T11:35:27Z</time>
      </trkpt>
      <trkpt lat="44.148" lon="5.67154">
        <ele>1432.6</ele>
        <time>2021-09-01T11:35:29Z</time>
      </trkpt>
      <trkpt lat="44.14804" lon="5.67146">
        <ele>1431.4</ele>
        <time>2021-09-01T11:35:31Z</time>
      </trkpt>
      <trkpt lat="44.14808" lon="5.67132">
        <ele>1429.8</ele>
        <time>2021-09-01T11:35:34Z</time>
      </trkpt>
      <trkpt lat="44.14808" lon="5.67128">
        <ele>1429.4</ele>
        <time>2021-09-01T11:35:35Z</time>
      </trkpt>
      <trkpt lat="44.14807" lon="5.67117">
        <ele>1427.4</ele>
        <time>2021-09-01T11:35:38Z</time>
      </trkpt>
      <trkpt lat="44.14802" lon="5.67103">
        <ele>1426</ele>
        <time>2021-09-01T11:35:41Z</time>
      </trkpt>
      <trkpt lat="44.148" lon="5.67097">
        <ele>1425.4</ele>
        <time>2021-09-01T11:35:42Z</time>
      </trkpt>
      <trkpt lat="44.14796" lon="5.67083">
        <ele>1424.4</ele>
        <time>2021-09-01T11:35:44Z</time>
      </trkpt>
      <trkpt lat="44.14794" lon="5.67068">
        <ele>1423.4</ele>
        <time>2021-09-01T11:35:46Z</time>
      </trkpt>
      <trkpt lat="44.1479" lon="5.67045">
        <ele>1422</ele>
        <time>2021-09-01T11:35:49Z</time>
      </trkpt>
      <trkpt lat="44.14789" lon="5.6703">
        <ele>1421</ele>
        <time>2021-09-01T11:35:51Z</time>
      </trkpt>
      <trkpt lat="44.14789" lon="5.67023">
        <ele>1420.4</ele>
        <time>2021-09-01T11:35:52Z</time>
      </trkpt>
      <trkpt lat="44.14792" lon="5.67012">
        <ele>1419.6</ele>
        <time>2021-09-01T11:35:54Z</time>
      </trkpt>
      <trkpt lat="44.14798" lon="5.6699">
        <ele>1417.6</ele>
        <time>2021-09-01T11:35:59Z</time>
      </trkpt>
      <trkpt lat="44.14798" lon="5.66985">
        <ele>1417.2</ele>
        <time>2021-09-01T11:36:00Z</time>
      </trkpt>
      <trkpt lat="44.14801" lon="5.66974">
        <ele>1416.6</ele>
        <time>2021-09-01T11:36:02Z</time>
      </trkpt>
      <trkpt lat="44.14806" lon="5.66957">
        <ele>1415.6</ele>
        <time>2021-09-01T11:36:05Z</time>
      </trkpt>
      <trkpt lat="44.14811" lon="5.66939">
        <ele>1414.4</ele>
        <time>2021-09-01T11:36:08Z</time>
      </trkpt>
      <trkpt lat="44.14816" lon="5.66926">
        <ele>1413.6</ele>
        <time>2021-09-01T11:36:10Z</time>
      </trkpt>
      <trkpt lat="44.14821" lon="5.66913">
        <ele>1413</ele>
        <time>2021-09-01T11:36:12Z</time>
      </trkpt>
      <trkpt lat="44.14826" lon="5.66888">
        <ele>1411.8</ele>
        <time>2021-09-01T11:36:15Z</time>
      </trkpt>
      <trkpt lat="44.14829" lon="5.6688">
        <ele>1411.6</ele>
        <time>2021-09-01T11:36:16Z</time>
      </trkpt>
      <trkpt lat="44.14836" lon="5.66866">
        <ele>1410.8</ele>
        <time>2021-09-01T11:36:18Z</time>
      </trkpt>
      <trkpt lat="44.1484" lon="5.66858">
        <ele>1410.4</ele>
        <time>2021-09-01T11:36:19Z</time>
      </trkpt>
      <trkpt lat="44.14846" lon="5.66838">
        <ele>1409.6</ele>
        <time>2021-09-01T11:36:21Z</time>
      </trkpt>
      <trkpt lat="44.14855" lon="5.66814">
        <ele>1408.2</ele>
        <time>2021-09-01T11:36:24Z</time>
      </trkpt>
      <trkpt lat="44.1486" lon="5.66783">
        <ele>1405.8</ele>
        <time>2021-09-01T11:36:28Z</time>
      </trkpt>
      <trkpt lat="44.14859" lon="5.66749">
        <ele>1403.6</ele>
        <time>2021-09-01T11:36:31Z</time>
      </trkpt>
      <trkpt lat="44.1486" lon="5.66721">
        <ele>1401.8</ele>
        <time>2021-09-01T11:36:33Z</time>
      </trkpt>
      <trkpt lat="44.1486" lon="5.66709">
        <ele>1401</ele>
        <time>2021-09-01T11:36:34Z</time>
      </trkpt>
      <trkpt lat="44.1486" lon="5.66697">
        <ele>1400</ele>
        <time>2021-09-01T11:36:35Z</time>
      </trkpt>
      <trkpt lat="44.14857" lon="5.66677">
        <ele>1398.2</ele>
        <time>2021-09-01T11:36:37Z</time>
      </trkpt>
      <trkpt lat="44.14851" lon="5.66656">
        <ele>1396.4</ele>
        <time>2021-09-01T11:36:39Z</time>
      </trkpt>
      <trkpt lat="44.14843" lon="5.66637">
        <ele>1394.4</ele>
        <time>2021-09-01T11:36:41Z</time>
      </trkpt>
      <trkpt lat="44.1484" lon="5.66626">
        <ele>1393.2</ele>
        <time>2021-09-01T11:36:42Z</time>
      </trkpt>
      <trkpt lat="44.14833" lon="5.66602">
        <ele>1391.2</ele>
        <time>2021-09-01T11:36:44Z</time>
      </trkpt>
      <trkpt lat="44.14828" lon="5.66589">
        <ele>1390.4</ele>
        <time>2021-09-01T11:36:45Z</time>
      </trkpt>
      <trkpt lat="44.14821" lon="5.66566">
        <ele>1388.4</ele>
        <time>2021-09-01T11:36:47Z</time>
      </trkpt>
      <trkpt lat="44.14817" lon="5.66542">
        <ele>1386.6</ele>
        <time>2021-09-01T11:36:49Z</time>
      </trkpt>
      <trkpt lat="44.1481" lon="5.66497">
        <ele>1382.8</ele>
        <time>2021-09-01T11:36:53Z</time>
      </trkpt>
      <trkpt lat="44.1481" lon="5.66487">
        <ele>1382</ele>
        <time>2021-09-01T11:36:54Z</time>
      </trkpt>
      <trkpt lat="44.14809" lon="5.66453">
        <ele>1379.2</ele>
        <time>2021-09-01T11:36:57Z</time>
      </trkpt>
      <trkpt lat="44.14807" lon="5.66392">
        <ele>1374.4</ele>
        <time>2021-09-01T11:37:02Z</time>
      </trkpt>
      <trkpt lat="44.1481" lon="5.66341">
        <ele>1370.2</ele>
        <time>2021-09-01T11:37:06Z</time>
      </trkpt>
      <trkpt lat="44.14812" lon="5.66309">
        <ele>1367</ele>
        <time>2021-09-01T11:37:09Z</time>
      </trkpt>
      <trkpt lat="44.14809" lon="5.66291">
        <ele>1365</ele>
        <time>2021-09-01T11:37:11Z</time>
      </trkpt>
      <trkpt lat="44.14806" lon="5.66281">
        <ele>1364</ele>
        <time>2021-09-01T11:37:12Z</time>
      </trkpt>
      <trkpt lat="44.14803" lon="5.66271">
        <ele>1363</ele>
        <time>2021-09-01T11:37:13Z</time>
      </trkpt>
      <trkpt lat="44.148" lon="5.66249">
        <ele>1361</ele>
        <time>2021-09-01T11:37:15Z</time>
      </trkpt>
      <trkpt lat="44.14799" lon="5.66238">
        <ele>1360</ele>
        <time>2021-09-01T11:37:16Z</time>
      </trkpt>
      <trkpt lat="44.14799" lon="5.66218">
        <ele>1358</ele>
        <time>2021-09-01T11:37:18Z</time>
      </trkpt>
      <trkpt lat="44.14802" lon="5.66198">
        <ele>1356.4</ele>
        <time>2021-09-01T11:37:20Z</time>
      </trkpt>
      <trkpt lat="44.14803" lon="5.66189">
        <ele>1355.4</ele>
        <time>2021-09-01T11:37:21Z</time>
      </trkpt>
      <trkpt lat="44.14802" lon="5.66174">
        <ele>1353.8</ele>
        <time>2021-09-01T11:37:23Z</time>
      </trkpt>
      <trkpt lat="44.14797" lon="5.66166">
        <ele>1351.4</ele>
        <time>2021-09-01T11:37:26Z</time>
      </trkpt>
      <trkpt lat="44.14796" lon="5.66166">
        <ele>1348.6</ele>
        <time>2021-09-01T11:37:30Z</time>
      </trkpt>
      <trkpt lat="44.14796" lon="5.66166">
        <ele>1340</ele>
        <time>2021-09-01T11:37:43Z</time>
      </trkpt>
      <trkpt lat="44.14796" lon="5.66166">
        <ele>1332.8</ele>
        <time>2021-09-01T11:37:56Z</time>
      </trkpt>
      <trkpt lat="44.14795" lon="5.66166">
        <ele>1326</ele>
        <time>2021-09-01T11:38:13Z</time>
      </trkpt>
      <trkpt lat="44.14783" lon="5.6616">
        <ele>1324.2</ele>
        <time>2021-09-01T11:38:18Z</time>
      </trkpt>
      <trkpt lat="44.14781" lon="5.6616">
        <ele>1323.2</ele>
        <time>2021-09-01T11:38:21Z</time>
      </trkpt>
      <trkpt lat="44.14781" lon="5.6616">
        <ele>1319</ele>
        <time>2021-09-01T11:38:35Z</time>
      </trkpt>
      <trkpt lat="44.14781" lon="5.6616">
        <ele>1315.6</ele>
        <time>2021-09-01T11:38:49Z</time>
      </trkpt>
      <trkpt lat="44.14781" lon="5.6616">
        <ele>1311.2</ele>
        <time>2021-09-01T11:39:13Z</time>
      </trkpt>
      <trkpt lat="44.14781" lon="5.6616">
        <ele>1308.6</ele>
        <time>2021-09-01T11:39:32Z</time>
      </trkpt>
      <trkpt lat="44.14779" lon="5.66161">
        <ele>1308.2</ele>
        <time>2021-09-01T11:39:36Z</time>
      </trkpt>
      <trkpt lat="44.14775" lon="5.66163">
        <ele>1308</ele>
        <time>2021-09-01T11:39:38Z</time>
      </trkpt>
      <trkpt lat="44.14768" lon="5.66162">
        <ele>1307.8</ele>
        <time>2021-09-01T11:39:40Z</time>
      </trkpt>
      <trkpt lat="44.14754" lon="5.66161">
        <ele>1307.4</ele>
        <time>2021-09-01T11:39:43Z</time>
      </trkpt>
      <trkpt lat="44.14737" lon="5.66162">
        <ele>1306.8</ele>
        <time>2021-09-01T11:39:46Z</time>
      </trkpt>
      <trkpt lat="44.14724" lon="5.66164">
        <ele>1306.4</ele>
        <time>2021-09-01T11:39:48Z</time>
      </trkpt>
      <trkpt lat="44.14712" lon="5.66168">
        <ele>1306</ele>
        <time>2021-09-01T11:39:50Z</time>
      </trkpt>
      <trkpt lat="44.14691" lon="5.66169">
        <ele>1305</ele>
        <time>2021-09-01T11:39:53Z</time>
      </trkpt>
      <trkpt lat="44.14671" lon="5.66174">
        <ele>1304</ele>
        <time>2021-09-01T11:39:56Z</time>
      </trkpt>
      <trkpt lat="44.14657" lon="5.66179">
        <ele>1303.4</ele>
        <time>2021-09-01T11:39:58Z</time>
      </trkpt>
      <trkpt lat="44.14622" lon="5.66188">
        <ele>1301.6</ele>
        <time>2021-09-01T11:40:03Z</time>
      </trkpt>
      <trkpt lat="44.14578" lon="5.66197">
        <ele>1299.4</ele>
        <time>2021-09-01T11:40:08Z</time>
      </trkpt>
      <trkpt lat="44.1457" lon="5.66199">
        <ele>1298.8</ele>
        <time>2021-09-01T11:40:09Z</time>
      </trkpt>
      <trkpt lat="44.14555" lon="5.66197">
        <ele>1297.8</ele>
        <time>2021-09-01T11:40:11Z</time>
      </trkpt>
      <trkpt lat="44.1452" lon="5.66185">
        <ele>1296</ele>
        <time>2021-09-01T11:40:15Z</time>
      </trkpt>
      <trkpt lat="44.14463" lon="5.6618">
        <ele>1293.2</ele>
        <time>2021-09-01T11:40:21Z</time>
      </trkpt>
      <trkpt lat="44.14433" lon="5.66186">
        <ele>1291.8</ele>
        <time>2021-09-01T11:40:24Z</time>
      </trkpt>
      <trkpt lat="44.14424" lon="5.66191">
        <ele>1291.4</ele>
        <time>2021-09-01T11:40:25Z</time>
      </trkpt>
      <trkpt lat="44.1439" lon="5.66205">
        <ele>1289.6</ele>
        <time>2021-09-01T11:40:29Z</time>
      </trkpt>
      <trkpt lat="44.14382" lon="5.66208">
        <ele>1289.2</ele>
        <time>2021-09-01T11:40:30Z</time>
      </trkpt>
      <trkpt lat="44.14355" lon="5.66212">
        <ele>1287.8</ele>
        <time>2021-09-01T11:40:33Z</time>
      </trkpt>
      <trkpt lat="44.14309" lon="5.66222">
        <ele>1285.2</ele>
        <time>2021-09-01T11:40:38Z</time>
      </trkpt>
      <trkpt lat="44.14271" lon="5.66227">
        <ele>1283</ele>
        <time>2021-09-01T11:40:42Z</time>
      </trkpt>
      <trkpt lat="44.14264" lon="5.66226">
        <ele>1282.4</ele>
        <time>2021-09-01T11:40:43Z</time>
      </trkpt>
      <trkpt lat="44.14243" lon="5.66217">
        <ele>1280.6</ele>
        <time>2021-09-01T11:40:46Z</time>
      </trkpt>
      <trkpt lat="44.14199" lon="5.66194">
        <ele>1277.6</ele>
        <time>2021-09-01T11:40:52Z</time>
      </trkpt>
      <trkpt lat="44.14174" lon="5.66189">
        <ele>1275.2</ele>
        <time>2021-09-01T11:40:56Z</time>
      </trkpt>
      <trkpt lat="44.14173" lon="5.66191">
        <ele>1274.8</ele>
        <time>2021-09-01T11:40:57Z</time>
      </trkpt>
      <trkpt lat="44.14173" lon="5.66195">
        <ele>1273.6</ele>
        <time>2021-09-01T11:40:59Z</time>
      </trkpt>
      <trkpt lat="44.14166" lon="5.66207">
        <ele>1271.4</ele>
        <time>2021-09-01T11:41:03Z</time>
      </trkpt>
      <trkpt lat="44.14155" lon="5.66226">
        <ele>1268.8</ele>
        <time>2021-09-01T11:41:08Z</time>
      </trkpt>
      <trkpt lat="44.14144" lon="5.66241">
        <ele>1266.6</ele>
        <time>2021-09-01T11:41:13Z</time>
      </trkpt>
      <trkpt lat="44.14141" lon="5.66244">
        <ele>1266</ele>
        <time>2021-09-01T11:41:14Z</time>
      </trkpt>
      <trkpt lat="44.1414" lon="5.66249">
        <ele>1265.2</ele>
        <time>2021-09-01T11:41:16Z</time>
      </trkpt>
      <trkpt lat="44.14142" lon="5.66254">
        <ele>1264.6</ele>
        <time>2021-09-01T11:41:18Z</time>
      </trkpt>
      <trkpt lat="44.14143" lon="5.66256">
        <ele>1264.2</ele>
        <time>2021-09-01T11:41:20Z</time>
      </trkpt>
      <trkpt lat="44.14143" lon="5.66256">
        <ele>1261.8</ele>
        <time>2021-09-01T11:41:27Z</time>
      </trkpt>
      <trkpt lat="44.14143" lon="5.66256">
        <ele>1257.2</ele>
        <time>2021-09-01T11:41:42Z</time>
      </trkpt>
      <trkpt lat="44.14144" lon="5.66256">
        <ele>1253.2</ele>
        <time>2021-09-01T11:42:00Z</time>
      </trkpt>
      <trkpt lat="44.14144" lon="5.66256">
        <ele>1249.6</ele>
        <time>2021-09-01T11:42:20Z</time>
      </trkpt>
      <trkpt lat="44.14144" lon="5.66256">
        <ele>1247.8</ele>
        <time>2021-09-01T11:42:35Z</time>
      </trkpt>
      <trkpt lat="44.14144" lon="5.66256">
        <ele>1246</ele>
        <time>2021-09-01T11:42:51Z</time>
      </trkpt>
      <trkpt lat="44.14144" lon="5.66255">
        <ele>1245.6</ele>
        <time>2021-09-01T11:42:56Z</time>
      </trkpt>
      <trkpt lat="44.14142" lon="5.66251">
        <ele>1245.4</ele>
        <time>2021-09-01T11:42:58Z</time>
      </trkpt>
      <trkpt lat="44.14137" lon="5.66245">
        <ele>1245.2</ele>
        <time>2021-09-01T11:43:00Z</time>
      </trkpt>
      <trkpt lat="44.14124" lon="5.66234">
        <ele>1244.8</ele>
        <time>2021-09-01T11:43:05Z</time>
      </trkpt>
      <trkpt lat="44.14111" lon="5.66224">
        <ele>1244.4</ele>
        <time>2021-09-01T11:43:09Z</time>
      </trkpt>
      <trkpt lat="44.14103" lon="5.66219">
        <ele>1244.2</ele>
        <time>2021-09-01T11:43:11Z</time>
      </trkpt>
      <trkpt lat="44.14089" lon="5.66211">
        <ele>1244</ele>
        <time>2021-09-01T11:43:14Z</time>
      </trkpt>
      <trkpt lat="44.14075" lon="5.66203">
        <ele>1243.8</ele>
        <time>2021-09-01T11:43:17Z</time>
      </trkpt>
      <trkpt lat="44.14066" lon="5.66195">
        <ele>1243.6</ele>
        <time>2021-09-01T11:43:19Z</time>
      </trkpt>
      <trkpt lat="44.14034" lon="5.66166">
        <ele>1242.8</ele>
        <time>2021-09-01T11:43:25Z</time>
      </trkpt>
      <trkpt lat="44.14017" lon="5.66154">
        <ele>1242.4</ele>
        <time>2021-09-01T11:43:28Z</time>
      </trkpt>
      <trkpt lat="44.14013" lon="5.66152">
        <ele>1242.2</ele>
        <time>2021-09-01T11:43:29Z</time>
      </trkpt>
      <trkpt lat="44.1401" lon="5.6615">
        <ele>1242.2</ele>
        <time>2021-09-01T11:43:32Z</time>
      </trkpt>
      <trkpt lat="44.14011" lon="5.6615">
        <ele>1241.4</ele>
        <time>2021-09-01T11:43:40Z</time>
      </trkpt>
      <trkpt lat="44.14011" lon="5.6615">
        <ele>1240.4</ele>
        <time>2021-09-01T11:43:57Z</time>
      </trkpt>
      <trkpt lat="44.14011" lon="5.6615">
        <ele>1239.8</ele>
        <time>2021-09-01T11:44:09Z</time>
      </trkpt>
      <trkpt lat="44.14011" lon="5.6615">
        <ele>1239.4</ele>
        <time>2021-09-01T11:44:15Z</time>
      </trkpt>
      <trkpt lat="44.14007" lon="5.66151">
        <ele>1239.2</ele>
        <time>2021-09-01T11:44:17Z</time>
      </trkpt>
      <trkpt lat="44.13995" lon="5.66145">
        <ele>1238.6</ele>
        <time>2021-09-01T11:44:22Z</time>
      </trkpt>
      <trkpt lat="44.13978" lon="5.66136">
        <ele>1238</ele>
        <time>2021-09-01T11:44:27Z</time>
      </trkpt>
      <trkpt lat="44.13967" lon="5.66132">
        <ele>1237.6</ele>
        <time>2021-09-01T11:44:30Z</time>
      </trkpt>
      <trkpt lat="44.13959" lon="5.66128">
        <ele>1237.4</ele>
        <time>2021-09-01T11:44:32Z</time>
      </trkpt>
      <trkpt lat="44.13945" lon="5.66125">
        <ele>1237</ele>
        <time>2021-09-01T11:44:36Z</time>
      </trkpt>
      <trkpt lat="44.13919" lon="5.66121">
        <ele>1236.4</ele>
        <time>2021-09-01T11:44:43Z</time>
      </trkpt>
      <trkpt lat="44.13884" lon="5.6612">
        <ele>1236</ele>
        <time>2021-09-01T11:44:52Z</time>
      </trkpt>
      <trkpt lat="44.13855" lon="5.66128">
        <ele>1236</ele>
        <time>2021-09-01T11:45:00Z</time>
      </trkpt>
      <trkpt lat="44.1383" lon="5.66136">
        <ele>1235.8</ele>
        <time>2021-09-01T11:45:07Z</time>
      </trkpt>
      <trkpt lat="44.13811" lon="5.66142">
        <ele>1235.8</ele>
        <time>2021-09-01T11:45:13Z</time>
      </trkpt>
      <trkpt lat="44.13795" lon="5.66144">
        <ele>1235.6</ele>
        <time>2021-09-01T11:45:19Z</time>
      </trkpt>
      <trkpt lat="44.1378" lon="5.6615">
        <ele>1235.6</ele>
        <time>2021-09-01T11:45:25Z</time>
      </trkpt>
      <trkpt lat="44.13761" lon="5.66155">
        <ele>1235.6</ele>
        <time>2021-09-01T11:45:31Z</time>
      </trkpt>
      <trkpt lat="44.13743" lon="5.66159">
        <ele>1235.8</ele>
        <time>2021-09-01T11:45:36Z</time>
      </trkpt>
      <trkpt lat="44.13732" lon="5.66161">
        <ele>1235.6</ele>
        <time>2021-09-01T11:45:39Z</time>
      </trkpt>
      <trkpt lat="44.13725" lon="5.6616">
        <ele>1235.8</ele>
        <time>2021-09-01T11:45:41Z</time>
      </trkpt>
      <trkpt lat="44.13718" lon="5.66159">
        <ele>1235.8</ele>
        <time>2021-09-01T11:45:43Z</time>
      </trkpt>
      <trkpt lat="44.13711" lon="5.66161">
        <ele>1235.6</ele>
        <time>2021-09-01T11:45:45Z</time>
      </trkpt>
      <trkpt lat="44.13688" lon="5.66158">
        <ele>1235.6</ele>
        <time>2021-09-01T11:45:51Z</time>
      </trkpt>
      <trkpt lat="44.13664" lon="5.66151">
        <ele>1235.8</ele>
        <time>2021-09-01T11:45:57Z</time>
      </trkpt>
      <trkpt lat="44.13638" lon="5.6614">
        <ele>1235.4</ele>
        <time>2021-09-01T11:46:03Z</time>
      </trkpt>
      <trkpt lat="44.13625" lon="5.66137">
        <ele>1235.4</ele>
        <time>2021-09-01T11:46:06Z</time>
      </trkpt>
      <trkpt lat="44.13621" lon="5.66136">
        <ele>1235.4</ele>
        <time>2021-09-01T11:46:07Z</time>
      </trkpt>
      <trkpt lat="44.13601" lon="5.66135">
        <ele>1235.4</ele>
        <time>2021-09-01T11:46:12Z</time>
      </trkpt>
      <trkpt lat="44.13579" lon="5.66135">
        <ele>1236</ele>
        <time>2021-09-01T11:46:18Z</time>
      </trkpt>
      <trkpt lat="44.13561" lon="5.66133">
        <ele>1236.6</ele>
        <time>2021-09-01T11:46:23Z</time>
      </trkpt>
      <trkpt lat="44.13533" lon="5.66129">
        <ele>1237.4</ele>
        <time>2021-09-01T11:46:31Z</time>
      </trkpt>
      <trkpt lat="44.13512" lon="5.66123">
        <ele>1238</ele>
        <time>2021-09-01T11:46:37Z</time>
      </trkpt>
      <trkpt lat="44.13491" lon="5.66119">
        <ele>1238.6</ele>
        <time>2021-09-01T11:46:43Z</time>
      </trkpt>
      <trkpt lat="44.13469" lon="5.66122">
        <ele>1239.4</ele>
        <time>2021-09-01T11:46:49Z</time>
      </trkpt>
      <trkpt lat="44.13453" lon="5.66115">
        <ele>1240</ele>
        <time>2021-09-01T11:46:54Z</time>
      </trkpt>
      <trkpt lat="44.13444" lon="5.66101">
        <ele>1240.4</ele>
        <time>2021-09-01T11:46:58Z</time>
      </trkpt>
      <trkpt lat="44.13443" lon="5.66078">
        <ele>1241</ele>
        <time>2021-09-01T11:47:03Z</time>
      </trkpt>
      <trkpt lat="44.13442" lon="5.66057">
        <ele>1242</ele>
        <time>2021-09-01T11:47:08Z</time>
      </trkpt>
      <trkpt lat="44.13437" lon="5.66036">
        <ele>1242.8</ele>
        <time>2021-09-01T11:47:13Z</time>
      </trkpt>
      <trkpt lat="44.13437" lon="5.6602">
        <ele>1243.6</ele>
        <time>2021-09-01T11:47:17Z</time>
      </trkpt>
      <trkpt lat="44.13432" lon="5.66007">
        <ele>1244.2</ele>
        <time>2021-09-01T11:47:22Z</time>
      </trkpt>
      <trkpt lat="44.13425" lon="5.65989">
        <ele>1245.2</ele>
        <time>2021-09-01T11:47:27Z</time>
      </trkpt>
      <trkpt lat="44.1342" lon="5.65978">
        <ele>1245.8</ele>
        <time>2021-09-01T11:47:30Z</time>
      </trkpt>
      <trkpt lat="44.13415" lon="5.65971">
        <ele>1246.2</ele>
        <time>2021-09-01T11:47:32Z</time>
      </trkpt>
      <trkpt lat="44.1341" lon="5.65967">
        <ele>1246.4</ele>
        <time>2021-09-01T11:47:34Z</time>
      </trkpt>
      <trkpt lat="44.13402" lon="5.65972">
        <ele>1246.8</ele>
        <time>2021-09-01T11:47:37Z</time>
      </trkpt>
      <trkpt lat="44.13397" lon="5.65973">
        <ele>1247</ele>
        <time>2021-09-01T11:47:38Z</time>
      </trkpt>
      <trkpt lat="44.13369" lon="5.65984">
        <ele>1246.8</ele>
        <time>2021-09-01T11:47:44Z</time>
      </trkpt>
      <trkpt lat="44.13341" lon="5.65995">
        <ele>1246.8</ele>
        <time>2021-09-01T11:47:50Z</time>
      </trkpt>
      <trkpt lat="44.13306" lon="5.66003">
        <ele>1247</ele>
        <time>2021-09-01T11:47:57Z</time>
      </trkpt>
      <trkpt lat="44.13283" lon="5.66006">
        <ele>1246.8</ele>
        <time>2021-09-01T11:48:02Z</time>
      </trkpt>
      <trkpt lat="44.13278" lon="5.66008">
        <ele>1247.4</ele>
        <time>2021-09-01T11:48:03Z</time>
      </trkpt>
      <trkpt lat="44.13268" lon="5.66011">
        <ele>1246.2</ele>
        <time>2021-09-01T11:48:05Z</time>
      </trkpt>
      <trkpt lat="44.13259" lon="5.66018">
        <ele>1246.6</ele>
        <time>2021-09-01T11:48:07Z</time>
      </trkpt>
      <trkpt lat="44.13254" lon="5.66023">
        <ele>1246.4</ele>
        <time>2021-09-01T11:48:08Z</time>
      </trkpt>
      <trkpt lat="44.13249" lon="5.66028">
        <ele>1246.2</ele>
        <time>2021-09-01T11:48:09Z</time>
      </trkpt>
      <trkpt lat="44.13237" lon="5.66049">
        <ele>1245.8</ele>
        <time>2021-09-01T11:48:12Z</time>
      </trkpt>
      <trkpt lat="44.13217" lon="5.66091">
        <ele>1245</ele>
        <time>2021-09-01T11:48:17Z</time>
      </trkpt>
      <trkpt lat="44.13204" lon="5.66105">
        <ele>1244.4</ele>
        <time>2021-09-01T11:48:19Z</time>
      </trkpt>
      <trkpt lat="44.13197" lon="5.66111">
        <ele>1244.2</ele>
        <time>2021-09-01T11:48:20Z</time>
      </trkpt>
      <trkpt lat="44.13158" lon="5.66138">
        <ele>1242.4</ele>
        <time>2021-09-01T11:48:25Z</time>
      </trkpt>
      <trkpt lat="44.13152" lon="5.66141">
        <ele>1242</ele>
        <time>2021-09-01T11:48:26Z</time>
      </trkpt>
      <trkpt lat="44.13146" lon="5.66142">
        <ele>1241.8</ele>
        <time>2021-09-01T11:48:27Z</time>
      </trkpt>
      <trkpt lat="44.13135" lon="5.66142">
        <ele>1241</ele>
        <time>2021-09-01T11:48:29Z</time>
      </trkpt>
      <trkpt lat="44.13121" lon="5.66132">
        <ele>1240</ele>
        <time>2021-09-01T11:48:32Z</time>
      </trkpt>
      <trkpt lat="44.13116" lon="5.66128">
        <ele>1239.6</ele>
        <time>2021-09-01T11:48:33Z</time>
      </trkpt>
      <trkpt lat="44.13111" lon="5.66123">
        <ele>1239.2</ele>
        <time>2021-09-01T11:48:34Z</time>
      </trkpt>
      <trkpt lat="44.13098" lon="5.66117">
        <ele>1238.4</ele>
        <time>2021-09-01T11:48:36Z</time>
      </trkpt>
      <trkpt lat="44.13091" lon="5.66113">
        <ele>1238</ele>
        <time>2021-09-01T11:48:37Z</time>
      </trkpt>
      <trkpt lat="44.13062" lon="5.66093">
        <ele>1236.2</ele>
        <time>2021-09-01T11:48:41Z</time>
      </trkpt>
      <trkpt lat="44.13026" lon="5.66064">
        <ele>1233.8</ele>
        <time>2021-09-01T11:48:46Z</time>
      </trkpt>
      <trkpt lat="44.13008" lon="5.66049">
        <ele>1232.4</ele>
        <time>2021-09-01T11:48:49Z</time>
      </trkpt>
      <trkpt lat="44.12997" lon="5.66036">
        <ele>1231.2</ele>
        <time>2021-09-01T11:48:51Z</time>
      </trkpt>
      <trkpt lat="44.12981" lon="5.66018">
        <ele>1229.4</ele>
        <time>2021-09-01T11:48:54Z</time>
      </trkpt>
      <trkpt lat="44.12975" lon="5.66014">
        <ele>1228.8</ele>
        <time>2021-09-01T11:48:55Z</time>
      </trkpt>
      <trkpt lat="44.12968" lon="5.66011">
        <ele>1228.2</ele>
        <time>2021-09-01T11:48:56Z</time>
      </trkpt>
      <trkpt lat="44.12945" lon="5.66007">
        <ele>1226.6</ele>
        <time>2021-09-01T11:48:59Z</time>
      </trkpt>
      <trkpt lat="44.12903" lon="5.6601">
        <ele>1223.6</ele>
        <time>2021-09-01T11:49:04Z</time>
      </trkpt>
      <trkpt lat="44.12852" lon="5.66025">
        <ele>1219.8</ele>
        <time>2021-09-01T11:49:10Z</time>
      </trkpt>
      <trkpt lat="44.12843" lon="5.6603">
        <ele>1219</ele>
        <time>2021-09-01T11:49:11Z</time>
      </trkpt>
      <trkpt lat="44.12819" lon="5.6605">
        <ele>1217</ele>
        <time>2021-09-01T11:49:14Z</time>
      </trkpt>
      <trkpt lat="44.128" lon="5.66067">
        <ele>1214.8</ele>
        <time>2021-09-01T11:49:17Z</time>
      </trkpt>
      <trkpt lat="44.12791" lon="5.66083">
        <ele>1213.4</ele>
        <time>2021-09-01T11:49:19Z</time>
      </trkpt>
      <trkpt lat="44.12788" lon="5.66092">
        <ele>1212.8</ele>
        <time>2021-09-01T11:49:20Z</time>
      </trkpt>
      <trkpt lat="44.12762" lon="5.66153">
        <ele>1208.4</ele>
        <time>2021-09-01T11:49:27Z</time>
      </trkpt>
      <trkpt lat="44.12748" lon="5.66179">
        <ele>1206.6</ele>
        <time>2021-09-01T11:49:30Z</time>
      </trkpt>
      <trkpt lat="44.1274" lon="5.66196">
        <ele>1205.6</ele>
        <time>2021-09-01T11:49:32Z</time>
      </trkpt>
      <trkpt lat="44.12712" lon="5.66249">
        <ele>1201.8</ele>
        <time>2021-09-01T11:49:39Z</time>
      </trkpt>
      <trkpt lat="44.12704" lon="5.66261">
        <ele>1200.8</ele>
        <time>2021-09-01T11:49:41Z</time>
      </trkpt>
      <trkpt lat="44.12694" lon="5.6627">
        <ele>1199.8</ele>
        <time>2021-09-01T11:49:43Z</time>
      </trkpt>
      <trkpt lat="44.1269" lon="5.66275">
        <ele>1199.4</ele>
        <time>2021-09-01T11:49:44Z</time>
      </trkpt>
      <trkpt lat="44.12653" lon="5.66311">
        <ele>1195.6</ele>
        <time>2021-09-01T11:49:51Z</time>
      </trkpt>
      <trkpt lat="44.12644" lon="5.66325">
        <ele>1194.6</ele>
        <time>2021-09-01T11:49:53Z</time>
      </trkpt>
      <trkpt lat="44.12638" lon="5.66343">
        <ele>1193.6</ele>
        <time>2021-09-01T11:49:55Z</time>
      </trkpt>
      <trkpt lat="44.12631" lon="5.6637">
        <ele>1192.2</ele>
        <time>2021-09-01T11:49:58Z</time>
      </trkpt>
      <trkpt lat="44.12628" lon="5.66392">
        <ele>1191</ele>
        <time>2021-09-01T11:50:00Z</time>
      </trkpt>
      <trkpt lat="44.12614" lon="5.66439">
        <ele>1188.6</ele>
        <time>2021-09-01T11:50:04Z</time>
      </trkpt>
      <trkpt lat="44.12586" lon="5.66495">
        <ele>1185.6</ele>
        <time>2021-09-01T11:50:09Z</time>
      </trkpt>
      <trkpt lat="44.12581" lon="5.66506">
        <ele>1185</ele>
        <time>2021-09-01T11:50:10Z</time>
      </trkpt>
      <trkpt lat="44.12575" lon="5.66526">
        <ele>1184</ele>
        <time>2021-09-01T11:50:12Z</time>
      </trkpt>
      <trkpt lat="44.12573" lon="5.66533">
        <ele>1183.4</ele>
        <time>2021-09-01T11:50:13Z</time>
      </trkpt>
      <trkpt lat="44.12567" lon="5.6654">
        <ele>1182.4</ele>
        <time>2021-09-01T11:50:15Z</time>
      </trkpt>
      <trkpt lat="44.12564" lon="5.6654">
        <ele>1182</ele>
        <time>2021-09-01T11:50:16Z</time>
      </trkpt>
      <trkpt lat="44.12558" lon="5.66539">
        <ele>1180.8</ele>
        <time>2021-09-01T11:50:18Z</time>
      </trkpt>
      <trkpt lat="44.12557" lon="5.66538">
        <ele>1179.2</ele>
        <time>2021-09-01T11:50:22Z</time>
      </trkpt>
      <trkpt lat="44.12557" lon="5.66538">
        <ele>1173.6</ele>
        <time>2021-09-01T11:50:37Z</time>
      </trkpt>
      <trkpt lat="44.12557" lon="5.66538">
        <ele>1168.6</ele>
        <time>2021-09-01T11:50:53Z</time>
      </trkpt>
      <trkpt lat="44.12557" lon="5.66538">
        <ele>1165.2</ele>
        <time>2021-09-01T11:51:06Z</time>
      </trkpt>
      <trkpt lat="44.12557" lon="5.66538">
        <ele>1162.2</ele>
        <time>2021-09-01T11:51:20Z</time>
      </trkpt>
      <trkpt lat="44.12557" lon="5.66538">
        <ele>1159.8</ele>
        <time>2021-09-01T11:51:34Z</time>
      </trkpt>
      <trkpt lat="44.12557" lon="5.66538">
        <ele>1157</ele>
        <time>2021-09-01T11:51:52Z</time>
      </trkpt>
      <trkpt lat="44.12557" lon="5.66538">
        <ele>1156.4</ele>
        <time>2021-09-01T11:51:57Z</time>
      </trkpt>
      <trkpt lat="44.12553" lon="5.6654">
        <ele>1156.4</ele>
        <time>2021-09-01T11:51:59Z</time>
      </trkpt>
      <trkpt lat="44.12552" lon="5.66543">
        <ele>1156.4</ele>
        <time>2021-09-01T11:52:00Z</time>
      </trkpt>
      <trkpt lat="44.12545" lon="5.66556">
        <ele>1156.6</ele>
        <time>2021-09-01T11:52:05Z</time>
      </trkpt>
      <trkpt lat="44.12536" lon="5.66572">
        <ele>1156.4</ele>
        <time>2021-09-01T11:52:10Z</time>
      </trkpt>
      <trkpt lat="44.12522" lon="5.66585">
        <ele>1156.2</ele>
        <time>2021-09-01T11:52:15Z</time>
      </trkpt>
      <trkpt lat="44.12513" lon="5.66596">
        <ele>1156.2</ele>
        <time>2021-09-01T11:52:19Z</time>
      </trkpt>
      <trkpt lat="44.12499" lon="5.66611">
        <ele>1156</ele>
        <time>2021-09-01T11:52:24Z</time>
      </trkpt>
      <trkpt lat="44.12486" lon="5.66638">
        <ele>1156.6</ele>
        <time>2021-09-01T11:52:31Z</time>
      </trkpt>
      <trkpt lat="44.12489" lon="5.6666">
        <ele>1156.8</ele>
        <time>2021-09-01T11:52:36Z</time>
      </trkpt>
      <trkpt lat="44.12495" lon="5.66675">
        <ele>1156.8</ele>
        <time>2021-09-01T11:52:39Z</time>
      </trkpt>
      <trkpt lat="44.12498" lon="5.66681">
        <ele>1156.8</ele>
        <time>2021-09-01T11:52:40Z</time>
      </trkpt>
      <trkpt lat="44.12501" lon="5.66688">
        <ele>1156.8</ele>
        <time>2021-09-01T11:52:41Z</time>
      </trkpt>
      <trkpt lat="44.12509" lon="5.66711">
        <ele>1156.6</ele>
        <time>2021-09-01T11:52:44Z</time>
      </trkpt>
      <trkpt lat="44.12513" lon="5.66735">
        <ele>1156.4</ele>
        <time>2021-09-01T11:52:47Z</time>
      </trkpt>
      <trkpt lat="44.12514" lon="5.66751">
        <ele>1156.4</ele>
        <time>2021-09-01T11:52:49Z</time>
      </trkpt>
      <trkpt lat="44.12516" lon="5.66775">
        <ele>1156</ele>
        <time>2021-09-01T11:52:52Z</time>
      </trkpt>
      <trkpt lat="44.12519" lon="5.6679">
        <ele>1155.8</ele>
        <time>2021-09-01T11:52:54Z</time>
      </trkpt>
      <trkpt lat="44.12523" lon="5.668">
        <ele>1150.6</ele>
        <time>2021-09-01T11:55:59Z</time>
      </trkpt>
      <trkpt lat="44.12512" lon="5.66808">
        <ele>1150.8</ele>
        <time>2021-09-01T11:56:04Z</time>
      </trkpt>
      <trkpt lat="44.12506" lon="5.66814">
        <ele>1151</ele>
        <time>2021-09-01T11:56:07Z</time>
      </trkpt>
      <trkpt lat="44.125" lon="5.66817">
        <ele>1151</ele>
        <time>2021-09-01T11:56:09Z</time>
      </trkpt>
      <trkpt lat="44.12481" lon="5.66835">
        <ele>1151.6</ele>
        <time>2021-09-01T11:56:16Z</time>
      </trkpt>
      <trkpt lat="44.12462" lon="5.66851">
        <ele>1152.2</ele>
        <time>2021-09-01T11:56:23Z</time>
      </trkpt>
      <trkpt lat="44.12455" lon="5.66858">
        <ele>1152.4</ele>
        <time>2021-09-01T11:56:26Z</time>
      </trkpt>
      <trkpt lat="44.12451" lon="5.66866">
        <ele>1152.6</ele>
        <time>2021-09-01T11:56:28Z</time>
      </trkpt>
      <trkpt lat="44.12445" lon="5.66888">
        <ele>1153.2</ele>
        <time>2021-09-01T11:56:33Z</time>
      </trkpt>
      <trkpt lat="44.1243" lon="5.66903">
        <ele>1153.4</ele>
        <time>2021-09-01T11:56:38Z</time>
      </trkpt>
      <trkpt lat="44.12422" lon="5.6691">
        <ele>1153.4</ele>
        <time>2021-09-01T11:56:40Z</time>
      </trkpt>
      <trkpt lat="44.12416" lon="5.66921">
        <ele>1153.4</ele>
        <time>2021-09-01T11:56:42Z</time>
      </trkpt>
      <trkpt lat="44.12405" lon="5.66942">
        <ele>1153.6</ele>
        <time>2021-09-01T11:56:46Z</time>
      </trkpt>
      <trkpt lat="44.12401" lon="5.66945">
        <ele>1153.6</ele>
        <time>2021-09-01T11:56:47Z</time>
      </trkpt>
      <trkpt lat="44.12375" lon="5.66957">
        <ele>1153.6</ele>
        <time>2021-09-01T11:56:52Z</time>
      </trkpt>
      <trkpt lat="44.12365" lon="5.66961">
        <ele>1153.6</ele>
        <time>2021-09-01T11:56:54Z</time>
      </trkpt>
      <trkpt lat="44.12355" lon="5.66964">
        <ele>1153.4</ele>
        <time>2021-09-01T11:56:56Z</time>
      </trkpt>
      <trkpt lat="44.12349" lon="5.66963">
        <ele>1153.4</ele>
        <time>2021-09-01T11:56:57Z</time>
      </trkpt>
      <trkpt lat="44.12343" lon="5.66963">
        <ele>1153.4</ele>
        <time>2021-09-01T11:56:58Z</time>
      </trkpt>
      <trkpt lat="44.12332" lon="5.66967">
        <ele>1152.8</ele>
        <time>2021-09-01T11:57:00Z</time>
      </trkpt>
      <trkpt lat="44.12326" lon="5.6697">
        <ele>1153</ele>
        <time>2021-09-01T11:57:01Z</time>
      </trkpt>
      <trkpt lat="44.12315" lon="5.6698">
        <ele>1152.6</ele>
        <time>2021-09-01T11:57:03Z</time>
      </trkpt>
      <trkpt lat="44.12301" lon="5.66987">
        <ele>1152.2</ele>
        <time>2021-09-01T11:57:05Z</time>
      </trkpt>
      <trkpt lat="44.12296" lon="5.6699">
        <ele>1152</ele>
        <time>2021-09-01T11:57:06Z</time>
      </trkpt>
      <trkpt lat="44.12286" lon="5.66995">
        <ele>1151.6</ele>
        <time>2021-09-01T11:57:08Z</time>
      </trkpt>
      <trkpt lat="44.12276" lon="5.66995">
        <ele>1151.2</ele>
        <time>2021-09-01T11:57:10Z</time>
      </trkpt>
      <trkpt lat="44.12266" lon="5.66997">
        <ele>1150.8</ele>
        <time>2021-09-01T11:57:12Z</time>
      </trkpt>
      <trkpt lat="44.12261" lon="5.67">
        <ele>1150.6</ele>
        <time>2021-09-01T11:57:13Z</time>
      </trkpt>
      <trkpt lat="44.1225" lon="5.67002">
        <ele>1150.4</ele>
        <time>2021-09-01T11:57:16Z</time>
      </trkpt>
      <trkpt lat="44.12239" lon="5.67001">
        <ele>1150.2</ele>
        <time>2021-09-01T11:57:20Z</time>
      </trkpt>
      <trkpt lat="44.12223" lon="5.67006">
        <ele>1150.2</ele>
        <time>2021-09-01T11:57:25Z</time>
      </trkpt>
      <trkpt lat="44.12207" lon="5.67005">
        <ele>1150.2</ele>
        <time>2021-09-01T11:57:30Z</time>
      </trkpt>
      <trkpt lat="44.12195" lon="5.67005">
        <ele>1150</ele>
        <time>2021-09-01T11:57:33Z</time>
      </trkpt>
      <trkpt lat="44.12187" lon="5.67006">
        <ele>1149.8</ele>
        <time>2021-09-01T11:57:35Z</time>
      </trkpt>
      <trkpt lat="44.12175" lon="5.6701">
        <ele>1149.4</ele>
        <time>2021-09-01T11:57:38Z</time>
      </trkpt>
      <trkpt lat="44.12167" lon="5.67011">
        <ele>1149.4</ele>
        <time>2021-09-01T11:57:40Z</time>
      </trkpt>
      <trkpt lat="44.12163" lon="5.67011">
        <ele>1149.4</ele>
        <time>2021-09-01T11:57:41Z</time>
      </trkpt>
      <trkpt lat="44.1215" lon="5.67014">
        <ele>1149</ele>
        <time>2021-09-01T11:57:44Z</time>
      </trkpt>
      <trkpt lat="44.12121" lon="5.67026">
        <ele>1148.4</ele>
        <time>2021-09-01T11:57:50Z</time>
      </trkpt>
      <trkpt lat="44.12115" lon="5.67028">
        <ele>1148.4</ele>
        <time>2021-09-01T11:57:51Z</time>
      </trkpt>
      <trkpt lat="44.12094" lon="5.67033">
        <ele>1147.8</ele>
        <time>2021-09-01T11:57:55Z</time>
      </trkpt>
      <trkpt lat="44.12085" lon="5.67034">
        <ele>1147.6</ele>
        <time>2021-09-01T11:57:57Z</time>
      </trkpt>
      <trkpt lat="44.1206" lon="5.67035">
        <ele>1147.2</ele>
        <time>2021-09-01T11:58:02Z</time>
      </trkpt>
      <trkpt lat="44.12049" lon="5.67038">
        <ele>1147</ele>
        <time>2021-09-01T11:58:04Z</time>
      </trkpt>
      <trkpt lat="44.12029" lon="5.6704">
        <ele>1146.4</ele>
        <time>2021-09-01T11:58:07Z</time>
      </trkpt>
      <trkpt lat="44.12005" lon="5.67041">
        <ele>1145.8</ele>
        <time>2021-09-01T11:58:11Z</time>
      </trkpt>
      <trkpt lat="44.11998" lon="5.67041">
        <ele>1145.6</ele>
        <time>2021-09-01T11:58:12Z</time>
      </trkpt>
      <trkpt lat="44.1196" lon="5.67036">
        <ele>1144.4</ele>
        <time>2021-09-01T11:58:18Z</time>
      </trkpt>
      <trkpt lat="44.11933" lon="5.67029">
        <ele>1143.6</ele>
        <time>2021-09-01T11:58:23Z</time>
      </trkpt>
      <trkpt lat="44.11928" lon="5.67027">
        <ele>1143</ele>
        <time>2021-09-01T11:58:26Z</time>
      </trkpt>
      <trkpt lat="44.11926" lon="5.67027">
        <ele>1141.6</ele>
        <time>2021-09-01T11:58:37Z</time>
      </trkpt>
      <trkpt lat="44.11913" lon="5.67024">
        <ele>1140.8</ele>
        <time>2021-09-01T11:58:41Z</time>
      </trkpt>
      <trkpt lat="44.11909" lon="5.67023">
        <ele>1140.6</ele>
        <time>2021-09-01T11:58:42Z</time>
      </trkpt>
      <trkpt lat="44.11899" lon="5.67022">
        <ele>1140.2</ele>
        <time>2021-09-01T11:58:44Z</time>
      </trkpt>
      <trkpt lat="44.11893" lon="5.6702">
        <ele>1140</ele>
        <time>2021-09-01T11:58:45Z</time>
      </trkpt>
      <trkpt lat="44.11864" lon="5.67014">
        <ele>1138.8</ele>
        <time>2021-09-01T11:58:49Z</time>
      </trkpt>
      <trkpt lat="44.11818" lon="5.67019">
        <ele>1136.8</ele>
        <time>2021-09-01T11:58:54Z</time>
      </trkpt>
      <trkpt lat="44.11794" lon="5.67027">
        <ele>1135.8</ele>
        <time>2021-09-01T11:58:57Z</time>
      </trkpt>
      <trkpt lat="44.11787" lon="5.6703">
        <ele>1135.6</ele>
        <time>2021-09-01T11:58:58Z</time>
      </trkpt>
      <trkpt lat="44.11739" lon="5.67061">
        <ele>1133.8</ele>
        <time>2021-09-01T11:59:05Z</time>
      </trkpt>
      <trkpt lat="44.11733" lon="5.67063">
        <ele>1133.4</ele>
        <time>2021-09-01T11:59:06Z</time>
      </trkpt>
      <trkpt lat="44.11712" lon="5.67069">
        <ele>1132.6</ele>
        <time>2021-09-01T11:59:09Z</time>
      </trkpt>
      <trkpt lat="44.11683" lon="5.6707">
        <ele>1131</ele>
        <time>2021-09-01T11:59:13Z</time>
      </trkpt>
      <trkpt lat="44.11669" lon="5.67068">
        <ele>1130.2</ele>
        <time>2021-09-01T11:59:15Z</time>
      </trkpt>
      <trkpt lat="44.11655" lon="5.67065">
        <ele>1129.2</ele>
        <time>2021-09-01T11:59:17Z</time>
      </trkpt>
      <trkpt lat="44.11618" lon="5.67056">
        <ele>1126</ele>
        <time>2021-09-01T11:59:23Z</time>
      </trkpt>
      <trkpt lat="44.11592" lon="5.67044">
        <ele>1123.6</ele>
        <time>2021-09-01T11:59:27Z</time>
      </trkpt>
      <trkpt lat="44.11586" lon="5.6704">
        <ele>1123</ele>
        <time>2021-09-01T11:59:28Z</time>
      </trkpt>
      <trkpt lat="44.11581" lon="5.67035">
        <ele>1122.2</ele>
        <time>2021-09-01T11:59:29Z</time>
      </trkpt>
      <trkpt lat="44.11572" lon="5.67023">
        <ele>1121</ele>
        <time>2021-09-01T11:59:31Z</time>
      </trkpt>
      <trkpt lat="44.11568" lon="5.67016">
        <ele>1120.2</ele>
        <time>2021-09-01T11:59:32Z</time>
      </trkpt>
      <trkpt lat="44.11565" lon="5.67009">
        <ele>1119.6</ele>
        <time>2021-09-01T11:59:33Z</time>
      </trkpt>
      <trkpt lat="44.1156" lon="5.66994">
        <ele>1118.2</ele>
        <time>2021-09-01T11:59:35Z</time>
      </trkpt>
      <trkpt lat="44.11546" lon="5.66973">
        <ele>1116.4</ele>
        <time>2021-09-01T11:59:38Z</time>
      </trkpt>
      <trkpt lat="44.1154" lon="5.66966">
        <ele>1115.8</ele>
        <time>2021-09-01T11:59:39Z</time>
      </trkpt>
      <trkpt lat="44.11535" lon="5.66959">
        <ele>1115.2</ele>
        <time>2021-09-01T11:59:40Z</time>
      </trkpt>
      <trkpt lat="44.11521" lon="5.66948">
        <ele>1114.2</ele>
        <time>2021-09-01T11:59:42Z</time>
      </trkpt>
      <trkpt lat="44.11514" lon="5.66944">
        <ele>1113.6</ele>
        <time>2021-09-01T11:59:43Z</time>
      </trkpt>
      <trkpt lat="44.11508" lon="5.66941">
        <ele>1113</ele>
        <time>2021-09-01T11:59:44Z</time>
      </trkpt>
      <trkpt lat="44.11499" lon="5.66938">
        <ele>1111.6</ele>
        <time>2021-09-01T11:59:46Z</time>
      </trkpt>
      <trkpt lat="44.11492" lon="5.6694">
        <ele>1109.8</ele>
        <time>2021-09-01T11:59:49Z</time>
      </trkpt>
      <trkpt lat="44.11492" lon="5.66941">
        <ele>1108</ele>
        <time>2021-09-01T11:59:53Z</time>
      </trkpt>
      <trkpt lat="44.1149" lon="5.66942">
        <ele>1107</ele>
        <time>2021-09-01T11:59:55Z</time>
      </trkpt>
      <trkpt lat="44.11487" lon="5.66944">
        <ele>1106.4</ele>
        <time>2021-09-01T11:59:56Z</time>
      </trkpt>
      <trkpt lat="44.11475" lon="5.66947">
        <ele>1104.6</ele>
        <time>2021-09-01T11:59:59Z</time>
      </trkpt>
      <trkpt lat="44.1147" lon="5.66947">
        <ele>1103.8</ele>
        <time>2021-09-01T12:00:00Z</time>
      </trkpt>
      <trkpt lat="44.1146" lon="5.66946">
        <ele>1102.6</ele>
        <time>2021-09-01T12:00:02Z</time>
      </trkpt>
      <trkpt lat="44.11444" lon="5.66941">
        <ele>1100.6</ele>
        <time>2021-09-01T12:00:05Z</time>
      </trkpt>
      <trkpt lat="44.11432" lon="5.66941">
        <ele>1099.4</ele>
        <time>2021-09-01T12:00:07Z</time>
      </trkpt>
      <trkpt lat="44.11419" lon="5.66946">
        <ele>1098</ele>
        <time>2021-09-01T12:00:09Z</time>
      </trkpt>
      <trkpt lat="44.11408" lon="5.66949">
        <ele>1096.8</ele>
        <time>2021-09-01T12:00:11Z</time>
      </trkpt>
      <trkpt lat="44.11395" lon="5.6695">
        <ele>1095.2</ele>
        <time>2021-09-01T12:00:13Z</time>
      </trkpt>
      <trkpt lat="44.11365" lon="5.66944">
        <ele>1092.4</ele>
        <time>2021-09-01T12:00:17Z</time>
      </trkpt>
      <trkpt lat="44.1135" lon="5.66951">
        <ele>1091</ele>
        <time>2021-09-01T12:00:19Z</time>
      </trkpt>
      <trkpt lat="44.11327" lon="5.66974">
        <ele>1087.6</ele>
        <time>2021-09-01T12:00:23Z</time>
      </trkpt>
      <trkpt lat="44.11317" lon="5.66983">
        <ele>1086</ele>
        <time>2021-09-01T12:00:25Z</time>
      </trkpt>
      <trkpt lat="44.11306" lon="5.66986">
        <ele>1084.4</ele>
        <time>2021-09-01T12:00:27Z</time>
      </trkpt>
      <trkpt lat="44.11272" lon="5.66983">
        <ele>1080.2</ele>
        <time>2021-09-01T12:00:32Z</time>
      </trkpt>
      <trkpt lat="44.11252" lon="5.66981">
        <ele>1077.6</ele>
        <time>2021-09-01T12:00:35Z</time>
      </trkpt>
      <trkpt lat="44.11247" lon="5.6698">
        <ele>1076.8</ele>
        <time>2021-09-01T12:00:36Z</time>
      </trkpt>
      <trkpt lat="44.11232" lon="5.66977">
        <ele>1073.6</ele>
        <time>2021-09-01T12:00:40Z</time>
      </trkpt>
      <trkpt lat="44.11223" lon="5.66974">
        <ele>1072</ele>
        <time>2021-09-01T12:00:42Z</time>
      </trkpt>
      <trkpt lat="44.11212" lon="5.66968">
        <ele>1070.4</ele>
        <time>2021-09-01T12:00:44Z</time>
      </trkpt>
      <trkpt lat="44.11207" lon="5.66964">
        <ele>1069.6</ele>
        <time>2021-09-01T12:00:45Z</time>
      </trkpt>
      <trkpt lat="44.11196" lon="5.66957">
        <ele>1067.8</ele>
        <time>2021-09-01T12:00:47Z</time>
      </trkpt>
      <trkpt lat="44.1119" lon="5.66955">
        <ele>1067</ele>
        <time>2021-09-01T12:00:48Z</time>
      </trkpt>
      <trkpt lat="44.11183" lon="5.66954">
        <ele>1066.2</ele>
        <time>2021-09-01T12:00:49Z</time>
      </trkpt>
      <trkpt lat="44.11158" lon="5.66954">
        <ele>1062.8</ele>
        <time>2021-09-01T12:00:53Z</time>
      </trkpt>
      <trkpt lat="44.11145" lon="5.66955">
        <ele>1061.2</ele>
        <time>2021-09-01T12:00:55Z</time>
      </trkpt>
      <trkpt lat="44.11134" lon="5.66958">
        <ele>1059.4</ele>
        <time>2021-09-01T12:00:57Z</time>
      </trkpt>
      <trkpt lat="44.11129" lon="5.66961">
        <ele>1058.6</ele>
        <time>2021-09-01T12:00:58Z</time>
      </trkpt>
      <trkpt lat="44.11125" lon="5.66967">
        <ele>1057.8</ele>
        <time>2021-09-01T12:00:59Z</time>
      </trkpt>
      <trkpt lat="44.11117" lon="5.66975">
        <ele>1056.2</ele>
        <time>2021-09-01T12:01:01Z</time>
      </trkpt>
      <trkpt lat="44.11109" lon="5.66978">
        <ele>1054.8</ele>
        <time>2021-09-01T12:01:03Z</time>
      </trkpt>
      <trkpt lat="44.11101" lon="5.66985">
        <ele>1053.4</ele>
        <time>2021-09-01T12:01:05Z</time>
      </trkpt>
      <trkpt lat="44.11095" lon="5.66995">
        <ele>1051.8</ele>
        <time>2021-09-01T12:01:07Z</time>
      </trkpt>
      <trkpt lat="44.11086" lon="5.67014">
        <ele>1049.8</ele>
        <time>2021-09-01T12:01:10Z</time>
      </trkpt>
      <trkpt lat="44.11069" lon="5.67046">
        <ele>1046.2</ele>
        <time>2021-09-01T12:01:15Z</time>
      </trkpt>
      <trkpt lat="44.11062" lon="5.67056">
        <ele>1045</ele>
        <time>2021-09-01T12:01:17Z</time>
      </trkpt>
      <trkpt lat="44.11054" lon="5.67063">
        <ele>1043.8</ele>
        <time>2021-09-01T12:01:19Z</time>
      </trkpt>
      <trkpt lat="44.1105" lon="5.67066">
        <ele>1043.2</ele>
        <time>2021-09-01T12:01:20Z</time>
      </trkpt>
      <trkpt lat="44.11041" lon="5.6707">
        <ele>1042</ele>
        <time>2021-09-01T12:01:22Z</time>
      </trkpt>
      <trkpt lat="44.1102" lon="5.67078">
        <ele>1039.6</ele>
        <time>2021-09-01T12:01:26Z</time>
      </trkpt>
      <trkpt lat="44.11009" lon="5.67077">
        <ele>1038.6</ele>
        <time>2021-09-01T12:01:28Z</time>
      </trkpt>
      <trkpt lat="44.10998" lon="5.67074">
        <ele>1037.6</ele>
        <time>2021-09-01T12:01:30Z</time>
      </trkpt>
      <trkpt lat="44.10993" lon="5.67071">
        <ele>1037</ele>
        <time>2021-09-01T12:01:31Z</time>
      </trkpt>
      <trkpt lat="44.10983" lon="5.67066">
        <ele>1036</ele>
        <time>2021-09-01T12:01:33Z</time>
      </trkpt>
      <trkpt lat="44.10939" lon="5.67049">
        <ele>1032.8</ele>
        <time>2021-09-01T12:01:40Z</time>
      </trkpt>
      <trkpt lat="44.10908" lon="5.67028">
        <ele>1030.2</ele>
        <time>2021-09-01T12:01:45Z</time>
      </trkpt>
      <trkpt lat="44.10887" lon="5.67007">
        <ele>1028.2</ele>
        <time>2021-09-01T12:01:49Z</time>
      </trkpt>
      <trkpt lat="44.10881" lon="5.67002">
        <ele>1027.8</ele>
        <time>2021-09-01T12:01:50Z</time>
      </trkpt>
      <trkpt lat="44.10835" lon="5.66963">
        <ele>1024.2</ele>
        <time>2021-09-01T12:01:58Z</time>
      </trkpt>
      <trkpt lat="44.10806" lon="5.66941">
        <ele>1022.2</ele>
        <time>2021-09-01T12:02:03Z</time>
      </trkpt>
      <trkpt lat="44.10795" lon="5.66934">
        <ele>1021.4</ele>
        <time>2021-09-01T12:02:05Z</time>
      </trkpt>
      <trkpt lat="44.10759" lon="5.66915">
        <ele>1019.4</ele>
        <time>2021-09-01T12:02:11Z</time>
      </trkpt>
      <trkpt lat="44.10726" lon="5.66909">
        <ele>1017.4</ele>
        <time>2021-09-01T12:02:16Z</time>
      </trkpt>
      <trkpt lat="44.10681" lon="5.66899">
        <ele>1014.8</ele>
        <time>2021-09-01T12:02:23Z</time>
      </trkpt>
      <trkpt lat="44.10641" lon="5.66891">
        <ele>1012.6</ele>
        <time>2021-09-01T12:02:29Z</time>
      </trkpt>
      <trkpt lat="44.10607" lon="5.66875">
        <ele>1011</ele>
        <time>2021-09-01T12:02:34Z</time>
      </trkpt>
      <trkpt lat="44.10576" lon="5.66854">
        <ele>1009.6</ele>
        <time>2021-09-01T12:02:39Z</time>
      </trkpt>
      <trkpt lat="44.10562" lon="5.66853">
        <ele>1009</ele>
        <time>2021-09-01T12:02:41Z</time>
      </trkpt>
      <trkpt lat="44.10555" lon="5.66855">
        <ele>1008.6</ele>
        <time>2021-09-01T12:02:42Z</time>
      </trkpt>
      <trkpt lat="44.10549" lon="5.66858">
        <ele>1008.2</ele>
        <time>2021-09-01T12:02:43Z</time>
      </trkpt>
      <trkpt lat="44.10531" lon="5.6687">
        <ele>1007.2</ele>
        <time>2021-09-01T12:02:46Z</time>
      </trkpt>
      <trkpt lat="44.10526" lon="5.66875">
        <ele>1007</ele>
        <time>2021-09-01T12:02:47Z</time>
      </trkpt>
      <trkpt lat="44.10501" lon="5.66894">
        <ele>1005.6</ele>
        <time>2021-09-01T12:02:51Z</time>
      </trkpt>
      <trkpt lat="44.10456" lon="5.66927">
        <ele>1003</ele>
        <time>2021-09-01T12:02:58Z</time>
      </trkpt>
      <trkpt lat="44.10422" lon="5.66955">
        <ele>1001</ele>
        <time>2021-09-01T12:03:03Z</time>
      </trkpt>
      <trkpt lat="44.10374" lon="5.66994">
        <ele>998.2</ele>
        <time>2021-09-01T12:03:10Z</time>
      </trkpt>
      <trkpt lat="44.10343" lon="5.67026">
        <ele>996</ele>
        <time>2021-09-01T12:03:15Z</time>
      </trkpt>
      <trkpt lat="44.10337" lon="5.67032">
        <ele>995.4</ele>
        <time>2021-09-01T12:03:16Z</time>
      </trkpt>
      <trkpt lat="44.10312" lon="5.67058">
        <ele>993.6</ele>
        <time>2021-09-01T12:03:20Z</time>
      </trkpt>
      <trkpt lat="44.10282" lon="5.67087">
        <ele>991.4</ele>
        <time>2021-09-01T12:03:25Z</time>
      </trkpt>
      <trkpt lat="44.1027" lon="5.67099">
        <ele>990.6</ele>
        <time>2021-09-01T12:03:27Z</time>
      </trkpt>
      <trkpt lat="44.10256" lon="5.67108">
        <ele>989.8</ele>
        <time>2021-09-01T12:03:29Z</time>
      </trkpt>
      <trkpt lat="44.10212" lon="5.67132">
        <ele>987.4</ele>
        <time>2021-09-01T12:03:35Z</time>
      </trkpt>
      <trkpt lat="44.10176" lon="5.67152">
        <ele>985.4</ele>
        <time>2021-09-01T12:03:40Z</time>
      </trkpt>
      <trkpt lat="44.10168" lon="5.67155">
        <ele>985</ele>
        <time>2021-09-01T12:03:41Z</time>
      </trkpt>
      <trkpt lat="44.10112" lon="5.67178">
        <ele>981.8</ele>
        <time>2021-09-01T12:03:49Z</time>
      </trkpt>
      <trkpt lat="44.10061" lon="5.67193">
        <ele>979.2</ele>
        <time>2021-09-01T12:03:56Z</time>
      </trkpt>
      <trkpt lat="44.10016" lon="5.67199">
        <ele>977</ele>
        <time>2021-09-01T12:04:02Z</time>
      </trkpt>
      <trkpt lat="44.09987" lon="5.67205">
        <ele>975.6</ele>
        <time>2021-09-01T12:04:06Z</time>
      </trkpt>
      <trkpt lat="44.09972" lon="5.67204">
        <ele>974.8</ele>
        <time>2021-09-01T12:04:08Z</time>
      </trkpt>
      <trkpt lat="44.09925" lon="5.67198">
        <ele>972.6</ele>
        <time>2021-09-01T12:04:14Z</time>
      </trkpt>
      <trkpt lat="44.09872" lon="5.6719">
        <ele>970.2</ele>
        <time>2021-09-01T12:04:21Z</time>
      </trkpt>
      <trkpt lat="44.09821" lon="5.67179">
        <ele>967.6</ele>
        <time>2021-09-01T12:04:28Z</time>
      </trkpt>
      <trkpt lat="44.09764" lon="5.67166">
        <ele>964.8</ele>
        <time>2021-09-01T12:04:36Z</time>
      </trkpt>
      <trkpt lat="44.09757" lon="5.67165">
        <ele>964.4</ele>
        <time>2021-09-01T12:04:37Z</time>
      </trkpt>
      <trkpt lat="44.0975" lon="5.67163">
        <ele>964</ele>
        <time>2021-09-01T12:04:38Z</time>
      </trkpt>
      <trkpt lat="44.09708" lon="5.67158">
        <ele>961.8</ele>
        <time>2021-09-01T12:04:44Z</time>
      </trkpt>
      <trkpt lat="44.09653" lon="5.67143">
        <ele>959</ele>
        <time>2021-09-01T12:04:52Z</time>
      </trkpt>
      <trkpt lat="44.09611" lon="5.67139">
        <ele>956.6</ele>
        <time>2021-09-01T12:04:58Z</time>
      </trkpt>
      <trkpt lat="44.09597" lon="5.67139">
        <ele>956</ele>
        <time>2021-09-01T12:05:00Z</time>
      </trkpt>
      <trkpt lat="44.09584" lon="5.6714">
        <ele>955.2</ele>
        <time>2021-09-01T12:05:02Z</time>
      </trkpt>
      <trkpt lat="44.09577" lon="5.67141">
        <ele>955</ele>
        <time>2021-09-01T12:05:03Z</time>
      </trkpt>
      <trkpt lat="44.09545" lon="5.67142">
        <ele>953.2</ele>
        <time>2021-09-01T12:05:08Z</time>
      </trkpt>
      <trkpt lat="44.09539" lon="5.67144">
        <ele>952.8</ele>
        <time>2021-09-01T12:05:09Z</time>
      </trkpt>
      <trkpt lat="44.09508" lon="5.6715">
        <ele>951.6</ele>
        <time>2021-09-01T12:05:14Z</time>
      </trkpt>
      <trkpt lat="44.09502" lon="5.6715">
        <ele>951.2</ele>
        <time>2021-09-01T12:05:15Z</time>
      </trkpt>
      <trkpt lat="44.09464" lon="5.67146">
        <ele>949.2</ele>
        <time>2021-09-01T12:05:21Z</time>
      </trkpt>
      <trkpt lat="44.09417" lon="5.67143">
        <ele>947.2</ele>
        <time>2021-09-01T12:05:28Z</time>
      </trkpt>
      <trkpt lat="44.09369" lon="5.67146">
        <ele>945.2</ele>
        <time>2021-09-01T12:05:35Z</time>
      </trkpt>
      <trkpt lat="44.09355" lon="5.67143">
        <ele>944.6</ele>
        <time>2021-09-01T12:05:37Z</time>
      </trkpt>
      <trkpt lat="44.09334" lon="5.67135">
        <ele>943.8</ele>
        <time>2021-09-01T12:05:40Z</time>
      </trkpt>
      <trkpt lat="44.09296" lon="5.67108">
        <ele>942</ele>
        <time>2021-09-01T12:05:46Z</time>
      </trkpt>
      <trkpt lat="44.09275" lon="5.67086">
        <ele>940.6</ele>
        <time>2021-09-01T12:05:50Z</time>
      </trkpt>
      <trkpt lat="44.09249" lon="5.6705">
        <ele>939.2</ele>
        <time>2021-09-01T12:05:55Z</time>
      </trkpt>
      <trkpt lat="44.09239" lon="5.67033">
        <ele>938.4</ele>
        <time>2021-09-01T12:05:58Z</time>
      </trkpt>
      <trkpt lat="44.0923" lon="5.67008">
        <ele>937.4</ele>
        <time>2021-09-01T12:06:02Z</time>
      </trkpt>
      <trkpt lat="44.09229" lon="5.67002">
        <ele>937</ele>
        <time>2021-09-01T12:06:03Z</time>
      </trkpt>
      <trkpt lat="44.09226" lon="5.66991">
        <ele>936.2</ele>
        <time>2021-09-01T12:06:06Z</time>
      </trkpt>
      <trkpt lat="44.09227" lon="5.66992">
        <ele>934.4</ele>
        <time>2021-09-01T12:06:13Z</time>
      </trkpt>
      <trkpt lat="44.09227" lon="5.66992">
        <ele>930.2</ele>
        <time>2021-09-01T12:06:34Z</time>
      </trkpt>
      <trkpt lat="44.09227" lon="5.66992">
        <ele>927.2</ele>
        <time>2021-09-01T12:06:55Z</time>
      </trkpt>
      <trkpt lat="44.09227" lon="5.66992">
        <ele>925</ele>
        <time>2021-09-01T12:07:16Z</time>
      </trkpt>
      <trkpt lat="44.09227" lon="5.66993">
        <ele>922.4</ele>
        <time>2021-09-01T12:07:46Z</time>
      </trkpt>
      <trkpt lat="44.09227" lon="5.66993">
        <ele>921.2</ele>
        <time>2021-09-01T12:08:03Z</time>
      </trkpt>
      <trkpt lat="44.09225" lon="5.66983">
        <ele>921</ele>
        <time>2021-09-01T12:08:07Z</time>
      </trkpt>
      <trkpt lat="44.0922" lon="5.6696">
        <ele>921</ele>
        <time>2021-09-01T12:08:11Z</time>
      </trkpt>
      <trkpt lat="44.09205" lon="5.66919">
        <ele>920.6</ele>
        <time>2021-09-01T12:08:17Z</time>
      </trkpt>
      <trkpt lat="44.09186" lon="5.66881">
        <ele>920.2</ele>
        <time>2021-09-01T12:08:22Z</time>
      </trkpt>
      <trkpt lat="44.09161" lon="5.66825">
        <ele>919.2</ele>
        <time>2021-09-01T12:08:29Z</time>
      </trkpt>
      <trkpt lat="44.09157" lon="5.66816">
        <ele>919.2</ele>
        <time>2021-09-01T12:08:30Z</time>
      </trkpt>
      <trkpt lat="44.0915" lon="5.66789">
        <ele>918.8</ele>
        <time>2021-09-01T12:08:33Z</time>
      </trkpt>
      <trkpt lat="44.09149" lon="5.6678">
        <ele>918.6</ele>
        <time>2021-09-01T12:08:34Z</time>
      </trkpt>
      <trkpt lat="44.09146" lon="5.66771">
        <ele>918.4</ele>
        <time>2021-09-01T12:08:35Z</time>
      </trkpt>
      <trkpt lat="44.09137" lon="5.66746">
        <ele>918</ele>
        <time>2021-09-01T12:08:38Z</time>
      </trkpt>
      <trkpt lat="44.09135" lon="5.66738">
        <ele>917.8</ele>
        <time>2021-09-01T12:08:39Z</time>
      </trkpt>
      <trkpt lat="44.09132" lon="5.66714">
        <ele>917.6</ele>
        <time>2021-09-01T12:08:42Z</time>
      </trkpt>
      <trkpt lat="44.09135" lon="5.66702">
        <ele>917.2</ele>
        <time>2021-09-01T12:08:44Z</time>
      </trkpt>
      <trkpt lat="44.09134" lon="5.66699">
        <ele>917</ele>
        <time>2021-09-01T12:08:45Z</time>
      </trkpt>
      <trkpt lat="44.09129" lon="5.66704">
        <ele>916.8</ele>
        <time>2021-09-01T12:08:48Z</time>
      </trkpt>
      <trkpt lat="44.09131" lon="5.6672">
        <ele>916.4</ele>
        <time>2021-09-01T12:08:52Z</time>
      </trkpt>
      <trkpt lat="44.09127" lon="5.66725">
        <ele>916.2</ele>
        <time>2021-09-01T12:08:54Z</time>
      </trkpt>
      <trkpt lat="44.09125" lon="5.66725">
        <ele>916.2</ele>
        <time>2021-09-01T12:08:55Z</time>
      </trkpt>
      <trkpt lat="44.09124" lon="5.66724">
        <ele>915.8</ele>
        <time>2021-09-01T12:08:59Z</time>
      </trkpt>
      <trkpt lat="44.09124" lon="5.66724">
        <ele>914.4</ele>
        <time>2021-09-01T12:09:16Z</time>
      </trkpt>
      <trkpt lat="44.09122" lon="5.66723">
        <ele>913.4</ele>
        <time>2021-09-01T12:09:28Z</time>
      </trkpt>
      <trkpt lat="44.09109" lon="5.66716">
        <ele>913</ele>
        <time>2021-09-01T12:09:32Z</time>
      </trkpt>
      <trkpt lat="44.09105" lon="5.66712">
        <ele>913</ele>
        <time>2021-09-01T12:09:33Z</time>
      </trkpt>
      <trkpt lat="44.09097" lon="5.66705">
        <ele>912.6</ele>
        <time>2021-09-01T12:09:35Z</time>
      </trkpt>
      <trkpt lat="44.09089" lon="5.667">
        <ele>912.4</ele>
        <time>2021-09-01T12:09:37Z</time>
      </trkpt>
      <trkpt lat="44.09085" lon="5.66697">
        <ele>912.4</ele>
        <time>2021-09-01T12:09:38Z</time>
      </trkpt>
      <trkpt lat="44.09068" lon="5.66686">
        <ele>911.6</ele>
        <time>2021-09-01T12:09:43Z</time>
      </trkpt>
      <trkpt lat="44.09055" lon="5.6667">
        <ele>911</ele>
        <time>2021-09-01T12:09:48Z</time>
      </trkpt>
      <trkpt lat="44.09052" lon="5.66661">
        <ele>910.8</ele>
        <time>2021-09-01T12:09:52Z</time>
      </trkpt>
      <trkpt lat="44.09052" lon="5.66661">
        <ele>909.8</ele>
        <time>2021-09-01T12:10:06Z</time>
      </trkpt>
      <trkpt lat="44.09052" lon="5.66661">
        <ele>909</ele>
        <time>2021-09-01T12:10:17Z</time>
      </trkpt>
      <trkpt lat="44.09049" lon="5.66657">
        <ele>908.8</ele>
        <time>2021-09-01T12:10:20Z</time>
      </trkpt>
      <trkpt lat="44.09039" lon="5.66645">
        <ele>908.4</ele>
        <time>2021-09-01T12:10:23Z</time>
      </trkpt>
      <trkpt lat="44.09035" lon="5.66642">
        <ele>908.4</ele>
        <time>2021-09-01T12:10:24Z</time>
      </trkpt>
      <trkpt lat="44.0903" lon="5.6664">
        <ele>908.2</ele>
        <time>2021-09-01T12:10:25Z</time>
      </trkpt>
      <trkpt lat="44.09021" lon="5.66637">
        <ele>908</ele>
        <time>2021-09-01T12:10:27Z</time>
      </trkpt>
      <trkpt lat="44.09016" lon="5.66636">
        <ele>908</ele>
        <time>2021-09-01T12:10:28Z</time>
      </trkpt>
      <trkpt lat="44.09012" lon="5.66635">
        <ele>907.8</ele>
        <time>2021-09-01T12:10:29Z</time>
      </trkpt>
      <trkpt lat="44.08992" lon="5.66631">
        <ele>907.2</ele>
        <time>2021-09-01T12:10:33Z</time>
      </trkpt>
      <trkpt lat="44.08986" lon="5.66629">
        <ele>907.2</ele>
        <time>2021-09-01T12:10:34Z</time>
      </trkpt>
      <trkpt lat="44.0897" lon="5.66624">
        <ele>906.8</ele>
        <time>2021-09-01T12:10:37Z</time>
      </trkpt>
      <trkpt lat="44.08965" lon="5.66624">
        <ele>906.6</ele>
        <time>2021-09-01T12:10:38Z</time>
      </trkpt>
      <trkpt lat="44.0894" lon="5.66623">
        <ele>906</ele>
        <time>2021-09-01T12:10:43Z</time>
      </trkpt>
      <trkpt lat="44.0893" lon="5.66623">
        <ele>905.6</ele>
        <time>2021-09-01T12:10:45Z</time>
      </trkpt>
      <trkpt lat="44.08909" lon="5.66623">
        <ele>905.2</ele>
        <time>2021-09-01T12:10:49Z</time>
      </trkpt>
      <trkpt lat="44.08898" lon="5.66622">
        <ele>904.8</ele>
        <time>2021-09-01T12:10:51Z</time>
      </trkpt>
      <trkpt lat="44.08882" lon="5.66623">
        <ele>904.2</ele>
        <time>2021-09-01T12:10:54Z</time>
      </trkpt>
      <trkpt lat="44.08863" lon="5.66631">
        <ele>903.4</ele>
        <time>2021-09-01T12:10:58Z</time>
      </trkpt>
      <trkpt lat="44.08859" lon="5.66631">
        <ele>903.2</ele>
        <time>2021-09-01T12:10:59Z</time>
      </trkpt>
      <trkpt lat="44.08854" lon="5.66631">
        <ele>903.2</ele>
        <time>2021-09-01T12:11:00Z</time>
      </trkpt>
      <trkpt lat="44.08846" lon="5.66626">
        <ele>902.8</ele>
        <time>2021-09-01T12:11:02Z</time>
      </trkpt>
      <trkpt lat="44.08841" lon="5.66622">
        <ele>902.8</ele>
        <time>2021-09-01T12:11:03Z</time>
      </trkpt>
      <trkpt lat="44.08837" lon="5.66618">
        <ele>902.6</ele>
        <time>2021-09-01T12:11:04Z</time>
      </trkpt>
      <trkpt lat="44.0882" lon="5.66607">
        <ele>902</ele>
        <time>2021-09-01T12:11:07Z</time>
      </trkpt>
      <trkpt lat="44.08785" lon="5.66587">
        <ele>900.8</ele>
        <time>2021-09-01T12:11:13Z</time>
      </trkpt>
      <trkpt lat="44.08749" lon="5.66576">
        <ele>899.8</ele>
        <time>2021-09-01T12:11:19Z</time>
      </trkpt>
      <trkpt lat="44.08731" lon="5.66573">
        <ele>899</ele>
        <time>2021-09-01T12:11:22Z</time>
      </trkpt>
      <trkpt lat="44.08725" lon="5.66574">
        <ele>898.8</ele>
        <time>2021-09-01T12:11:23Z</time>
      </trkpt>
      <trkpt lat="44.0872" lon="5.66574">
        <ele>898.6</ele>
        <time>2021-09-01T12:11:24Z</time>
      </trkpt>
      <trkpt lat="44.08703" lon="5.66568">
        <ele>898</ele>
        <time>2021-09-01T12:11:27Z</time>
      </trkpt>
      <trkpt lat="44.08697" lon="5.66567">
        <ele>897.8</ele>
        <time>2021-09-01T12:11:28Z</time>
      </trkpt>
      <trkpt lat="44.08673" lon="5.66565">
        <ele>897</ele>
        <time>2021-09-01T12:11:32Z</time>
      </trkpt>
      <trkpt lat="44.08665" lon="5.66568">
        <ele>872.2</ele>
        <time>2021-09-01T12:20:22Z</time>
      </trkpt>
      <trkpt lat="44.08664" lon="5.66572">
        <ele>872.4</ele>
        <time>2021-09-01T12:20:23Z</time>
      </trkpt>
      <trkpt lat="44.08657" lon="5.66587">
        <ele>873.6</ele>
        <time>2021-09-01T12:20:29Z</time>
      </trkpt>
      <trkpt lat="44.08656" lon="5.66589">
        <ele>874.2</ele>
        <time>2021-09-01T12:20:33Z</time>
      </trkpt>
      <trkpt lat="44.08656" lon="5.66589">
        <ele>875.8</ele>
        <time>2021-09-01T12:20:45Z</time>
      </trkpt>
      <trkpt lat="44.08656" lon="5.66589">
        <ele>878.6</ele>
        <time>2021-09-01T12:21:09Z</time>
      </trkpt>
      <trkpt lat="44.08656" lon="5.6659">
        <ele>880.4</ele>
        <time>2021-09-01T12:21:27Z</time>
      </trkpt>
      <trkpt lat="44.08656" lon="5.6659">
        <ele>881.2</ele>
        <time>2021-09-01T12:21:39Z</time>
      </trkpt>
      <trkpt lat="44.08657" lon="5.66589">
        <ele>882.4</ele>
        <time>2021-09-01T12:21:56Z</time>
      </trkpt>
      <trkpt lat="44.08657" lon="5.66593">
        <ele>883</ele>
        <time>2021-09-01T12:22:07Z</time>
      </trkpt>
      <trkpt lat="44.08655" lon="5.66606">
        <ele>883.4</ele>
        <time>2021-09-01T12:22:12Z</time>
      </trkpt>
      <trkpt lat="44.08653" lon="5.66628">
        <ele>884.2</ele>
        <time>2021-09-01T12:22:18Z</time>
      </trkpt>
      <trkpt lat="44.08654" lon="5.66656">
        <ele>885.8</ele>
        <time>2021-09-01T12:22:26Z</time>
      </trkpt>
      <trkpt lat="44.08657" lon="5.66667">
        <ele>886.6</ele>
        <time>2021-09-01T12:22:30Z</time>
      </trkpt>
      <trkpt lat="44.0866" lon="5.66674">
        <ele>887.4</ele>
        <time>2021-09-01T12:22:34Z</time>
      </trkpt>
      <trkpt lat="44.0866" lon="5.66679">
        <ele>887.8</ele>
        <time>2021-09-01T12:22:36Z</time>
      </trkpt>
      <trkpt lat="44.0866" lon="5.66684">
        <ele>888</ele>
        <time>2021-09-01T12:22:38Z</time>
      </trkpt>
      <trkpt lat="44.08658" lon="5.66693">
        <ele>888.8</ele>
        <time>2021-09-01T12:22:42Z</time>
      </trkpt>
      <trkpt lat="44.08653" lon="5.66707">
        <ele>890.2</ele>
        <time>2021-09-01T12:22:48Z</time>
      </trkpt>
      <trkpt lat="44.08649" lon="5.66721">
        <ele>891.4</ele>
        <time>2021-09-01T12:22:53Z</time>
      </trkpt>
      <trkpt lat="44.08647" lon="5.66727">
        <ele>892</ele>
        <time>2021-09-01T12:22:55Z</time>
      </trkpt>
      <trkpt lat="44.08644" lon="5.66732">
        <ele>892.8</ele>
        <time>2021-09-01T12:22:57Z</time>
      </trkpt>
      <trkpt lat="44.08644" lon="5.66735">
        <ele>893</ele>
        <time>2021-09-01T12:22:58Z</time>
      </trkpt>
      <trkpt lat="44.08643" lon="5.6674">
        <ele>894</ele>
        <time>2021-09-01T12:23:01Z</time>
      </trkpt>
      <trkpt lat="44.08644" lon="5.66743">
        <ele>894.8</ele>
        <time>2021-09-01T12:23:03Z</time>
      </trkpt>
      <trkpt lat="44.08644" lon="5.66745">
        <ele>895.2</ele>
        <time>2021-09-01T12:23:04Z</time>
      </trkpt>
      <trkpt lat="44.08644" lon="5.66753">
        <ele>896.2</ele>
        <time>2021-09-01T12:23:07Z</time>
      </trkpt>
      <trkpt lat="44.08643" lon="5.66759">
        <ele>897.2</ele>
        <time>2021-09-01T12:23:10Z</time>
      </trkpt>
      <trkpt lat="44.0864" lon="5.66765">
        <ele>898.2</ele>
        <time>2021-09-01T12:23:13Z</time>
      </trkpt>
      <trkpt lat="44.08633" lon="5.66775">
        <ele>900</ele>
        <time>2021-09-01T12:23:19Z</time>
      </trkpt>
      <trkpt lat="44.08628" lon="5.66792">
        <ele>902</ele>
        <time>2021-09-01T12:23:25Z</time>
      </trkpt>
      <trkpt lat="44.08621" lon="5.66805">
        <ele>904</ele>
        <time>2021-09-01T12:23:31Z</time>
      </trkpt>
      <trkpt lat="44.08613" lon="5.6682">
        <ele>906.4</ele>
        <time>2021-09-01T12:23:38Z</time>
      </trkpt>
      <trkpt lat="44.08607" lon="5.66829">
        <ele>908.4</ele>
        <time>2021-09-01T12:23:43Z</time>
      </trkpt>
      <trkpt lat="44.086" lon="5.66836">
        <ele>910.4</ele>
        <time>2021-09-01T12:23:48Z</time>
      </trkpt>
      <trkpt lat="44.08589" lon="5.6684">
        <ele>912.6</ele>
        <time>2021-09-01T12:23:54Z</time>
      </trkpt>
      <trkpt lat="44.08577" lon="5.66846">
        <ele>915.2</ele>
        <time>2021-09-01T12:24:00Z</time>
      </trkpt>
      <trkpt lat="44.0857" lon="5.6686">
        <ele>917.8</ele>
        <time>2021-09-01T12:24:06Z</time>
      </trkpt>
      <trkpt lat="44.0856" lon="5.66872">
        <ele>920.4</ele>
        <time>2021-09-01T12:24:13Z</time>
      </trkpt>
      <trkpt lat="44.08552" lon="5.66887">
        <ele>922.8</ele>
        <time>2021-09-01T12:24:20Z</time>
      </trkpt>
      <trkpt lat="44.08547" lon="5.66897">
        <ele>924.4</ele>
        <time>2021-09-01T12:24:25Z</time>
      </trkpt>
      <trkpt lat="44.08539" lon="5.66908">
        <ele>927.2</ele>
        <time>2021-09-01T12:24:32Z</time>
      </trkpt>
      <trkpt lat="44.08536" lon="5.66912">
        <ele>928.4</ele>
        <time>2021-09-01T12:24:35Z</time>
      </trkpt>
      <trkpt lat="44.08533" lon="5.66915">
        <ele>929</ele>
        <time>2021-09-01T12:24:37Z</time>
      </trkpt>
      <trkpt lat="44.08529" lon="5.66922">
        <ele>930</ele>
        <time>2021-09-01T12:24:40Z</time>
      </trkpt>
      <trkpt lat="44.08525" lon="5.6693">
        <ele>931</ele>
        <time>2021-09-01T12:24:43Z</time>
      </trkpt>
      <trkpt lat="44.08525" lon="5.66932">
        <ele>931.4</ele>
        <time>2021-09-01T12:24:44Z</time>
      </trkpt>
      <trkpt lat="44.08523" lon="5.66937">
        <ele>932.2</ele>
        <time>2021-09-01T12:24:47Z</time>
      </trkpt>
      <trkpt lat="44.08523" lon="5.66937">
        <ele>935</ele>
        <time>2021-09-01T12:24:57Z</time>
      </trkpt>
      <trkpt lat="44.08523" lon="5.66937">
        <ele>939.4</ele>
        <time>2021-09-01T12:25:16Z</time>
      </trkpt>
      <trkpt lat="44.08523" lon="5.66938">
        <ele>943.4</ele>
        <time>2021-09-01T12:25:38Z</time>
      </trkpt>
      <trkpt lat="44.08523" lon="5.66938">
        <ele>945.2</ele>
        <time>2021-09-01T12:25:51Z</time>
      </trkpt>
      <trkpt lat="44.08522" lon="5.66938">
        <ele>945.6</ele>
        <time>2021-09-01T12:25:54Z</time>
      </trkpt>
      <trkpt lat="44.0852" lon="5.6694">
        <ele>945.8</ele>
        <time>2021-09-01T12:25:56Z</time>
      </trkpt>
      <trkpt lat="44.08512" lon="5.66946">
        <ele>946.4</ele>
        <time>2021-09-01T12:26:00Z</time>
      </trkpt>
      <trkpt lat="44.08501" lon="5.66963">
        <ele>947.4</ele>
        <time>2021-09-01T12:26:06Z</time>
      </trkpt>
      <trkpt lat="44.08481" lon="5.66988">
        <ele>948.2</ele>
        <time>2021-09-01T12:26:12Z</time>
      </trkpt>
      <trkpt lat="44.08477" lon="5.66993">
        <ele>948.4</ele>
        <time>2021-09-01T12:26:13Z</time>
      </trkpt>
      <trkpt lat="44.0846" lon="5.67006">
        <ele>948.4</ele>
        <time>2021-09-01T12:26:16Z</time>
      </trkpt>
      <trkpt lat="44.08446" lon="5.67018">
        <ele>948.4</ele>
        <time>2021-09-01T12:26:20Z</time>
      </trkpt>
      <trkpt lat="44.08442" lon="5.67022">
        <ele>948.4</ele>
        <time>2021-09-01T12:26:24Z</time>
      </trkpt>
      <trkpt lat="44.08434" lon="5.67028">
        <ele>948.2</ele>
        <time>2021-09-01T12:26:28Z</time>
      </trkpt>
      <trkpt lat="44.0842" lon="5.67031">
        <ele>949</ele>
        <time>2021-09-01T12:26:32Z</time>
      </trkpt>
      <trkpt lat="44.08407" lon="5.67033">
        <ele>948.4</ele>
        <time>2021-09-01T12:26:36Z</time>
      </trkpt>
      <trkpt lat="44.08404" lon="5.67034">
        <ele>948.4</ele>
        <time>2021-09-01T12:26:37Z</time>
      </trkpt>
      <trkpt lat="44.08399" lon="5.6704">
        <ele>948.8</ele>
        <time>2021-09-01T12:26:39Z</time>
      </trkpt>
      <trkpt lat="44.08384" lon="5.67051">
        <ele>948.6</ele>
        <time>2021-09-01T12:26:44Z</time>
      </trkpt>
      <trkpt lat="44.08371" lon="5.67059">
        <ele>948.8</ele>
        <time>2021-09-01T12:26:49Z</time>
      </trkpt>
      <trkpt lat="44.0836" lon="5.67068">
        <ele>948.8</ele>
        <time>2021-09-01T12:26:53Z</time>
      </trkpt>
      <trkpt lat="44.08349" lon="5.67075">
        <ele>948.8</ele>
        <time>2021-09-01T12:26:57Z</time>
      </trkpt>
      <trkpt lat="44.08338" lon="5.67086">
        <ele>948.8</ele>
        <time>2021-09-01T12:27:02Z</time>
      </trkpt>
      <trkpt lat="44.0833" lon="5.67092">
        <ele>949</ele>
        <time>2021-09-01T12:27:07Z</time>
      </trkpt>
      <trkpt lat="44.08319" lon="5.67101">
        <ele>949</ele>
        <time>2021-09-01T12:27:11Z</time>
      </trkpt>
      <trkpt lat="44.08301" lon="5.67115">
        <ele>948.6</ele>
        <time>2021-09-01T12:27:16Z</time>
      </trkpt>
      <trkpt lat="44.08295" lon="5.67122">
        <ele>948.6</ele>
        <time>2021-09-01T12:27:18Z</time>
      </trkpt>
      <trkpt lat="44.08288" lon="5.67129">
        <ele>948.4</ele>
        <time>2021-09-01T12:27:20Z</time>
      </trkpt>
      <trkpt lat="44.08286" lon="5.6713">
        <ele>948.2</ele>
        <time>2021-09-01T12:27:23Z</time>
      </trkpt>
      <trkpt lat="44.08286" lon="5.6713">
        <ele>947.8</ele>
        <time>2021-09-01T12:27:29Z</time>
      </trkpt>
      <trkpt lat="44.08285" lon="5.67129">
        <ele>947.6</ele>
        <time>2021-09-01T12:27:35Z</time>
      </trkpt>
      <trkpt lat="44.08282" lon="5.67131">
        <ele>947.6</ele>
        <time>2021-09-01T12:27:36Z</time>
      </trkpt>
      <trkpt lat="44.0827" lon="5.67143">
        <ele>947.6</ele>
        <time>2021-09-01T12:27:40Z</time>
      </trkpt>
      <trkpt lat="44.08256" lon="5.67152">
        <ele>947.2</ele>
        <time>2021-09-01T12:27:44Z</time>
      </trkpt>
      <trkpt lat="44.08244" lon="5.67162">
        <ele>946.8</ele>
        <time>2021-09-01T12:27:47Z</time>
      </trkpt>
      <trkpt lat="44.08238" lon="5.67164">
        <ele>946.8</ele>
        <time>2021-09-01T12:27:48Z</time>
      </trkpt>
      <trkpt lat="44.08224" lon="5.6717">
        <ele>946.4</ele>
        <time>2021-09-01T12:27:51Z</time>
      </trkpt>
      <trkpt lat="44.08221" lon="5.6717">
        <ele>946.4</ele>
        <time>2021-09-01T12:27:52Z</time>
      </trkpt>
      <trkpt lat="44.08209" lon="5.67167">
        <ele>946</ele>
        <time>2021-09-01T12:27:56Z</time>
      </trkpt>
      <trkpt lat="44.08205" lon="5.67167">
        <ele>945.8</ele>
        <time>2021-09-01T12:27:57Z</time>
      </trkpt>
      <trkpt lat="44.08197" lon="5.67167">
        <ele>945.6</ele>
        <time>2021-09-01T12:27:59Z</time>
      </trkpt>
      <trkpt lat="44.08193" lon="5.67167">
        <ele>945.4</ele>
        <time>2021-09-01T12:28:00Z</time>
      </trkpt>
      <trkpt lat="44.08189" lon="5.67166">
        <ele>945.2</ele>
        <time>2021-09-01T12:28:01Z</time>
      </trkpt>
      <trkpt lat="44.08177" lon="5.67165">
        <ele>944.6</ele>
        <time>2021-09-01T12:28:04Z</time>
      </trkpt>
      <trkpt lat="44.08153" lon="5.67159">
        <ele>943.8</ele>
        <time>2021-09-01T12:28:09Z</time>
      </trkpt>
      <trkpt lat="44.08127" lon="5.67153">
        <ele>942.8</ele>
        <time>2021-09-01T12:28:13Z</time>
      </trkpt>
      <trkpt lat="44.08114" lon="5.67149">
        <ele>942</ele>
        <time>2021-09-01T12:28:16Z</time>
      </trkpt>
      <trkpt lat="44.081" lon="5.67144">
        <ele>940.4</ele>
        <time>2021-09-01T12:28:21Z</time>
      </trkpt>
      <trkpt lat="44.08083" lon="5.67144">
        <ele>939.4</ele>
        <time>2021-09-01T12:28:25Z</time>
      </trkpt>
      <trkpt lat="44.08068" lon="5.67144">
        <ele>938</ele>
        <time>2021-09-01T12:28:29Z</time>
      </trkpt>
      <trkpt lat="44.08055" lon="5.67142">
        <ele>937</ele>
        <time>2021-09-01T12:28:32Z</time>
      </trkpt>
      <trkpt lat="44.0805" lon="5.67141">
        <ele>936.8</ele>
        <time>2021-09-01T12:28:33Z</time>
      </trkpt>
      <trkpt lat="44.08033" lon="5.67138">
        <ele>935.6</ele>
        <time>2021-09-01T12:28:36Z</time>
      </trkpt>
      <trkpt lat="44.08022" lon="5.67134">
        <ele>934.8</ele>
        <time>2021-09-01T12:28:38Z</time>
      </trkpt>
      <trkpt lat="44.08007" lon="5.67127">
        <ele>933.6</ele>
        <time>2021-09-01T12:28:41Z</time>
      </trkpt>
      <trkpt lat="44.07997" lon="5.67121">
        <ele>932.6</ele>
        <time>2021-09-01T12:28:43Z</time>
      </trkpt>
      <trkpt lat="44.07985" lon="5.67113">
        <ele>931.4</ele>
        <time>2021-09-01T12:28:46Z</time>
      </trkpt>
      <trkpt lat="44.07973" lon="5.67108">
        <ele>930.2</ele>
        <time>2021-09-01T12:28:49Z</time>
      </trkpt>
      <trkpt lat="44.07969" lon="5.67105">
        <ele>929.8</ele>
        <time>2021-09-01T12:28:50Z</time>
      </trkpt>
      <trkpt lat="44.07965" lon="5.67101">
        <ele>929.4</ele>
        <time>2021-09-01T12:28:51Z</time>
      </trkpt>
      <trkpt lat="44.07956" lon="5.67089">
        <ele>928.2</ele>
        <time>2021-09-01T12:28:54Z</time>
      </trkpt>
      <trkpt lat="44.07945" lon="5.67076">
        <ele>926.4</ele>
        <time>2021-09-01T12:28:59Z</time>
      </trkpt>
      <trkpt lat="44.07936" lon="5.67062">
        <ele>925</ele>
        <time>2021-09-01T12:29:03Z</time>
      </trkpt>
      <trkpt lat="44.07931" lon="5.67052">
        <ele>923.6</ele>
        <time>2021-09-01T12:29:08Z</time>
      </trkpt>
      <trkpt lat="44.07925" lon="5.67042">
        <ele>922.2</ele>
        <time>2021-09-01T12:29:13Z</time>
      </trkpt>
      <trkpt lat="44.07916" lon="5.67029">
        <ele>921</ele>
        <time>2021-09-01T12:29:18Z</time>
      </trkpt>
      <trkpt lat="44.07904" lon="5.6702">
        <ele>920</ele>
        <time>2021-09-01T12:29:21Z</time>
      </trkpt>
      <trkpt lat="44.079" lon="5.67017">
        <ele>919.8</ele>
        <time>2021-09-01T12:29:22Z</time>
      </trkpt>
      <trkpt lat="44.07895" lon="5.67013">
        <ele>919.6</ele>
        <time>2021-09-01T12:29:23Z</time>
      </trkpt>
      <trkpt lat="44.07887" lon="5.67">
        <ele>919</ele>
        <time>2021-09-01T12:29:25Z</time>
      </trkpt>
      <trkpt lat="44.07882" lon="5.66994">
        <ele>918.6</ele>
        <time>2021-09-01T12:29:26Z</time>
      </trkpt>
      <trkpt lat="44.07872" lon="5.66986">
        <ele>918</ele>
        <time>2021-09-01T12:29:28Z</time>
      </trkpt>
      <trkpt lat="44.07867" lon="5.66981">
        <ele>917.8</ele>
        <time>2021-09-01T12:29:29Z</time>
      </trkpt>
      <trkpt lat="44.07853" lon="5.66966">
        <ele>917</ele>
        <time>2021-09-01T12:29:32Z</time>
      </trkpt>
      <trkpt lat="44.07848" lon="5.6696">
        <ele>916.8</ele>
        <time>2021-09-01T12:29:33Z</time>
      </trkpt>
      <trkpt lat="44.07839" lon="5.66948">
        <ele>916.2</ele>
        <time>2021-09-01T12:29:35Z</time>
      </trkpt>
      <trkpt lat="44.07834" lon="5.66943">
        <ele>916</ele>
        <time>2021-09-01T12:29:36Z</time>
      </trkpt>
      <trkpt lat="44.07829" lon="5.66937">
        <ele>915.6</ele>
        <time>2021-09-01T12:29:37Z</time>
      </trkpt>
      <trkpt lat="44.07822" lon="5.66925">
        <ele>915.2</ele>
        <time>2021-09-01T12:29:39Z</time>
      </trkpt>
      <trkpt lat="44.07816" lon="5.66916">
        <ele>914.8</ele>
        <time>2021-09-01T12:29:41Z</time>
      </trkpt>
      <trkpt lat="44.07809" lon="5.66908">
        <ele>914.4</ele>
        <time>2021-09-01T12:29:43Z</time>
      </trkpt>
      <trkpt lat="44.07799" lon="5.66896">
        <ele>913.6</ele>
        <time>2021-09-01T12:29:46Z</time>
      </trkpt>
      <trkpt lat="44.07792" lon="5.66888">
        <ele>913.2</ele>
        <time>2021-09-01T12:29:48Z</time>
      </trkpt>
      <trkpt lat="44.07777" lon="5.66867">
        <ele>912.4</ele>
        <time>2021-09-01T12:29:53Z</time>
      </trkpt>
      <trkpt lat="44.07765" lon="5.66845">
        <ele>911.6</ele>
        <time>2021-09-01T12:29:58Z</time>
      </trkpt>
      <trkpt lat="44.07757" lon="5.66829">
        <ele>911</ele>
        <time>2021-09-01T12:30:02Z</time>
      </trkpt>
      <trkpt lat="44.07753" lon="5.66812">
        <ele>910.4</ele>
        <time>2021-09-01T12:30:06Z</time>
      </trkpt>
      <trkpt lat="44.07748" lon="5.66782">
        <ele>909.6</ele>
        <time>2021-09-01T12:30:12Z</time>
      </trkpt>
      <trkpt lat="44.07743" lon="5.66763">
        <ele>909.2</ele>
        <time>2021-09-01T12:30:15Z</time>
      </trkpt>
      <trkpt lat="44.07743" lon="5.66756">
        <ele>909</ele>
        <time>2021-09-01T12:30:16Z</time>
      </trkpt>
      <trkpt lat="44.07743" lon="5.66741">
        <ele>908.6</ele>
        <time>2021-09-01T12:30:18Z</time>
      </trkpt>
      <trkpt lat="44.07745" lon="5.6672">
        <ele>908</ele>
        <time>2021-09-01T12:30:21Z</time>
      </trkpt>
      <trkpt lat="44.07745" lon="5.66695">
        <ele>907.4</ele>
        <time>2021-09-01T12:30:25Z</time>
      </trkpt>
      <trkpt lat="44.07744" lon="5.66683">
        <ele>907</ele>
        <time>2021-09-01T12:30:27Z</time>
      </trkpt>
      <trkpt lat="44.07742" lon="5.66672">
        <ele>906.8</ele>
        <time>2021-09-01T12:30:29Z</time>
      </trkpt>
      <trkpt lat="44.07737" lon="5.66661">
        <ele>906.6</ele>
        <time>2021-09-01T12:30:31Z</time>
      </trkpt>
      <trkpt lat="44.07725" lon="5.66636">
        <ele>906</ele>
        <time>2021-09-01T12:30:35Z</time>
      </trkpt>
      <trkpt lat="44.07721" lon="5.66624">
        <ele>905.8</ele>
        <time>2021-09-01T12:30:37Z</time>
      </trkpt>
      <trkpt lat="44.0772" lon="5.66618">
        <ele>905.6</ele>
        <time>2021-09-01T12:30:38Z</time>
      </trkpt>
      <trkpt lat="44.0772" lon="5.66593">
        <ele>905.2</ele>
        <time>2021-09-01T12:30:43Z</time>
      </trkpt>
      <trkpt lat="44.07721" lon="5.66565">
        <ele>904.6</ele>
        <time>2021-09-01T12:30:48Z</time>
      </trkpt>
      <trkpt lat="44.07728" lon="5.66537">
        <ele>904.2</ele>
        <time>2021-09-01T12:30:53Z</time>
      </trkpt>
      <trkpt lat="44.0773" lon="5.6653">
        <ele>904</ele>
        <time>2021-09-01T12:30:54Z</time>
      </trkpt>
      <trkpt lat="44.07738" lon="5.66507">
        <ele>903.4</ele>
        <time>2021-09-01T12:30:57Z</time>
      </trkpt>
      <trkpt lat="44.07754" lon="5.6646">
        <ele>902</ele>
        <time>2021-09-01T12:31:02Z</time>
      </trkpt>
      <trkpt lat="44.07767" lon="5.66428">
        <ele>900.8</ele>
        <time>2021-09-01T12:31:06Z</time>
      </trkpt>
      <trkpt lat="44.07771" lon="5.6642">
        <ele>900.6</ele>
        <time>2021-09-01T12:31:07Z</time>
      </trkpt>
      <trkpt lat="44.07774" lon="5.66412">
        <ele>900.2</ele>
        <time>2021-09-01T12:31:08Z</time>
      </trkpt>
      <trkpt lat="44.07783" lon="5.66383">
        <ele>899.2</ele>
        <time>2021-09-01T12:31:11Z</time>
      </trkpt>
      <trkpt lat="44.07789" lon="5.66365">
        <ele>898.4</ele>
        <time>2021-09-01T12:31:13Z</time>
      </trkpt>
      <trkpt lat="44.07798" lon="5.66335">
        <ele>897.2</ele>
        <time>2021-09-01T12:31:16Z</time>
      </trkpt>
      <trkpt lat="44.078" lon="5.66325">
        <ele>896.8</ele>
        <time>2021-09-01T12:31:17Z</time>
      </trkpt>
      <trkpt lat="44.07807" lon="5.66295">
        <ele>895.4</ele>
        <time>2021-09-01T12:31:20Z</time>
      </trkpt>
      <trkpt lat="44.07818" lon="5.6628">
        <ele>894.6</ele>
        <time>2021-09-01T12:31:22Z</time>
      </trkpt>
      <trkpt lat="44.07823" lon="5.66274">
        <ele>894.2</ele>
        <time>2021-09-01T12:31:23Z</time>
      </trkpt>
      <trkpt lat="44.07828" lon="5.66268">
        <ele>893.8</ele>
        <time>2021-09-01T12:31:24Z</time>
      </trkpt>
      <trkpt lat="44.07836" lon="5.66251">
        <ele>893</ele>
        <time>2021-09-01T12:31:26Z</time>
      </trkpt>
      <trkpt lat="44.07841" lon="5.66243">
        <ele>892.4</ele>
        <time>2021-09-01T12:31:27Z</time>
      </trkpt>
      <trkpt lat="44.0786" lon="5.66221">
        <ele>891.2</ele>
        <time>2021-09-01T12:31:30Z</time>
      </trkpt>
      <trkpt lat="44.07889" lon="5.66186">
        <ele>889</ele>
        <time>2021-09-01T12:31:35Z</time>
      </trkpt>
      <trkpt lat="44.07894" lon="5.66179">
        <ele>888.8</ele>
        <time>2021-09-01T12:31:36Z</time>
      </trkpt>
      <trkpt lat="44.079" lon="5.66163">
        <ele>887.8</ele>
        <time>2021-09-01T12:31:38Z</time>
      </trkpt>
      <trkpt lat="44.079" lon="5.66148">
        <ele>886.8</ele>
        <time>2021-09-01T12:31:40Z</time>
      </trkpt>
      <trkpt lat="44.07897" lon="5.66143">
        <ele>886.4</ele>
        <time>2021-09-01T12:31:41Z</time>
      </trkpt>
      <trkpt lat="44.07878" lon="5.66117">
        <ele>884.2</ele>
        <time>2021-09-01T12:31:47Z</time>
      </trkpt>
      <trkpt lat="44.07874" lon="5.66113">
        <ele>883.8</ele>
        <time>2021-09-01T12:31:48Z</time>
      </trkpt>
      <trkpt lat="44.07859" lon="5.66094">
        <ele>882.4</ele>
        <time>2021-09-01T12:31:53Z</time>
      </trkpt>
      <trkpt lat="44.07848" lon="5.66078">
        <ele>881.4</ele>
        <time>2021-09-01T12:31:57Z</time>
      </trkpt>
      <trkpt lat="44.07839" lon="5.66073">
        <ele>880.8</ele>
        <time>2021-09-01T12:31:59Z</time>
      </trkpt>
      <trkpt lat="44.0783" lon="5.6607">
        <ele>880.2</ele>
        <time>2021-09-01T12:32:01Z</time>
      </trkpt>
      <trkpt lat="44.0782" lon="5.66067">
        <ele>879.8</ele>
        <time>2021-09-01T12:32:03Z</time>
      </trkpt>
      <trkpt lat="44.07815" lon="5.66066">
        <ele>879.4</ele>
        <time>2021-09-01T12:32:04Z</time>
      </trkpt>
      <trkpt lat="44.07785" lon="5.66056">
        <ele>877.8</ele>
        <time>2021-09-01T12:32:09Z</time>
      </trkpt>
      <trkpt lat="44.07748" lon="5.66045">
        <ele>876.2</ele>
        <time>2021-09-01T12:32:14Z</time>
      </trkpt>
      <trkpt lat="44.07697" lon="5.66029">
        <ele>873.8</ele>
        <time>2021-09-01T12:32:20Z</time>
      </trkpt>
      <trkpt lat="44.07647" lon="5.66015">
        <ele>871.4</ele>
        <time>2021-09-01T12:32:25Z</time>
      </trkpt>
      <trkpt lat="44.07591" lon="5.65999">
        <ele>868.8</ele>
        <time>2021-09-01T12:32:30Z</time>
      </trkpt>
      <trkpt lat="44.07579" lon="5.65995">
        <ele>868.2</ele>
        <time>2021-09-01T12:32:31Z</time>
      </trkpt>
      <trkpt lat="44.07521" lon="5.65979">
        <ele>865.4</ele>
        <time>2021-09-01T12:32:36Z</time>
      </trkpt>
      <trkpt lat="44.07511" lon="5.65976">
        <ele>864.8</ele>
        <time>2021-09-01T12:32:37Z</time>
      </trkpt>
      <trkpt lat="44.07477" lon="5.65967">
        <ele>862.4</ele>
        <time>2021-09-01T12:32:41Z</time>
      </trkpt>
      <trkpt lat="44.07466" lon="5.65962">
        <ele>860.6</ele>
        <time>2021-09-01T12:32:44Z</time>
      </trkpt>
      <trkpt lat="44.07454" lon="5.65969">
        <ele>858.4</ele>
        <time>2021-09-01T12:32:48Z</time>
      </trkpt>
      <trkpt lat="44.07451" lon="5.65977">
        <ele>857</ele>
        <time>2021-09-01T12:32:51Z</time>
      </trkpt>
      <trkpt lat="44.07451" lon="5.65977">
        <ele>854.4</ele>
        <time>2021-09-01T12:32:57Z</time>
      </trkpt>
      <trkpt lat="44.07451" lon="5.65977">
        <ele>847.4</ele>
        <time>2021-09-01T12:33:16Z</time>
      </trkpt>
      <trkpt lat="44.07451" lon="5.65976">
        <ele>842.4</ele>
        <time>2021-09-01T12:33:33Z</time>
      </trkpt>
      <trkpt lat="44.07451" lon="5.65976">
        <ele>837.8</ele>
        <time>2021-09-01T12:33:54Z</time>
      </trkpt>
      <trkpt lat="44.07451" lon="5.65976">
        <ele>836.4</ele>
        <time>2021-09-01T12:34:01Z</time>
      </trkpt>
      <trkpt lat="44.07449" lon="5.65973">
        <ele>836.4</ele>
        <time>2021-09-01T12:34:02Z</time>
      </trkpt>
      <trkpt lat="44.07447" lon="5.65962">
        <ele>836</ele>
        <time>2021-09-01T12:34:06Z</time>
      </trkpt>
      <trkpt lat="44.07441" lon="5.65958">
        <ele>835.8</ele>
        <time>2021-09-01T12:34:08Z</time>
      </trkpt>
      <trkpt lat="44.07436" lon="5.65957">
        <ele>835.6</ele>
        <time>2021-09-01T12:34:09Z</time>
      </trkpt>
      <trkpt lat="44.07426" lon="5.65954">
        <ele>835.4</ele>
        <time>2021-09-01T12:34:11Z</time>
      </trkpt>
      <trkpt lat="44.07415" lon="5.65952">
        <ele>835</ele>
        <time>2021-09-01T12:34:13Z</time>
      </trkpt>
      <trkpt lat="44.07381" lon="5.65944">
        <ele>834.2</ele>
        <time>2021-09-01T12:34:18Z</time>
      </trkpt>
      <trkpt lat="44.07359" lon="5.65942">
        <ele>833.4</ele>
        <time>2021-09-01T12:34:21Z</time>
      </trkpt>
      <trkpt lat="44.07347" lon="5.65945">
        <ele>832.8</ele>
        <time>2021-09-01T12:34:23Z</time>
      </trkpt>
      <trkpt lat="44.07336" lon="5.65953">
        <ele>832.2</ele>
        <time>2021-09-01T12:34:25Z</time>
      </trkpt>
      <trkpt lat="44.07326" lon="5.65964">
        <ele>831.6</ele>
        <time>2021-09-01T12:34:27Z</time>
      </trkpt>
      <trkpt lat="44.07303" lon="5.65998">
        <ele>830.4</ele>
        <time>2021-09-01T12:34:32Z</time>
      </trkpt>
      <trkpt lat="44.07273" lon="5.66044">
        <ele>828.8</ele>
        <time>2021-09-01T12:34:38Z</time>
      </trkpt>
      <trkpt lat="44.07241" lon="5.66101">
        <ele>827.2</ele>
        <time>2021-09-01T12:34:44Z</time>
      </trkpt>
      <trkpt lat="44.07203" lon="5.66171">
        <ele>824.8</ele>
        <time>2021-09-01T12:34:51Z</time>
      </trkpt>
      <trkpt lat="44.07198" lon="5.66181">
        <ele>824.4</ele>
        <time>2021-09-01T12:34:52Z</time>
      </trkpt>
      <trkpt lat="44.07187" lon="5.66201">
        <ele>823.8</ele>
        <time>2021-09-01T12:34:54Z</time>
      </trkpt>
      <trkpt lat="44.0717" lon="5.6623">
        <ele>822.6</ele>
        <time>2021-09-01T12:34:57Z</time>
      </trkpt>
      <trkpt lat="44.07136" lon="5.66289">
        <ele>820.4</ele>
        <time>2021-09-01T12:35:03Z</time>
      </trkpt>
      <trkpt lat="44.0713" lon="5.66298">
        <ele>820.2</ele>
        <time>2021-09-01T12:35:04Z</time>
      </trkpt>
      <trkpt lat="44.07105" lon="5.66347">
        <ele>818.4</ele>
        <time>2021-09-01T12:35:09Z</time>
      </trkpt>
      <trkpt lat="44.07087" lon="5.66382">
        <ele>817</ele>
        <time>2021-09-01T12:35:13Z</time>
      </trkpt>
      <trkpt lat="44.07059" lon="5.66427">
        <ele>815</ele>
        <time>2021-09-01T12:35:19Z</time>
      </trkpt>
      <trkpt lat="44.07023" lon="5.66487">
        <ele>812.2</ele>
        <time>2021-09-01T12:35:26Z</time>
      </trkpt>
      <trkpt lat="44.07018" lon="5.66495">
        <ele>811.8</ele>
        <time>2021-09-01T12:35:27Z</time>
      </trkpt>
      <trkpt lat="44.07008" lon="5.6651">
        <ele>811</ele>
        <time>2021-09-01T12:35:29Z</time>
      </trkpt>
      <trkpt lat="44.07001" lon="5.66527">
        <ele>810.2</ele>
        <time>2021-09-01T12:35:31Z</time>
      </trkpt>
      <trkpt lat="44.0697" lon="5.66582">
        <ele>807.8</ele>
        <time>2021-09-01T12:35:38Z</time>
      </trkpt>
      <trkpt lat="44.06966" lon="5.6659">
        <ele>807.4</ele>
        <time>2021-09-01T12:35:39Z</time>
      </trkpt>
      <trkpt lat="44.06956" lon="5.66617">
        <ele>806.2</ele>
        <time>2021-09-01T12:35:42Z</time>
      </trkpt>
      <trkpt lat="44.06948" lon="5.66636">
        <ele>805.6</ele>
        <time>2021-09-01T12:35:44Z</time>
      </trkpt>
      <trkpt lat="44.06934" lon="5.66673">
        <ele>804.2</ele>
        <time>2021-09-01T12:35:48Z</time>
      </trkpt>
      <trkpt lat="44.0693" lon="5.66681">
        <ele>803.8</ele>
        <time>2021-09-01T12:35:49Z</time>
      </trkpt>
      <trkpt lat="44.06913" lon="5.66704">
        <ele>802.6</ele>
        <time>2021-09-01T12:35:52Z</time>
      </trkpt>
      <trkpt lat="44.0689" lon="5.66734">
        <ele>801</ele>
        <time>2021-09-01T12:35:56Z</time>
      </trkpt>
      <trkpt lat="44.06885" lon="5.66742">
        <ele>800.6</ele>
        <time>2021-09-01T12:35:57Z</time>
      </trkpt>
      <trkpt lat="44.06871" lon="5.66772">
        <ele>799.2</ele>
        <time>2021-09-01T12:36:01Z</time>
      </trkpt>
      <trkpt lat="44.06855" lon="5.66768">
        <ele>757.2</ele>
        <time>2021-09-01T10:00:42Z</time>
      </trkpt>
      <trkpt lat="44.06904" lon="5.66833">
        <ele>758</ele>
        <time>2021-09-01T10:00:45Z</time>
      </trkpt>
      <trkpt lat="44.06953" lon="5.66895">
        <ele>758.8</ele>
        <time>2021-09-01T10:00:48Z</time>
      </trkpt>
      <trkpt lat="44.0697" lon="5.66915">
        <ele>759.2</ele>
        <time>2021-09-01T10:00:49Z</time>
      </trkpt>
      <trkpt lat="44.0702" lon="5.66976">
        <ele>760</ele>
        <time>2021-09-01T10:00:52Z</time>
      </trkpt>
      <trkpt lat="44.0707" lon="5.67036">
        <ele>760.8</ele>
        <time>2021-09-01T10:00:55Z</time>
      </trkpt>
      <trkpt lat="44.07085" lon="5.67055">
        <ele>761</ele>
        <time>2021-09-01T10:00:56Z</time>
      </trkpt>
      <trkpt lat="44.07102" lon="5.6707">
        <ele>761.2</ele>
        <time>2021-09-01T10:00:57Z</time>
      </trkpt>
      <trkpt lat="44.0712" lon="5.67083">
        <ele>761.4</ele>
        <time>2021-09-01T10:00:58Z</time>
      </trkpt>
      <trkpt lat="44.07179" lon="5.67114">
        <ele>762</ele>
        <time>2021-09-01T10:01:01Z</time>
      </trkpt>
      <trkpt lat="44.07213" lon="5.67148">
        <ele>762.2</ele>
        <time>2021-09-01T10:01:03Z</time>
      </trkpt>
      <trkpt lat="44.07256" lon="5.67214">
        <ele>762.8</ele>
        <time>2021-09-01T10:01:06Z</time>
      </trkpt>
      <trkpt lat="44.07279" lon="5.6726">
        <ele>763.4</ele>
        <time>2021-09-01T10:01:08Z</time>
      </trkpt>
      <trkpt lat="44.07288" lon="5.67285">
        <ele>763.8</ele>
        <time>2021-09-01T10:01:09Z</time>
      </trkpt>
      <trkpt lat="44.07295" lon="5.6731">
        <ele>764</ele>
        <time>2021-09-01T10:01:10Z</time>
      </trkpt>
      <trkpt lat="44.07306" lon="5.6736">
        <ele>764.6</ele>
        <time>2021-09-01T10:01:12Z</time>
      </trkpt>
      <trkpt lat="44.07319" lon="5.67406">
        <ele>765.4</ele>
        <time>2021-09-01T10:01:14Z</time>
      </trkpt>
      <trkpt lat="44.07329" lon="5.67429">
        <ele>765.6</ele>
        <time>2021-09-01T10:01:15Z</time>
      </trkpt>
      <trkpt lat="44.0734" lon="5.6745">
        <ele>766</ele>
        <time>2021-09-01T10:01:16Z</time>
      </trkpt>
      <trkpt lat="44.07367" lon="5.6749">
        <ele>766.6</ele>
        <time>2021-09-01T10:01:18Z</time>
      </trkpt>
      <trkpt lat="44.0741" lon="5.67551">
        <ele>767.4</ele>
        <time>2021-09-01T10:01:21Z</time>
      </trkpt>
      <trkpt lat="44.07454" lon="5.67608">
        <ele>768.2</ele>
        <time>2021-09-01T10:01:24Z</time>
      </trkpt>
      <trkpt lat="44.0749" lon="5.67635">
        <ele>768.6</ele>
        <time>2021-09-01T10:01:26Z</time>
      </trkpt>
      <trkpt lat="44.0755" lon="5.67667">
        <ele>769.4</ele>
        <time>2021-09-01T10:01:29Z</time>
      </trkpt>
      <trkpt lat="44.0759" lon="5.67689">
        <ele>769.8</ele>
        <time>2021-09-01T10:01:31Z</time>
      </trkpt>
      <trkpt lat="44.0765" lon="5.67724">
        <ele>770.6</ele>
        <time>2021-09-01T10:01:34Z</time>
      </trkpt>
      <trkpt lat="44.07689" lon="5.67753">
        <ele>771.2</ele>
        <time>2021-09-01T10:01:36Z</time>
      </trkpt>
      <trkpt lat="44.07747" lon="5.67796">
        <ele>772.4</ele>
        <time>2021-09-01T10:01:39Z</time>
      </trkpt>
      <trkpt lat="44.07787" lon="5.67821">
        <ele>773</ele>
        <time>2021-09-01T10:01:41Z</time>
      </trkpt>
      <trkpt lat="44.07846" lon="5.67857">
        <ele>774.4</ele>
        <time>2021-09-01T10:01:44Z</time>
      </trkpt>
      <trkpt lat="44.07904" lon="5.67891">
        <ele>775.6</ele>
        <time>2021-09-01T10:01:47Z</time>
      </trkpt>
      <trkpt lat="44.07942" lon="5.67915">
        <ele>776.6</ele>
        <time>2021-09-01T10:01:49Z</time>
      </trkpt>
      <trkpt lat="44.07996" lon="5.67955">
        <ele>778.2</ele>
        <time>2021-09-01T10:01:52Z</time>
      </trkpt>
      <trkpt lat="44.08014" lon="5.6797">
        <ele>778.8</ele>
        <time>2021-09-01T10:01:53Z</time>
      </trkpt>
      <trkpt lat="44.08064" lon="5.6802">
        <ele>780.2</ele>
        <time>2021-09-01T10:01:56Z</time>
      </trkpt>
      <trkpt lat="44.08114" lon="5.68071">
        <ele>781.8</ele>
        <time>2021-09-01T10:01:59Z</time>
      </trkpt>
      <trkpt lat="44.08163" lon="5.68122">
        <ele>783.4</ele>
        <time>2021-09-01T10:02:02Z</time>
      </trkpt>
      <trkpt lat="44.08212" lon="5.68172">
        <ele>785.2</ele>
        <time>2021-09-01T10:02:05Z</time>
      </trkpt>
      <trkpt lat="44.0826" lon="5.68222">
        <ele>787</ele>
        <time>2021-09-01T10:02:08Z</time>
      </trkpt>
      <trkpt lat="44.08291" lon="5.68258">
        <ele>788.2</ele>
        <time>2021-09-01T10:02:10Z</time>
      </trkpt>
      <trkpt lat="44.08337" lon="5.68312">
        <ele>790</ele>
        <time>2021-09-01T10:02:13Z</time>
      </trkpt>
      <trkpt lat="44.08382" lon="5.68367">
        <ele>792</ele>
        <time>2021-09-01T10:02:16Z</time>
      </trkpt>
      <trkpt lat="44.08428" lon="5.68424">
        <ele>793.8</ele>
        <time>2021-09-01T10:02:19Z</time>
      </trkpt>
      <trkpt lat="44.08473" lon="5.68482">
        <ele>795.8</ele>
        <time>2021-09-01T10:02:22Z</time>
      </trkpt>
      <trkpt lat="44.08486" lon="5.68503">
        <ele>796.2</ele>
        <time>2021-09-01T10:02:23Z</time>
      </trkpt>
      <trkpt lat="44.08508" lon="5.68543">
        <ele>797.4</ele>
        <time>2021-09-01T10:02:25Z</time>
      </trkpt>
      <trkpt lat="44.08522" lon="5.6857">
        <ele>798.6</ele>
        <time>2021-09-01T10:02:27Z</time>
      </trkpt>
      <trkpt lat="44.08528" lon="5.68578">
        <ele>799.2</ele>
        <time>2021-09-01T10:02:28Z</time>
      </trkpt>
      <trkpt lat="44.08536" lon="5.68582">
        <ele>800</ele>
        <time>2021-09-01T10:02:29Z</time>
      </trkpt>
      <trkpt lat="44.08544" lon="5.68585">
        <ele>800.6</ele>
        <time>2021-09-01T10:02:30Z</time>
      </trkpt>
      <trkpt lat="44.08562" lon="5.6859">
        <ele>801.8</ele>
        <time>2021-09-01T10:02:32Z</time>
      </trkpt>
      <trkpt lat="44.08606" lon="5.68607">
        <ele>804.2</ele>
        <time>2021-09-01T10:02:36Z</time>
      </trkpt>
      <trkpt lat="44.0867" lon="5.68633">
        <ele>807</ele>
        <time>2021-09-01T10:02:41Z</time>
      </trkpt>
      <trkpt lat="44.08725" lon="5.68656">
        <ele>809.4</ele>
        <time>2021-09-01T10:02:45Z</time>
      </trkpt>
      <trkpt lat="44.08782" lon="5.68679">
        <ele>812</ele>
        <time>2021-09-01T10:02:49Z</time>
      </trkpt>
      <trkpt lat="44.0881" lon="5.68691">
        <ele>813.2</ele>
        <time>2021-09-01T10:02:51Z</time>
      </trkpt>
      <trkpt lat="44.08866" lon="5.68715">
        <ele>816</ele>
        <time>2021-09-01T10:02:55Z</time>
      </trkpt>
      <trkpt lat="44.08921" lon="5.68739">
        <ele>818.8</ele>
        <time>2021-09-01T10:02:59Z</time>
      </trkpt>
      <trkpt lat="44.08948" lon="5.6875">
        <ele>820.2</ele>
        <time>2021-09-01T10:03:01Z</time>
      </trkpt>
      <trkpt lat="44.09009" lon="5.68775">
        <ele>823.8</ele>
        <time>2021-09-01T10:03:06Z</time>
      </trkpt>
      <trkpt lat="44.09067" lon="5.68799">
        <ele>827.2</ele>
        <time>2021-09-01T10:03:11Z</time>
      </trkpt>
      <trkpt lat="44.09087" lon="5.68808">
        <ele>828.8</ele>
        <time>2021-09-01T10:03:13Z</time>
      </trkpt>
      <trkpt lat="44.09119" lon="5.68822">
        <ele>831.4</ele>
        <time>2021-09-01T10:03:17Z</time>
      </trkpt>
      <trkpt lat="44.09125" lon="5.68825">
        <ele>832</ele>
        <time>2021-09-01T10:03:18Z</time>
      </trkpt>
      <trkpt lat="44.09131" lon="5.68831">
        <ele>833.2</ele>
        <time>2021-09-01T10:03:20Z</time>
      </trkpt>
      <trkpt lat="44.09138" lon="5.68835">
        <ele>835.6</ele>
        <time>2021-09-01T10:03:24Z</time>
      </trkpt>
      <trkpt lat="44.09159" lon="5.68827">
        <ele>838.8</ele>
        <time>2021-09-01T10:03:29Z</time>
      </trkpt>
      <trkpt lat="44.09189" lon="5.6882">
        <ele>841.2</ele>
        <time>2021-09-01T10:03:33Z</time>
      </trkpt>
      <trkpt lat="44.09216" lon="5.68814">
        <ele>843.4</ele>
        <time>2021-09-01T10:03:37Z</time>
      </trkpt>
      <trkpt lat="44.09223" lon="5.68819">
        <ele>844.4</ele>
        <time>2021-09-01T10:03:39Z</time>
      </trkpt>
      <trkpt lat="44.09224" lon="5.68823">
        <ele>845</ele>
        <time>2021-09-01T10:03:40Z</time>
      </trkpt>
      <trkpt lat="44.09225" lon="5.6883">
        <ele>845.4</ele>
        <time>2021-09-01T10:03:41Z</time>
      </trkpt>
      <trkpt lat="44.09227" lon="5.68847">
        <ele>846.6</ele>
        <time>2021-09-01T10:03:43Z</time>
      </trkpt>
      <trkpt lat="44.09234" lon="5.68889">
        <ele>849.2</ele>
        <time>2021-09-01T10:03:48Z</time>
      </trkpt>
      <trkpt lat="44.09241" lon="5.68925">
        <ele>851.6</ele>
        <time>2021-09-01T10:03:53Z</time>
      </trkpt>
      <trkpt lat="44.09241" lon="5.68932">
        <ele>852</ele>
        <time>2021-09-01T10:03:54Z</time>
      </trkpt>
      <trkpt lat="44.09245" lon="5.68957">
        <ele>853.6</ele>
        <time>2021-09-01T10:03:58Z</time>
      </trkpt>
      <trkpt lat="44.09246" lon="5.68968">
        <ele>855</ele>
        <time>2021-09-01T10:04:01Z</time>
      </trkpt>
      <trkpt lat="44.09245" lon="5.68983">
        <ele>856.2</ele>
        <time>2021-09-01T10:04:05Z</time>
      </trkpt>
      <trkpt lat="44.09241" lon="5.68994">
        <ele>857</ele>
        <time>2021-09-01T10:04:07Z</time>
      </trkpt>
      <trkpt lat="44.09236" lon="5.69004">
        <ele>857.8</ele>
        <time>2021-09-01T10:04:09Z</time>
      </trkpt>
      <trkpt lat="44.09219" lon="5.69035">
        <ele>860</ele>
        <time>2021-09-01T10:04:16Z</time>
      </trkpt>
      <trkpt lat="44.09204" lon="5.69061">
        <ele>861.8</ele>
        <time>2021-09-01T10:04:22Z</time>
      </trkpt>
      <trkpt lat="44.09199" lon="5.69068">
        <ele>863</ele>
        <time>2021-09-01T10:04:26Z</time>
      </trkpt>
      <trkpt lat="44.09189" lon="5.69066">
        <ele>863.6</ele>
        <time>2021-09-01T10:04:30Z</time>
      </trkpt>
      <trkpt lat="44.09182" lon="5.69059">
        <ele>864.4</ele>
        <time>2021-09-01T10:04:34Z</time>
      </trkpt>
      <trkpt lat="44.09174" lon="5.69048">
        <ele>864.8</ele>
        <time>2021-09-01T10:04:37Z</time>
      </trkpt>
      <trkpt lat="44.0917" lon="5.69047">
        <ele>865</ele>
        <time>2021-09-01T10:04:38Z</time>
      </trkpt>
      <trkpt lat="44.09165" lon="5.69049">
        <ele>865</ele>
        <time>2021-09-01T10:04:39Z</time>
      </trkpt>
      <trkpt lat="44.09157" lon="5.69054">
        <ele>865.2</ele>
        <time>2021-09-01T10:04:41Z</time>
      </trkpt>
      <trkpt lat="44.09137" lon="5.69063">
        <ele>865.6</ele>
        <time>2021-09-01T10:04:45Z</time>
      </trkpt>
      <trkpt lat="44.09132" lon="5.69063">
        <ele>865.6</ele>
        <time>2021-09-01T10:04:46Z</time>
      </trkpt>
      <trkpt lat="44.09098" lon="5.69065">
        <ele>866</ele>
        <time>2021-09-01T10:04:52Z</time>
      </trkpt>
      <trkpt lat="44.09086" lon="5.69067">
        <ele>866.2</ele>
        <time>2021-09-01T10:04:54Z</time>
      </trkpt>
      <trkpt lat="44.09068" lon="5.69074">
        <ele>866.4</ele>
        <time>2021-09-01T10:04:57Z</time>
      </trkpt>
      <trkpt lat="44.09043" lon="5.69086">
        <ele>866.8</ele>
        <time>2021-09-01T10:05:02Z</time>
      </trkpt>
      <trkpt lat="44.09027" lon="5.69091">
        <ele>867.2</ele>
        <time>2021-09-01T10:05:07Z</time>
      </trkpt>
      <trkpt lat="44.09014" lon="5.69089">
        <ele>867.4</ele>
        <time>2021-09-01T10:05:13Z</time>
      </trkpt>
      <trkpt lat="44.09011" lon="5.69088">
        <ele>867.6</ele>
        <time>2021-09-01T10:05:20Z</time>
      </trkpt>
      <trkpt lat="44.09009" lon="5.69088">
        <ele>867.6</ele>
        <time>2021-09-01T10:05:26Z</time>
      </trkpt>
      <trkpt lat="44.09007" lon="5.69089">
        <ele>867.8</ele>
        <time>2021-09-01T10:05:27Z</time>
      </trkpt>
    </trkseg>
  </trk>
</gpx>